GFSNW_sfc_rhum_000.txt.gz
RH
92 94 95 96 95 96 97 64 53 65 51 50 84 60 64 61 40 41 47 44 41 44 56 62 63 57 59 62 61 46 56 59 72 46 43 47 45 50 47 62 54 88 87 59
93 97 95 96 95 90 84 73 94 88 50 67 90 59 58 53 41 44 46 50 51 58 65 67 69 67 62 52 56 51 49 64 77 55 43 42 48 57 59 63 78 76 82 60
94 96 97 96 94 91 80 83 93 84 76 70 48 48 51 52 47 48 45 51 50 59 69 70 72 71 62 55 60 76 60 63 56 61 52 54 47 55 56 52 75 70 74 51
94 95 96 95 93 92 82 78 81 80 93 87 60 47 56 55 55 47 45 49 50 57 72 76 78 73 62 55 70 75 54 60 67 71 67 57 48 46 60 52 54 58 56 56
96 95 96 96 93 89 80 88 73 70 73 77 73 76 56 53 52 52 50 48 62 59 64 54 70 62 57 50 75 79 69 74 75 80 76 70 58 49 53 60 56 62 69 61
97 96 95 95 92 81 77 94 86 64 87 79 80 83 63 55 54 65 59 54 62 68 74 73 77 74 74 70 71 82 76 89 62 51 80 66 56 52 52 54 55 57 73 57
92 94 94 95 92 84 76 90 84 83 90 82 73 63 61 58 55 58 69 62 65 70 69 62 58 66 79 81 90 75 95 89 82 80 74 53 42 51 55 55 63 68 72 74
93 93 93 93 91 93 88 96 78 80 94 73 66 70 76 76 81 81 82 81 72 62 61 80 71 80 69 80 91 82 74 89 95 73 78 49 36 69 70 64 54 74 71 80
94 94 94 93 91 91 86 95 87 81 90 84 59 75 74 85 85 85 85 82 72 66 91 80 78 75 66 76 87 85 83 84 75 92 61 50 43 53 58 54 73 75 74 79
92 93 93 94 94 92 78 96 90 79 88 83 69 74 73 76 82 90 85 79 77 68 92 92 83 71 69 74 89 95 99 98 82 99 81 67 49 58 56 69 62 84 75 76
92 94 95 95 93 92 83 93 93 75 94 88 83 74 76 80 82 86 82 79 83 90 80 85 91 95 88 84 77 90 92 93 98 97 92 60 54 59 65 65 75 81 82 81
98 99 99 99 95 91 82 80 93 93 84 82 82 80 81 78 61 84 85 70 79 85 89 94 98 98 96 92 83 80 76 69 79 70 72 56 56 64 62 67 64 81 83 84
98 97 95 99 97 91 83 94 96 83 94 84 80 82 74 70 74 67 71 86 78 82 83 98 98 82 98 95 96 88 78 70 84 75 57 64 63 60 66 72 72 79 84 85
95 95 93 94 92 92 90 96 98 80 90 97 84 76 78 71 74 72 68 81 88 91 92 99 100 87 88 94 85 89 79 74 76 82 70 72 66 74 70 77 84 86 87 84
95 94 93 92 93 88 89 96 98 96 67 91 96 80 74 80 80 82 79 74 83 92 95 96 91 97 97 98 98 97 79 72 84 80 56 59 58 55 79 84 86 89 85 82
96 95 94 91 92 87 63 68 87 98 91 91 91 90 87 88 86 88 89 91 92 92 88 95 95 84 91 99 98 75 70 71 62 60 66 67 66 81 82 84 89 88 75 53
96 95 93 91 88 91 77 65 90 98 92 94 98 97 89 90 94 98 97 96 98 93 98 99 99 100 94 98 98 58 66 68 71 76 83 80 86 81 88 85 76 54 45 44
95 94 94 93 94 95 95 99 98 98 87 92 95 98 94 92 100 100 98 100 98 98 99 99 99 99 99 100 89 83 76 77 78 76 81 80 85 69 53 50 48 53 59 65
95 89 90 90 97 100 99 97 98 96 87 98 99 90 86 95 99 100 99 99 100 97 100 100 98 100 99 96 93 89 87 87 84 88 87 76 59 50 54 57 70 86 93 95
91 91 91 100 100 94 92 89 94 96 98 98 100 98 99 96 100 100 99 100 100 98 98 99 100 100 91 90 87 89 90 88 88 85 74 70 83 85 85 87 83 89 95 93
98 100 100 98 91 94 97 100 97 95 98 99 99 100 100 95 99 100 100 100 100 99 94 100 99 99 94 71 79 83 84 82 80 77 79 80 84 91 95 97 86 90 92 87
95 97 94 92 94 99 95 100 100 95 93 100 100 100 99 100 98 99 100 99 100 97 98 100 99 90 69 77 85 86 84 80 82 85 92 92 94 94 96 95 91 89 84 92
93 92 93 90 98 98 93 98 99 100 100 100 100 100 100 98 98 100 100 100 99 99 100 99 99 79 87 89 78 70 74 78 80 82 82 79 68 75 86 85 92 92 88 83
96 100 99 100 98 99 99 99 99 100 100 100 100 100 100 100 100 100 100 100 100 99 100 98 100 99 95 64 69 75 82 92 92 74 78 85 85 87 93 95 95 95 92 94
92 92 98 98 99 99 100 100 100 100 99 100 100 100 99 100 99 99 98 98 98 97 98 99 99 98 90 65 71 83 88 92 84 75 84 86 88 90 90 92 95 99 99 98
91 94 99 99 99 100 100 100 100 100 100 100 99 99 99 99 99 98 98 97 97 98 100 100 99 89 82 87 73 76 88 90 89 85 89 92 93 93 92 95 96 96 97 96
84 99 100 99 99 100 100 100 99 99 100 99 99 98 96 97 98 98 99 98 99 100 99 99 93 90 75 88 91 89 83 82 86 94 82 94 96 99 96 92 89 92 94 96

GFSNW_sfc_rhum_003.txt.gz
RH
89 91 94 92 95 91 98 77 62 70 62 56 72 60 54 59 49 40 44 38 41 44 50 52 53 51 48 56 51 42 42 54 57 34 33 36 33 37 40 49 44 63 65 38
88 91 92 92 93 95 92 66 87 84 59 67 86 56 52 52 45 42 45 50 50 56 60 59 60 58 57 50 46 48 46 55 60 41 31 33 35 42 46 52 65 64 83 36
89 92 94 93 95 93 80 83 92 84 70 62 51 49 50 47 48 46 45 50 52 59 63 64 68 63 56 56 57 78 58 52 52 50 39 41 43 48 44 41 57 54 60 37
92 95 96 94 95 96 86 77 80 82 93 71 53 43 44 48 53 46 44 49 49 56 68 68 71 61 53 56 69 64 49 55 52 57 56 46 35 44 46 38 42 51 42 43
93 94 96 96 94 94 88 75 76 72 76 69 53 60 57 50 48 52 49 50 56 55 62 53 68 59 52 49 65 61 60 66 62 66 61 57 49 40 43 50 48 43 46 46
94 94 95 95 94 85 81 92 76 62 85 83 65 74 57 52 53 64 54 52 58 62 63 63 66 65 67 62 63 69 65 80 60 56 63 53 58 51 44 48 44 44 55 39
94 95 97 96 91 84 78 86 77 78 85 83 66 66 59 56 54 56 64 58 62 69 63 60 56 64 72 67 71 65 81 71 69 73 73 60 34 44 40 42 42 42 48 49
96 96 96 95 90 86 88 94 75 73 97 72 64 69 72 73 76 77 75 78 69 66 61 76 69 80 76 83 72 64 62 76 81 80 60 44 30 43 56 56 39 47 47 50
95 95 96 95 90 87 87 93 86 75 84 76 53 74 71 83 82 84 87 73 66 64 83 81 81 75 63 62 75 74 68 77 72 76 68 61 42 34 52 43 55 44 55 64
94 94 94 94 89 88 85 93 85 78 78 79 69 70 73 73 79 86 80 72 77 64 86 93 83 69 62 58 76 92 96 93 81 81 81 60 41 44 46 57 50 58 63 63
95 95 93 91 86 88 83 93 93 75 88 86 80 69 74 76 78 84 80 76 82 87 90 93 82 92 78 70 64 85 74 84 86 85 77 66 45 49 64 58 60 58 66 64
99 98 98 92 86 88 87 87 94 84 82 82 81 77 75 72 61 78 83 70 75 78 87 90 95 100 98 86 79 71 72 69 73 64 67 53 48 60 55 56 55 55 65 62
94 97 98 93 88 88 82 91 95 89 95 85 76 78 71 72 75 68 70 78 74 74 75 94 97 95 94 96 87 81 69 61 73 73 51 55 55 51 52 50 55 55 60 58
94 94 95 92 89 90 85 84 95 88 91 100 89 79 79 75 77 69 70 78 83 85 79 98 100 97 80 91 79 87 71 67 70 71 62 59 52 56 55 55 63 67 66 69
94 94 89 92 90 88 90 97 98 93 71 96 97 81 76 80 78 76 73 70 78 84 93 100 97 91 95 95 92 88 70 68 79 78 51 53 51 43 50 61 61 64 73 77
95 92 92 91 90 85 85 82 90 94 88 90 97 87 86 84 83 85 89 85 87 85 81 96 84 82 84 100 91 64 61 62 56 51 53 55 55 53 57 63 67 75 77 58
94 91 89 90 89 89 73 66 87 94 89 94 98 98 87 90 92 96 95 94 94 88 97 99 97 98 82 99 89 59 67 61 62 64 68 71 68 67 76 72 53 47 43 46
94 94 93 93 94 94 94 98 95 96 81 88 95 97 97 91 100 100 96 100 95 97 97 97 99 98 97 100 85 79 74 72 75 79 73 73 63 49 47 45 49 60 70 80
91 88 92 90 97 99 98 96 96 92 82 95 96 91 91 93 100 99 98 96 100 94 100 100 95 100 98 93 84 80 81 85 80 66 55 53 56 54 60 65 78 93 97 97
89 89 89 100 100 94 90 85 90 95 98 98 100 94 100 93 100 100 100 100 100 100 99 98 100 100 77 65 72 79 83 78 76 81 71 78 83 83 82 89 91 94 97 96
96 100 100 99 91 88 95 99 98 96 98 98 100 100 100 95 100 100 100 100 100 99 93 100 100 99 73 74 84 80 79 81 81 79 82 83 92 96 97 99 98 97 96 94
94 97 94 90 91 94 94 100 100 96 96 100 100 100 98 100 94 99 100 100 100 99 97 100 99 83 61 80 84 86 85 86 90 89 94 92 91 91 97 98 98 99 88 90
90 90 93 89 98 97 88 99 100 100 100 100 100 100 100 99 97 100 100 100 100 98 100 99 94 69 96 85 77 82 82 83 80 81 82 74 66 76 89 88 94 94 89 85
95 98 99 97 100 100 100 100 100 100 100 100 100 100 100 100 100 100 100 100 99 100 99 96 97 99 93 73 72 86 87 92 81 64 75 85 85 87 90 91 92 94 93 92
92 92 99 99 100 99 100 100 100 100 100 100 100 100 98 100 99 99 99 97 96 94 94 99 99 97 67 59 65 68 80 88 80 71 82 88 88 91 89 92 94 95 98 94
93 98 99 99 99 100 100 100 100 100 100 100 100 99 99 98 97 97 96 94 94 94 99 100 99 99 98 85 71 76 83 87 85 82 86 91 92 94 95 92 93 95 95 97
94 99 100 100 100 100 100 100 100 99 99 100 98 98 97 96 97 98 95 94 94 100 100 98 93 90 82 83 86 89 78 79 82 85 85 89 93 97 95 97 95 96 95 94

GFSNW_sfc_rhum_006.txt.gz
RH
90 95 92 93 92 93 95 60 54 68 64 50 35 36 28 47 33 32 29 25 24 26 29 28 28 27 29 37 29 29 28 32 44 28 26 26 24 23 21 30 31 45 53 21
91 95 92 94 93 91 82 51 54 60 54 54 70 37 30 34 30 27 31 29 29 34 34 39 36 36 41 38 34 32 32 36 43 34 29 26 27 25 23 32 44 41 67 20
92 94 92 92 93 88 57 44 74 63 40 33 33 33 31 27 34 30 31 36 37 39 40 43 46 45 42 42 39 72 45 36 36 39 26 26 34 30 25 22 37 28 34 15
94 93 90 90 91 89 66 51 48 39 74 46 31 29 26 25 34 32 31 36 33 36 50 46 48 44 41 44 65 45 36 41 36 34 35 31 26 26 28 25 25 33 17 20
91 92 92 92 92 91 73 54 50 49 40 38 32 39 28 23 31 33 31 32 37 37 45 35 47 41 38 37 46 42 43 50 47 49 40 35 35 25 25 26 24 26 20 23
92 94 94 94 91 86 56 54 47 36 72 41 36 35 28 25 35 46 36 32 40 44 44 44 41 42 40 37 43 51 51 62 48 42 47 45 72 40 25 24 24 27 30 22
93 94 94 94 90 74 40 50 41 49 70 51 37 29 26 37 35 43 45 39 42 54 42 40 40 43 42 40 46 42 63 53 59 68 69 83 21 28 26 24 22 21 22 25
92 91 92 91 91 84 51 58 44 45 99 47 39 32 28 42 48 54 51 56 49 44 46 55 56 70 80 68 47 43 41 53 75 92 45 31 15 23 28 33 20 22 22 21
93 92 92 94 95 88 60 61 59 43 72 62 31 34 42 56 55 64 68 58 51 46 63 70 72 62 45 53 56 53 46 54 54 71 89 88 30 27 38 34 30 28 33 34
95 95 96 94 93 88 62 62 75 36 40 42 44 39 48 46 52 60 62 62 65 50 76 100 81 58 45 45 65 91 78 83 86 70 91 46 26 32 36 41 34 33 38 36
95 96 96 95 92 88 67 72 73 53 50 55 52 45 53 55 51 65 61 57 63 70 91 92 70 91 57 49 44 59 58 73 91 76 95 79 29 40 50 37 41 38 38 38
94 95 95 94 90 85 79 66 69 61 57 62 61 61 59 51 38 47 57 49 52 53 70 84 89 97 96 73 66 50 55 51 54 46 44 34 33 36 34 39 42 39 41 34
96 95 93 91 87 85 70 64 74 59 78 61 56 60 58 55 60 54 46 55 51 54 59 82 97 100 81 98 65 59 49 45 57 55 32 32 32 31 31 33 38 34 33 36
98 96 92 88 84 82 75 61 79 71 74 100 74 58 64 61 59 54 54 56 62 58 50 91 100 98 58 85 63 71 50 49 49 48 38 34 32 34 35 33 36 40 38 43
98 98 90 85 83 87 75 78 81 83 71 92 84 67 64 59 55 55 54 53 52 56 83 100 92 72 78 82 74 69 46 44 60 59 29 39 35 32 38 42 41 43 49 50
94 92 89 87 85 81 53 90 78 77 69 77 97 70 71 66 60 60 63 58 59 55 62 91 63 66 68 99 71 41 43 42 42 43 42 44 44 43 52 55 58 54 52 49
96 95 93 86 87 65 51 60 78 88 77 84 97 85 70 74 68 76 71 73 73 63 75 92 79 75 59 97 76 60 57 55 56 55 57 52 57 57 49 46 45 52 50 54
91 92 92 92 93 87 86 77 88 90 58 68 94 94 94 73 94 97 82 94 77 84 87 92 94 85 85 86 69 61 57 57 60 55 55 61 48 45 49 49 53 68 85 92
92 93 94 82 90 89 80 94 92 70 63 78 98 100 98 76 95 91 92 81 100 80 100 95 84 99 96 77 68 64 68 71 67 53 49 51 60 61 68 76 87 94 97 96
88 81 80 95 97 92 84 67 74 83 85 85 100 86 99 77 100 100 98 99 100 100 98 93 100 97 64 69 73 68 65 60 61 69 70 70 70 76 90 96 96 96 95 86
87 96 98 89 86 69 78 86 86 78 99 91 94 97 97 86 96 100 99 100 99 100 91 95 99 98 71 76 77 75 73 67 63 63 67 74 92 94 94 96 89 82 80 82
87 89 84 76 74 81 97 99 98 93 95 99 99 99 94 99 84 96 96 100 100 98 86 100 98 81 81 86 89 88 83 83 80 76 83 79 71 69 80 85 86 95 88 99
78 78 97 81 98 100 100 100 100 100 100 100 100 100 100 96 86 100 100 100 100 85 99 92 86 76 95 91 87 80 68 65 62 62 59 51 53 70 93 85 100 100 79 71
92 100 100 100 100 100 100 100 100 100 100 100 100 100 100 100 100 100 100 100 100 99 99 99 95 99 99 96 76 70 66 89 61 55 67 92 92 99 100 100 100 100 100 87
89 94 100 100 100 100 100 100 100 100 98 100 100 100 92 100 100 100 100 100 98 90 89 99 99 97 90 68 63 60 78 94 72 65 83 100 97 100 94 100 100 100 100 100
99 100 100 100 100 100 100 100 100 99 100 100 100 100 100 99 100 100 100 98 90 96 100 99 94 87 71 58 61 70 71 66 72 72 78 92 99 100 95 95 93 94 93 91
100 100 100 100 100 100 100 100 100 98 100 100 100 100 100 99 99 99 93 100 100 100 100 98 95 85 76 75 76 90 74 71 74 80 85 91 95 90 87 78 62 68 74 81

GFSNW_sfc_rhum_009.txt.gz
RH
80 85 91 95 94 90 86 64 57 67 64 50 49 47 28 28 22 24 20 21 16 19 18 20 18 17 16 20 19 19 16 23 42 24 20 19 20 20 21 35 30 34 43 23
81 85 90 96 93 88 62 61 56 77 64 63 73 34 22 20 23 23 23 20 17 16 20 23 19 18 36 32 26 21 25 26 40 30 25 20 20 18 18 18 35 30 55 24
72 85 89 96 93 86 58 44 61 74 73 40 38 34 26 27 25 21 20 17 19 24 25 23 27 27 35 34 27 62 41 24 29 38 25 20 28 18 18 20 35 32 27 16
72 84 91 96 93 85 64 43 43 42 77 50 36 30 25 23 27 24 24 27 22 23 29 29 31 30 37 36 60 33 32 36 26 24 24 20 18 18 18 18 19 29 20 10
78 85 90 96 92 85 72 46 37 36 44 41 35 38 25 22 21 26 28 25 21 21 26 28 27 31 33 34 37 36 34 41 39 46 26 25 25 18 15 16 17 14 13 14
83 89 92 95 91 81 62 46 51 36 59 44 36 34 24 21 24 36 23 21 26 27 32 35 33 32 29 28 38 42 42 56 50 38 38 37 64 40 22 17 15 16 24 17
84 91 92 94 91 76 44 49 36 58 61 43 34 24 22 20 23 33 30 26 28 42 31 31 31 31 31 31 37 35 61 51 53 53 68 82 19 18 16 20 16 14 14 14
88 92 94 94 91 87 52 58 42 44 99 35 28 25 21 21 32 36 38 44 36 34 34 46 55 62 70 48 32 32 34 49 61 90 41 25 16 15 19 22 18 16 18 14
91 93 91 94 91 85 86 79 50 36 56 44 22 24 22 42 43 55 59 45 39 42 52 62 52 52 39 49 47 35 36 50 50 55 84 88 33 23 27 24 24 20 19 22
94 94 95 92 90 88 90 54 68 29 32 25 26 28 29 24 34 44 56 57 56 45 74 99 61 51 35 44 55 88 68 75 79 62 81 46 21 23 26 35 37 26 27 23
89 94 92 91 91 92 90 54 58 32 29 37 29 22 29 27 31 61 52 53 57 64 78 87 59 80 52 45 35 51 53 66 85 69 95 79 21 28 41 39 29 26 28 27
95 93 92 92 93 95 92 61 52 43 31 55 48 50 48 31 27 32 51 34 46 47 54 74 80 96 96 58 62 38 50 42 51 40 42 30 24 24 23 28 32 30 31 28
94 94 93 93 95 94 90 56 54 42 60 54 50 51 49 44 50 53 40 44 37 44 49 75 87 100 74 96 60 47 37 34 46 44 23 23 23 22 23 25 29 28 28 31
96 96 95 95 93 93 90 53 54 38 59 97 67 47 54 50 47 47 48 44 51 49 45 84 97 96 47 77 54 54 39 37 35 37 27 22 23 24 28 29 31 33 33 36
95 95 95 93 92 85 69 56 58 59 44 90 76 55 54 46 47 46 46 50 49 50 76 96 87 62 68 73 64 56 34 29 53 52 31 39 32 33 38 41 44 46 47 45
96 94 93 91 86 73 52 75 58 57 73 74 86 59 60 50 44 44 44 44 43 40 59 86 51 51 56 94 60 36 37 40 43 42 41 43 41 41 42 44 42 41 42 40
97 92 89 86 81 55 63 49 73 82 58 80 88 82 63 58 52 58 55 54 54 42 57 83 68 59 50 95 62 48 47 46 49 47 50 49 46 48 43 47 51 62 62 64
89 87 85 84 87 94 70 87 90 90 59 64 88 93 89 60 86 88 61 78 59 66 69 78 82 69 77 75 56 50 49 48 52 46 46 46 44 45 52 58 68 86 91 87
89 89 91 66 74 75 73 95 87 78 77 74 92 98 97 62 78 81 83 65 97 68 97 87 73 93 88 65 60 56 58 59 56 48 46 48 56 61 69 74 80 85 81 69
89 53 60 82 86 92 85 82 83 77 73 69 100 74 98 65 98 100 91 94 98 97 92 69 98 85 58 59 58 56 54 49 52 66 65 63 68 73 78 81 80 70 65 62
69 88 98 82 82 67 74 82 77 66 90 82 86 91 92 77 92 99 97 99 97 100 88 90 97 94 68 62 63 65 60 55 55 56 60 64 69 75 82 73 72 84 81 77
82 83 73 67 66 83 96 100 95 88 92 98 96 95 84 94 70 87 93 99 97 97 74 98 88 84 76 82 84 74 64 60 62 61 63 62 62 64 75 70 70 87 88 99
62 72 95 71 96 100 100 100 99 98 100 99 99 100 98 88 80 99 92 100 99 76 98 82 81 80 88 88 74 64 55 53 52 49 45 47 57 78 91 85 100 99 79 74
90 100 100 100 100 100 100 100 100 100 100 100 100 100 100 100 100 100 100 100 96 100 100 96 90 96 97 87 66 56 58 78 55 55 67 86 96 100 100 100 100 100 98 88
94 92 100 100 100 100 100 100 100 100 98 100 98 98 85 100 100 100 100 100 100 95 97 98 98 97 95 76 63 63 64 92 69 68 85 100 98 100 94 94 92 92 92 92
96 99 100 100 100 100 100 100 100 98 100 98 93 100 100 100 100 100 100 99 92 100 100 99 97 98 95 64 63 68 63 59 69 70 80 94 97 95 89 81 82 94 89 85
100 100 100 100 100 100 100 100 100 97 100 100 100 100 100 100 100 100 100 100 100 100 99 98 97 94 78 62 72 82 73 71 73 79 84 87 88 82 71 62 53 56 63 76

GFSNW_sfc_rhum_012.txt.gz
RH
85 83 82 86 95 94 95 66 67 64 70 69 45 64 41 34 20 16 19 17 14 16 17 17 17 26 21 16 15 20 16 23 54 24 16 14 18 23 19 62 43 57 69 36
84 84 81 83 94 93 93 62 69 76 65 57 70 48 39 27 24 21 23 19 18 15 19 22 18 15 31 28 20 22 20 29 51 32 24 20 22 16 18 21 50 56 77 41
84 83 80 82 94 92 91 56 86 99 91 42 46 51 39 33 24 19 19 18 17 17 19 18 21 20 33 32 26 58 42 26 30 49 28 23 30 19 15 20 66 57 44 20
82 85 80 81 94 93 97 75 59 62 93 67 50 44 36 30 25 22 19 20 17 23 28 24 24 22 37 34 53 33 31 37 27 21 19 23 23 19 18 17 22 36 29 17
83 83 79 83 92 94 98 77 50 51 58 53 55 53 41 28 21 24 26 26 20 21 27 24 27 24 36 36 37 34 34 48 49 52 27 24 28 22 19 17 16 17 16 17
83 76 76 87 92 95 90 54 57 50 64 55 56 54 36 28 24 24 20 22 23 25 29 30 34 37 34 28 39 44 46 72 70 65 39 45 61 46 27 23 16 17 27 20
79 75 76 85 90 93 58 52 62 82 66 50 48 42 30 25 23 32 24 23 28 37 29 32 32 31 32 34 38 33 70 69 75 80 77 78 25 16 16 20 17 15 14 14
79 80 83 91 95 93 79 61 89 85 95 49 39 41 32 24 24 30 28 40 36 34 37 55 60 79 74 50 28 34 39 68 81 98 61 34 23 16 18 21 22 19 20 19
81 84 88 92 96 94 83 79 94 93 72 58 30 31 28 37 47 52 56 39 39 39 63 81 62 66 44 51 45 29 35 64 80 73 89 85 40 23 22 21 37 21 21 25
81 86 92 94 90 94 87 86 92 98 74 39 32 33 35 28 48 55 53 56 56 48 92 100 80 70 31 58 68 91 81 86 90 77 95 69 22 22 21 49 53 31 30 29
90 90 91 92 87 89 93 87 89 95 68 38 31 25 29 30 43 70 56 57 56 78 86 92 78 91 64 56 36 60 69 84 95 88 100 90 21 25 50 49 41 33 32 34
89 91 91 90 87 92 93 96 84 86 87 58 57 51 44 36 25 46 58 45 51 58 63 79 88 99 95 75 76 32 60 53 70 58 66 39 25 30 27 30 37 35 36 31
91 93 91 90 91 94 93 94 89 74 70 62 47 48 48 45 50 53 50 48 40 48 52 84 94 99 90 98 80 56 36 33 59 56 24 23 25 22 24 24 31 29 31 35
92 93 92 92 93 93 94 95 94 76 64 99 74 46 49 46 44 46 49 48 56 58 58 93 100 100 54 93 66 77 45 36 37 39 31 26 21 32 33 34 36 40 43 44
95 91 92 92 92 92 95 94 86 63 44 85 78 56 49 44 46 45 45 51 57 61 84 100 96 75 83 86 76 76 36 37 69 77 42 46 41 43 45 47 46 42 43 42
96 95 93 92 94 96 93 96 59 66 48 79 92 61 55 46 47 46 48 52 53 52 75 93 63 50 70 98 80 32 41 41 43 45 46 47 47 44 44 48 48 48 50 53
92 92 95 95 94 82 92 75 84 88 62 81 96 89 62 46 49 51 52 49 49 50 66 90 77 65 61 99 82 46 45 44 48 46 50 55 47 52 51 60 62 68 66 69
95 95 95 94 94 97 90 74 82 87 64 87 92 100 90 58 88 88 60 73 66 70 73 80 90 76 92 90 52 47 48 47 50 47 46 48 48 53 63 66 68 72 72 70
93 90 90 84 76 85 79 93 91 77 75 98 98 97 100 62 81 85 83 65 98 70 100 89 77 93 91 61 55 54 55 56 53 47 48 52 61 65 68 68 66 68 67 63
88 73 65 91 98 95 91 66 74 82 93 90 100 88 99 74 99 99 95 97 98 97 95 70 97 87 56 55 54 53 52 51 52 63 67 66 68 72 72 69 70 80 81 74
63 83 96 91 92 64 73 93 92 93 100 83 85 93 97 80 97 100 99 100 100 100 90 92 91 89 66 57 63 57 53 52 55 58 63 65 70 72 78 84 78 79 78 86
78 79 80 84 82 86 96 100 99 97 97 98 98 95 84 95 74 95 96 100 100 98 82 99 88 83 67 73 74 64 58 58 60 60 65 66 70 67 75 79 88 96 97 98
63 78 98 87 98 100 100 100 100 99 100 100 98 100 99 93 78 98 93 100 100 81 99 84 87 78 79 79 70 62 58 58 58 53 54 61 79 89 91 97 96 97 88 92
93 100 100 100 100 100 100 100 100 100 100 100 100 100 100 100 100 100 100 100 91 100 100 92 92 86 92 77 68 64 60 73 67 66 82 96 98 97 96 96 94 91 88 81
93 93 100 100 100 100 100 100 100 100 98 100 100 100 94 100 100 100 100 100 100 88 97 98 96 97 87 76 69 67 73 95 81 82 96 98 94 93 92 89 86 89 93 92
99 99 100 100 100 100 100 100 100 98 100 100 100 100 100 100 100 100 100 98 96 100 100 99 98 98 96 91 79 74 72 80 82 88 91 92 90 92 83 82 88 91 89 90
100 100 100 100 100 100 100 100 100 98 100 100 100 100 100 99 100 99 100 100 100 100 100 99 98 98 89 80 84 86 84 81 84 87 86 87 87 87 79 65 56 61 74 84

GFSNW_sfc_rhum_015.txt.gz
RH
75 81 80 78 86 92 96 97 94 75 80 97 85 88 66 56 40 36 36 33 27 26 27 27 27 30 38 32 25 35 48 60 82 49 26 22 23 31 39 68 44 78 81 56
76 84 82 78 84 91 93 97 84 82 63 78 92 61 56 53 47 43 32 36 33 36 32 45 28 41 41 40 32 34 41 42 68 46 39 34 30 25 24 45 68 59 73 55
81 87 86 87 80 90 93 95 90 97 96 62 60 59 55 61 46 43 33 30 33 34 32 32 33 55 47 43 45 64 48 41 48 62 45 39 43 31 27 36 73 66 66 41
88 84 85 88 81 88 94 97 74 73 97 92 74 52 50 56 56 40 32 33 33 35 36 38 36 53 52 48 58 46 44 49 45 40 39 31 35 33 32 26 39 50 41 37
83 78 83 86 84 87 98 96 67 91 83 72 80 58 56 51 43 40 36 40 32 31 36 39 38 44 52 50 54 48 46 68 63 65 42 43 44 37 34 34 32 31 28 30
78 82 86 88 84 89 97 86 80 66 82 77 76 57 55 46 42 38 26 36 39 40 43 44 51 53 56 50 57 57 59 76 77 74 55 50 59 44 38 36 33 36 37 28
79 80 86 88 85 86 95 73 84 92 87 73 60 49 50 45 44 48 31 35 44 50 47 51 51 52 64 69 76 57 72 74 84 83 76 60 41 29 24 32 30 29 30 33
83 81 84 87 83 86 84 83 93 93 100 66 52 54 50 47 42 41 50 55 45 50 57 80 71 84 58 67 50 66 72 83 88 77 84 54 35 31 38 35 38 33 36 34
83 81 86 83 81 89 88 82 94 99 98 74 43 49 47 67 60 79 72 65 63 53 95 84 74 85 59 68 50 54 52 75 78 87 84 71 56 36 31 30 58 43 39 42
85 83 84 79 84 91 93 88 91 98 97 74 48 50 56 55 74 88 85 83 69 72 100 99 82 80 52 79 77 79 90 86 85 96 92 78 47 31 33 50 59 45 40 47
86 83 83 88 90 96 97 93 92 99 99 88 67 43 55 56 76 87 76 88 78 95 90 92 91 96 77 75 68 74 79 93 98 98 99 86 36 35 43 63 52 45 44 48
81 86 88 89 86 93 92 96 88 90 99 95 80 66 51 47 54 73 78 73 72 85 90 97 98 98 97 82 82 56 80 77 86 76 84 62 38 38 45 41 42 44 46 53
85 89 88 90 91 92 90 92 93 97 99 94 92 76 71 60 65 61 74 76 63 72 85 97 100 94 95 95 92 73 55 48 78 58 43 40 34 34 38 48 54 59 59 59
90 90 89 88 91 90 89 95 94 99 99 100 88 58 67 59 61 64 66 69 77 82 94 99 100 100 84 95 77 85 69 49 54 58 46 56 61 61 61 57 58 51 53 58
91 90 90 91 90 91 95 96 96 98 99 100 95 70 61 56 61 64 66 73 78 93 91 100 96 96 90 97 90 86 57 58 75 84 61 69 71 61 56 57 58 56 65 69
92 92 92 92 95 97 98 100 94 92 97 99 99 84 68 60 62 65 71 72 82 88 96 99 90 73 86 96 94 62 60 63 63 70 64 62 64 69 68 73 74 72 74 74
92 92 94 95 97 97 99 98 98 97 99 96 98 97 82 69 72 88 79 70 88 90 94 98 91 84 93 99 91 63 62 60 63 62 61 69 66 80 72 75 76 79 80 82
96 94 96 96 98 98 96 95 96 97 94 92 99 100 96 76 97 98 93 96 95 94 96 96 97 95 98 93 70 62 60 58 60 59 61 69 73 76 76 73 76 82 84 79
96 96 98 98 99 99 96 89 93 93 89 98 100 100 100 84 98 99 95 96 100 96 100 98 91 99 98 77 70 69 67 70 64 62 66 71 78 75 72 76 78 77 86 82
96 93 98 100 98 93 88 86 89 92 96 97 100 98 100 88 100 100 99 100 100 100 99 91 100 98 74 71 71 70 70 60 64 82 86 81 78 75 78 86 82 79 76 79
97 98 100 98 92 87 93 94 95 95 100 98 99 99 100 93 99 99 100 100 99 99 95 96 99 100 79 75 74 72 70 69 69 68 71 72 73 87 86 83 85 92 97 98
89 88 94 92 92 96 98 100 99 97 98 99 100 100 96 99 95 99 99 99 98 100 95 99 95 94 88 82 76 72 70 72 73 72 76 77 77 77 86 95 98 98 95 95
85 87 95 88 99 100 97 99 99 99 100 100 100 100 100 98 96 100 100 100 99 97 100 97 98 89 85 79 73 71 69 72 68 75 81 85 90 94 97 98 97 94 92 89
98 99 98 100 99 98 99 99 100 100 100 100 100 100 100 100 100 100 97 100 97 100 99 96 99 95 92 86 74 72 70 78 85 90 96 98 97 98 97 96 93 93 95 93
98 94 99 99 100 100 100 100 100 100 100 100 100 100 99 100 100 100 99 99 94 94 98 100 98 95 87 78 73 80 84 90 94 96 96 98 97 97 95 94 95 92 93 94
98 98 98 100 100 99 99 100 100 99 100 100 100 100 99 99 100 98 99 97 99 100 100 100 98 96 94 84 83 86 87 92 96 94 95 94 94 92 93 94 91 91 90 93
99 99 100 100 99 100 100 100 100 99 100 100 100 98 99 99 99 99 99 99 100 100 100 99 99 98 95 91 92 93 93 96 95 93 92 92 91 90 90 78 83 81 80 89

GFSNW_sfc_rhum_018.txt.gz
RH
80 79 74 76 81 81 88 93 96 87 80 94 84 85 64 60 50 47 52 46 46 32 34 34 37 33 30 37 43 41 50 59 80 47 35 24 37 34 37 65 43 82 83 54
79 82 76 78 77 80 90 94 89 89 73 92 91 72 64 56 50 50 52 45 39 35 38 40 39 40 42 40 37 41 49 55 70 52 39 40 34 29 37 51 68 62 74 56
84 76 75 76 79 81 91 94 93 97 93 66 61 73 74 70 48 54 52 51 48 41 42 44 45 53 48 53 41 71 50 46 46 60 46 44 48 39 35 46 74 64 68 42
80 76 75 77 77 86 93 94 76 75 94 89 63 61 64 68 59 52 48 48 50 47 45 53 47 54 57 53 60 48 48 48 46 42 46 42 41 40 40 36 41 52 42 42
78 77 77 77 79 87 97 90 87 83 90 69 81 66 61 56 47 48 47 53 48 42 37 40 47 53 56 51 56 46 53 54 69 62 51 47 47 40 41 39 38 40 36 35
76 78 81 76 86 89 97 88 84 84 77 78 83 78 56 50 44 47 40 46 47 48 38 43 49 50 53 53 53 60 61 75 75 67 62 54 68 46 39 38 37 38 46 37
73 75 78 82 88 95 92 89 88 91 87 81 77 66 53 49 47 46 44 39 48 49 48 50 51 58 66 69 77 61 71 75 83 83 72 72 49 36 34 38 38 39 37 38
76 78 83 83 83 89 98 91 94 98 96 79 74 65 58 47 46 53 42 51 43 51 59 73 66 83 66 71 60 69 71 83 90 75 79 58 41 32 31 39 48 42 41 39
83 83 82 84 84 86 95 95 98 99 99 81 60 66 51 61 62 59 70 70 69 68 92 81 73 70 61 71 56 56 69 84 85 94 78 70 55 41 34 36 64 44 46 49
81 81 82 84 84 84 93 93 95 97 99 85 58 61 56 46 76 64 86 78 76 75 98 91 83 82 57 75 72 76 88 91 82 97 84 71 49 39 35 41 49 47 52 52
81 81 80 83 86 84 91 92 92 97 98 93 82 50 52 55 69 84 83 86 88 96 91 90 92 87 82 82 72 74 71 88 96 97 93 68 50 38 42 51 60 50 50 52
85 83 84 87 84 84 84 98 93 90 98 95 90 88 75 44 61 83 88 73 78 86 89 97 96 93 94 80 89 69 65 71 81 74 77 59 44 46 54 51 49 51 63 65
84 85 86 86 83 84 86 96 97 97 97 92 98 91 69 63 61 54 82 85 72 86 77 97 99 77 94 89 88 74 64 64 80 68 53 60 51 63 61 66 70 67 66 68
87 85 88 86 86 90 84 97 97 98 99 100 92 78 76 67 58 67 68 65 82 85 90 99 99 92 81 92 73 82 68 55 61 63 77 69 73 72 65 62 65 66 63 58
87 87 87 85 90 89 93 98 97 96 99 100 98 84 73 75 70 73 75 74 76 82 86 98 92 96 91 97 88 88 61 60 74 75 58 72 76 70 66 66 71 69 73 78
90 90 90 90 91 91 96 98 90 92 94 100 99 94 85 79 76 74 75 87 91 91 93 100 93 83 84 89 92 66 69 70 63 76 71 75 80 76 72 80 80 78 80 81
92 92 90 89 90 95 94 92 96 89 92 99 99 99 92 88 86 94 90 92 97 95 97 99 91 88 90 97 90 72 73 72 68 68 69 79 79 90 82 82 82 81 82 85
93 93 93 93 92 97 92 97 99 96 95 98 99 100 99 87 99 99 98 98 97 98 98 99 98 98 98 88 78 73 68 71 75 77 74 79 79 79 83 80 78 82 87 89
94 95 96 98 99 100 96 99 100 98 98 99 100 100 100 93 100 100 97 98 100 96 99 100 91 100 97 84 77 72 68 73 84 80 79 79 82 82 82 83 87 90 87 81
94 95 99 100 98 98 92 96 99 94 96 98 100 99 100 94 100 100 100 100 100 96 99 96 99 99 83 82 80 78 74 75 77 91 93 86 83 78 81 83 78 77 81 90
98 100 100 100 98 98 100 98 95 95 99 99 100 99 99 96 98 100 100 100 99 94 94 90 99 99 90 86 86 78 73 73 75 73 75 76 84 86 87 85 89 94 94 96
96 97 99 99 98 97 96 100 98 96 100 99 100 100 99 99 94 99 100 100 98 98 97 94 97 98 92 89 88 87 82 78 77 75 84 83 78 78 88 96 96 96 95 95
95 94 95 89 98 95 99 98 99 99 100 100 100 100 100 98 96 100 100 98 98 96 96 95 98 92 87 85 83 81 77 79 80 82 83 86 91 93 94 97 97 94 91 89
97 95 98 99 96 99 99 99 100 100 100 100 100 100 100 100 100 100 100 100 97 99 99 96 99 94 91 81 78 81 87 92 93 92 95 98 97 98 96 95 93 93 94 82
98 94 99 99 99 99 100 100 100 100 100 100 100 100 98 100 100 100 99 99 99 98 98 99 99 97 85 81 80 87 90 94 95 94 97 98 96 96 95 96 94 92 89 89
96 98 98 99 99 99 99 100 100 99 100 100 99 99 98 99 99 98 99 97 99 99 100 100 98 90 85 84 86 87 88 92 95 94 94 95 96 94 91 88 91 93 89 91
97 99 100 100 99 99 100 100 99 99 100 100 98 96 100 99 98 99 99 99 99 100 100 100 97 98 98 98 98 98 98 95 95 94 93 91 91 92 86 78 75 77 85 91

GFSNW_sfc_rhum_021.txt.gz
RH
82 87 78 74 78 79 88 94 97 94 82 99 88 85 64 56 44 52 59 61 58 46 38 37 37 35 28 32 43 38 46 51 66 37 39 38 38 40 41 67 47 83 83 56
88 90 82 76 74 77 90 92 92 94 79 96 93 73 66 56 48 53 57 60 53 47 41 40 41 40 37 48 40 47 50 56 71 51 42 44 45 38 44 55 70 66 76 52
84 86 85 76 73 78 93 93 97 98 93 70 70 76 74 74 56 57 57 61 60 57 44 44 48 49 54 50 50 67 49 52 48 52 48 48 53 42 42 48 77 64 68 41
79 80 78 76 74 75 95 97 76 74 95 89 77 64 66 71 68 57 51 59 64 66 59 54 51 60 56 55 61 61 47 48 44 43 39 44 41 41 42 42 44 53 43 50
76 78 79 81 76 76 98 93 91 79 86 72 76 76 68 64 61 62 59 50 51 47 64 48 49 56 58 52 55 54 54 57 57 68 54 50 48 41 42 43 42 43 44 40
78 77 78 78 78 78 98 88 84 82 74 77 78 73 66 60 58 58 49 48 54 66 53 45 43 58 54 48 54 60 58 72 71 60 67 61 67 52 43 40 39 39 48 38
83 83 83 83 77 76 95 87 89 96 80 80 74 63 59 59 55 57 48 42 59 54 60 58 53 59 70 73 80 61 71 72 80 78 74 76 46 46 40 42 44 42 43 48
79 81 80 74 78 76 92 88 93 98 99 67 72 65 65 56 52 56 46 46 32 56 61 73 74 81 72 71 67 77 69 82 87 77 81 60 46 38 43 43 46 47 51 56
80 79 76 77 79 75 88 94 88 98 100 83 61 69 61 71 65 62 62 40 71 71 89 88 76 79 72 78 66 63 69 81 82 91 75 74 58 45 38 41 63 46 51 56
77 76 78 80 80 77 88 97 95 97 96 90 66 75 69 58 64 64 72 80 81 77 98 93 84 78 62 74 76 75 89 92 88 97 85 70 48 42 33 50 52 52 53 56
76 76 77 80 82 81 90 94 95 95 96 92 89 78 71 64 59 70 76 82 89 96 86 91 89 89 81 78 68 70 78 91 96 94 83 64 48 44 41 50 64 57 57 57
78 81 81 81 83 85 87 96 94 93 99 96 84 79 76 88 46 58 94 68 83 84 92 97 97 95 95 84 88 73 64 72 81 73 72 56 53 45 48 58 55 55 59 72
82 83 84 85 85 85 85 94 94 96 97 93 91 90 79 79 85 50 82 87 84 89 87 96 98 85 93 87 88 80 70 70 75 69 62 62 62 71 62 60 64 71 74 73
83 83 82 84 85 84 82 94 96 92 92 100 91 84 91 75 76 66 66 67 91 93 95 98 98 91 81 89 75 82 74 68 72 77 86 78 77 79 73 72 71 67 61 59
86 84 84 85 84 82 86 90 94 98 92 100 98 85 87 88 86 65 72 79 85 95 94 99 91 96 91 98 89 90 68 66 78 81 70 66 80 76 72 72 74 70 71 76
85 84 86 83 81 90 96 98 91 96 97 100 100 93 93 92 90 69 81 76 93 90 90 100 95 86 83 90 92 64 67 65 58 58 77 81 82 81 77 80 81 79 80 80
82 83 85 87 90 92 94 94 95 85 92 98 99 97 95 96 94 98 98 95 98 95 97 98 93 93 79 95 86 65 81 80 81 77 76 87 86 94 85 84 86 86 88 89
92 91 91 88 85 85 91 98 96 87 92 95 100 99 100 93 100 100 99 99 98 98 99 99 98 99 98 80 78 83 79 78 83 86 80 83 86 84 85 81 81 88 93 90
89 88 87 93 96 95 98 99 98 99 96 100 100 100 100 96 99 100 100 98 100 97 100 100 94 100 93 88 86 83 79 80 92 85 84 84 89 88 84 86 89 89 86 81
90 90 97 100 97 94 94 93 98 100 99 98 100 99 100 96 100 100 100 100 100 99 100 97 98 98 87 92 85 84 87 83 82 94 96 93 92 90 89 89 78 75 81 88
97 99 100 98 91 95 97 100 100 99 100 100 99 100 100 98 98 100 100 100 99 93 98 97 99 99 93 94 93 86 83 81 83 77 79 79 82 88 88 88 88 90 91 92
93 98 97 97 95 99 100 100 99 99 99 99 100 100 99 100 97 99 99 99 97 95 95 95 98 97 98 96 95 92 86 83 83 80 86 86 84 81 86 90 94 95 94 94
97 95 96 96 100 99 99 99 100 100 100 100 100 100 100 98 94 100 99 97 100 96 98 98 98 96 95 94 90 88 83 84 85 85 82 84 87 87 90 95 96 94 90 88
97 100 99 99 99 99 99 99 99 99 100 100 100 100 100 100 99 100 99 100 98 98 98 98 100 96 92 88 86 87 91 92 92 92 92 94 97 98 96 96 93 88 90 86
98 97 99 99 100 100 100 100 100 99 99 100 100 100 97 100 99 99 100 99 99 99 99 100 100 93 88 90 92 94 95 96 97 96 97 98 96 96 96 95 88 86 89 89
97 98 98 99 98 98 99 99 100 99 100 100 98 99 99 99 99 99 99 97 99 99 99 100 95 93 92 94 96 98 98 98 97 97 95 94 94 93 94 91 88 89 87 89
94 99 100 99 99 100 100 99 100 99 100 100 98 98 99 97 96 97 99 98 99 99 100 99 99 98 99 98 98 98 98 96 95 93 91 91 86 84 85 88 81 77 86 92

GFSNW_sfc_rhum_024.txt.gz
RH
80 77 76 80 88 78 84 93 95 91 85 98 85 78 69 59 53 51 58 63 67 63 44 44 41 38 31 32 40 37 47 50 61 40 42 41 39 41 46 67 51 82 83 57
81 79 77 76 84 79 85 96 89 94 78 92 91 67 64 62 52 52 59 65 62 57 50 44 43 41 37 45 37 44 50 52 64 44 39 47 47 44 47 57 70 72 76 57
84 81 77 76 84 80 84 97 95 96 93 59 68 71 70 73 60 56 57 65 66 64 57 50 44 43 53 54 40 65 47 55 44 43 38 46 55 44 50 50 75 66 71 46
85 82 79 78 84 77 88 98 86 79 93 87 74 62 62 72 68 56 56 66 69 64 72 55 59 63 62 56 70 57 45 47 50 42 41 47 44 42 50 47 50 54 47 49
86 82 80 89 84 76 90 98 93 84 92 70 74 74 68 70 63 68 68 65 58 64 74 56 55 64 61 54 58 57 57 54 57 68 57 53 51 46 48 48 48 48 47 44
86 84 86 85 80 77 96 95 90 94 74 77 78 71 66 63 59 59 56 55 55 70 53 45 47 49 60 60 58 62 58 72 68 59 69 61 67 56 48 49 47 44 52 41
86 84 90 85 82 76 94 89 89 96 88 79 73 62 62 62 60 65 54 55 65 53 57 57 58 62 75 73 78 63 70 68 76 80 74 71 47 50 45 45 43 44 46 47
87 86 80 83 78 71 89 93 90 97 96 75 71 66 66 61 57 62 59 54 45 51 63 73 75 83 75 77 76 77 67 79 82 75 78 57 49 45 47 47 42 46 48 61
87 85 83 80 83 75 79 91 97 98 99 84 62 69 64 70 65 71 66 50 54 67 81 88 86 87 77 80 70 69 70 78 76 85 76 73 58 44 40 40 55 48 59 66
87 84 81 80 77 75 79 89 88 97 98 91 72 75 70 59 64 72 70 63 81 69 96 92 87 80 68 80 77 83 90 92 84 97 84 76 54 43 39 50 52 53 57 65
84 80 80 80 75 76 83 84 87 99 96 86 86 83 72 65 62 77 77 79 90 97 88 94 89 94 83 80 73 78 81 92 92 92 85 80 47 48 48 52 66 60 60 62
83 83 82 80 79 80 77 93 83 92 99 95 87 81 76 80 59 58 76 68 88 84 91 96 96 94 95 81 83 74 70 74 81 73 75 59 54 50 45 55 60 60 60 68
81 80 79 81 82 81 79 91 86 94 97 88 91 88 78 68 74 75 73 90 83 85 83 94 96 89 93 89 86 82 73 67 71 68 61 63 58 66 65 59 60 63 69 69
78 79 80 81 81 80 77 93 93 96 94 100 93 83 93 90 81 85 78 72 92 92 93 97 96 91 84 89 77 84 75 70 77 72 84 81 73 79 71 77 74 71 66 64
81 81 80 81 80 80 89 92 95 93 95 99 97 78 75 88 95 92 80 69 92 96 96 97 91 97 93 98 88 91 75 70 80 76 67 59 59 78 76 76 76 73 71 77
83 84 82 82 82 86 94 98 94 94 92 96 99 90 92 90 96 97 80 74 92 93 90 97 96 91 87 94 91 61 65 68 60 53 76 88 89 85 80 81 81 77 78 75
84 84 85 85 85 93 96 95 94 90 92 97 99 99 89 97 94 99 98 95 99 94 97 98 96 96 80 95 80 55 70 74 84 81 77 86 86 90 86 86 88 87 88 87
86 87 86 86 85 87 94 97 96 88 93 94 100 96 96 93 100 100 99 99 97 98 99 99 99 98 96 85 76 91 86 83 87 90 84 82 90 90 94 89 87 93 96 95
86 86 88 90 90 95 96 97 88 97 92 98 100 100 98 96 100 99 99 98 99 98 100 100 98 100 90 76 89 90 87 82 94 89 87 86 91 92 90 90 91 94 94 92
88 90 93 100 97 94 95 98 98 100 99 100 100 99 100 96 100 100 100 100 100 100 100 97 99 97 92 92 88 87 86 84 83 96 97 94 95 93 91 88 84 85 89 90
94 99 100 98 93 94 97 100 100 99 99 99 98 99 100 97 98 100 100 100 100 99 99 98 99 98 91 92 94 85 83 80 82 78 80 82 83 89 89 87 87 88 88 90
93 93 94 96 96 99 99 99 99 100 96 100 100 100 99 100 97 98 99 99 98 96 95 99 99 97 99 98 98 95 90 88 86 82 87 87 86 84 86 88 89 91 92 91
98 94 96 95 100 99 99 99 100 99 100 100 100 100 100 98 95 99 100 98 99 98 99 97 97 98 97 95 93 94 89 88 88 88 85 87 89 89 91 96 95 90 88 88
98 98 98 99 99 99 99 99 99 99 99 100 100 100 100 100 99 100 99 100 98 98 99 97 99 98 98 93 91 91 94 94 94 94 94 95 96 98 98 96 90 90 91 84
99 99 98 99 100 100 100 100 100 99 100 100 100 100 98 100 99 99 100 98 99 99 99 99 99 96 95 96 95 95 96 96 96 96 96 97 97 96 95 93 91 91 90 90
98 98 98 99 98 98 99 99 99 99 100 99 98 99 99 99 99 94 98 98 98 99 99 99 99 98 98 98 98 98 98 98 97 97 95 95 96 95 90 86 89 89 89 92
98 99 98 99 99 99 99 99 98 98 100 99 99 98 98 98 96 96 97 98 99 99 99 99 99 99 99 98 98 98 97 96 96 96 95 95 93 83 79 78 74 75 86 92

GFSNW_sfc_rhum_027.txt.gz
RH
84 85 83 80 78 81 91 95 97 85 79 97 85 81 66 62 52 53 54 60 65 68 46 47 44 40 33 33 34 35 39 48 53 38 33 31 32 37 41 57 46 57 59 42
85 87 85 81 78 80 95 98 86 90 79 90 84 70 62 55 58 52 59 61 59 56 53 48 44 41 37 44 37 42 44 46 49 37 32 36 36 36 40 49 57 58 71 42
90 90 87 82 79 80 94 98 98 98 96 64 67 73 72 67 57 52 54 60 60 58 57 53 45 44 45 48 38 64 45 48 44 42 37 36 46 41 41 43 58 54 52 37
90 92 88 83 81 82 94 99 95 80 96 85 75 62 60 67 66 59 52 62 55 63 63 58 55 52 58 52 68 49 45 46 46 36 31 37 35 37 43 38 42 49 39 40
86 92 89 86 82 81 97 99 96 89 73 68 72 74 66 67 62 54 65 60 57 53 66 58 54 53 57 56 57 54 53 52 48 46 44 42 44 39 39 40 41 40 37 39
79 89 89 87 82 82 98 96 88 90 72 76 77 70 65 62 58 59 50 52 58 69 56 59 55 50 51 53 52 59 58 68 60 52 55 50 66 54 43 42 39 39 46 37
80 85 90 88 82 80 93 91 88 93 89 78 70 62 62 58 59 64 54 58 62 55 57 56 56 60 69 66 66 58 65 65 67 72 68 75 39 39 36 39 39 37 36 34
79 84 91 87 82 78 82 91 93 95 97 72 70 65 62 61 57 61 56 56 55 54 57 74 64 83 74 72 67 64 59 71 76 80 64 50 37 41 41 42 30 35 34 38
81 86 90 86 81 78 77 86 96 97 86 86 56 67 60 67 70 75 64 62 62 63 83 86 88 82 74 75 67 61 65 68 70 74 71 67 52 36 37 32 44 36 39 50
80 90 87 85 81 78 76 97 92 95 97 89 80 68 70 57 65 73 76 68 75 65 88 96 87 82 66 78 81 85 79 80 77 78 82 64 45 37 35 51 43 44 45 51
88 87 88 83 81 80 71 95 89 93 97 87 81 83 72 64 61 75 77 73 77 93 87 92 88 89 76 74 68 77 76 80 88 81 91 70 45 38 48 48 47 50 52 54
90 89 90 83 82 78 77 92 94 94 97 97 93 84 78 74 48 57 63 66 70 71 85 91 91 98 97 76 73 64 75 68 73 66 66 58 46 46 43 45 46 53 54 54
87 85 83 83 81 81 82 94 95 95 94 91 92 86 75 73 73 58 75 80 75 83 82 91 92 91 89 93 80 75 66 61 66 65 54 52 52 48 49 47 49 49 47 52
88 84 83 81 81 86 81 91 94 93 94 99 90 89 88 80 72 73 73 71 85 86 88 93 97 94 76 89 74 81 66 60 66 63 55 66 58 58 52 58 63 60 56 56
88 87 88 88 86 84 85 93 92 83 95 100 95 78 70 74 91 81 80 76 87 92 93 98 92 89 88 95 85 82 66 64 71 67 47 53 50 55 63 64 61 58 61 64
88 85 85 85 88 80 92 95 92 89 92 98 100 88 89 89 98 97 92 84 87 90 90 95 89 86 82 94 85 56 59 66 61 49 59 70 78 71 65 66 65 63 63 64
82 80 76 76 79 89 92 94 93 80 94 99 99 98 90 92 95 99 99 94 92 88 89 97 90 92 80 96 78 52 58 64 69 73 69 72 73 70 72 70 71 72 69 68
82 82 81 82 82 83 96 96 86 82 96 95 99 99 97 90 100 100 98 99 96 96 94 96 96 95 93 86 64 74 77 75 78 75 76 71 78 79 82 79 77 81 84 84
84 86 82 90 92 96 96 96 90 97 90 98 97 100 100 92 99 99 100 95 100 97 100 99 94 100 91 74 68 82 83 81 86 85 82 79 82 84 83 80 80 86 87 84
84 88 92 99 93 93 93 99 99 98 97 98 100 96 100 93 100 100 100 100 100 100 99 95 100 97 84 86 85 80 82 81 79 92 96 93 92 88 86 83 80 82 84 85
93 96 99 96 94 91 96 100 99 99 100 99 96 99 100 96 98 100 99 100 100 100 99 99 100 98 89 92 89 82 79 76 78 74 79 76 79 84 86 87 87 87 85 87
94 94 95 96 95 98 99 99 100 100 98 100 100 99 98 100 94 97 99 100 100 99 94 100 100 98 96 96 97 94 90 88 90 82 88 88 83 80 85 88 90 93 93 96
97 91 96 94 100 100 97 98 99 100 100 100 100 100 100 99 96 100 99 100 100 99 100 99 99 97 96 96 94 97 94 90 87 87 86 85 86 87 90 94 95 96 96 95
97 96 97 99 98 97 99 99 100 100 100 100 100 100 100 100 100 100 100 100 99 98 98 98 99 99 99 96 93 93 96 94 94 94 92 93 94 97 97 97 97 97 96 95
99 99 98 98 100 100 100 100 100 100 100 100 100 100 97 100 100 100 100 98 98 98 98 99 99 100 98 97 96 96 96 97 96 94 96 97 97 96 97 97 97 96 96 95
97 96 97 98 99 98 98 98 98 98 99 99 98 100 98 100 97 95 97 94 94 96 98 99 99 99 99 98 98 98 98 97 97 97 96 96 96 96 94 95 95 95 92 93
97 98 97 98 98 98 98 98 97 98 100 99 94 93 97 88 91 91 92 96 97 97 98 98 99 98 98 98 98 98 97 96 96 95 94 94 95 94 90 86 77 78 86 93

GFSNW_sfc_rhum_030.txt.gz
RH
84 84 84 84 82 82 87 87 98 74 66 95 84 93 51 37 28 34 40 39 35 38 30 30 26 26 23 21 18 25 20 25 31 22 24 23 19 21 25 36 34 39 45 27
88 86 84 85 83 85 89 94 97 84 65 87 89 52 50 39 35 34 45 42 40 43 41 38 30 26 28 29 23 22 25 30 35 26 26 27 26 24 23 29 35 33 56 27
87 90 85 86 87 87 84 98 98 99 92 47 56 46 48 48 39 34 36 40 41 47 48 42 39 33 36 37 22 55 34 23 27 32 22 18 30 24 24 26 38 31 31 20
83 82 88 88 90 88 84 98 90 78 97 72 48 44 44 52 45 37 35 42 40 46 53 44 45 37 47 38 54 28 29 28 25 19 16 16 18 17 20 24 24 28 23 20
81 82 94 93 91 88 94 98 80 71 65 59 49 51 42 50 38 32 43 46 43 40 48 38 54 44 42 42 40 33 32 31 30 31 20 22 23 18 17 19 18 18 22 22
81 82 86 93 91 89 96 93 52 59 55 63 57 55 45 41 42 35 29 31 40 44 46 42 49 52 46 42 44 42 40 39 40 36 35 34 51 34 22 21 19 22 27 23
81 82 86 94 91 86 74 62 61 81 66 59 56 47 43 42 39 42 34 35 48 47 39 44 46 42 50 49 44 39 49 46 48 48 70 83 24 25 20 22 19 20 22 20
81 82 82 90 90 85 60 60 67 69 86 52 48 53 45 39 39 40 36 46 38 44 48 52 52 61 69 57 50 48 43 46 55 78 50 30 28 29 29 31 26 19 22 19
81 82 83 91 87 85 68 62 61 66 65 59 47 59 54 53 50 50 43 42 50 59 67 66 68 67 41 51 57 49 49 51 58 62 56 75 30 20 22 24 32 18 20 22
82 80 84 92 88 83 67 72 72 65 66 56 52 66 70 44 41 49 51 58 62 57 79 97 78 58 36 43 69 82 67 64 74 59 66 39 26 24 24 40 35 23 21 23
80 80 84 90 88 82 70 77 75 67 69 70 74 65 61 46 42 58 50 60 65 79 83 77 72 86 65 46 39 60 59 66 79 58 81 73 29 29 34 29 33 28 31 28
81 85 91 88 89 86 72 84 72 65 68 90 74 86 76 66 35 39 58 45 48 54 62 66 62 97 96 51 68 52 63 49 52 45 42 33 31 26 26 29 27 33 32 30
84 87 86 88 91 85 74 87 68 63 68 60 73 83 61 55 56 44 50 46 43 52 43 67 76 94 83 95 60 48 50 47 53 50 30 34 34 26 30 28 29 27 28 33
84 89 86 89 87 77 78 75 62 54 60 80 62 83 84 54 55 57 50 42 46 53 57 68 80 89 54 74 54 62 42 50 42 44 35 42 38 32 28 31 34 34 30 36
90 90 88 92 84 75 83 70 66 50 59 83 73 57 62 73 67 64 57 59 57 69 77 88 79 64 70 73 66 64 42 42 57 54 31 34 25 28 32 35 39 35 36 40
94 93 90 92 84 78 84 96 69 61 65 94 100 83 83 83 74 66 63 58 60 65 63 79 56 61 67 90 63 31 40 37 35 34 37 36 48 42 36 37 36 37 39 38
91 90 92 88 82 80 80 71 64 71 66 78 99 97 76 92 89 88 74 62 62 61 68 75 64 71 62 91 70 30 34 39 44 51 52 49 48 41 48 43 42 50 40 41
89 91 89 81 75 71 72 82 83 68 75 92 100 99 98 87 100 100 98 91 84 75 69 75 72 75 81 82 46 37 44 49 53 54 56 58 50 50 51 49 50 52 52 52
82 84 84 80 74 82 92 91 77 76 86 97 99 100 98 94 98 97 98 98 100 96 98 85 72 86 80 62 58 46 51 57 52 62 60 60 59 57 58 57 55 55 61 60
84 75 84 99 85 88 87 94 92 85 91 84 94 78 96 82 100 100 99 100 100 100 97 88 98 75 65 69 68 65 65 63 64 72 76 75 71 68 67 64 62 63 66 69
77 93 92 78 93 94 91 99 99 96 96 86 76 80 88 86 88 97 97 100 100 100 94 95 98 85 72 75 83 74 69 64 62 60 60 60 63 68 70 71 73 73 72 74
84 84 77 93 78 75 95 99 94 96 87 98 99 96 82 99 88 89 97 99 99 100 97 99 98 98 91 91 91 79 75 71 71 65 67 68 66 67 73 80 88 90 92 96
83 72 87 88 100 100 100 99 98 100 100 99 100 100 96 97 94 99 93 100 100 98 100 99 99 98 95 95 91 92 86 84 85 87 81 87 90 90 93 94 95 94 95 97
90 100 100 100 99 98 99 100 100 100 100 100 100 100 100 100 100 100 100 100 100 100 97 96 93 98 99 99 99 96 96 96 93 92 91 95 96 97 97 97 98 97 98 98
99 94 97 98 100 98 100 100 100 99 100 100 100 100 98 100 100 100 100 100 96 90 91 93 95 100 99 98 98 97 97 97 97 96 96 97 97 96 97 98 97 96 97 96
94 90 93 94 96 96 96 98 98 99 100 100 100 100 100 98 92 95 94 82 88 92 94 96 97 98 98 98 98 98 98 97 97 97 96 96 96 95 94 94 95 96 96 96
95 96 97 97 96 96 97 98 97 98 100 99 88 89 97 72 80 86 82 91 93 95 94 93 97 97 97 97 97 97 97 95 95 94 93 94 95 94 89 88 89 85 86 91

GFSNW_sfc_rhum_033.txt.gz
RH
83 85 85 85 85 85 91 96 98 55 74 99 92 85 56 34 24 16 21 26 28 22 22 28 22 22 18 15 14 19 19 21 30 23 16 13 16 20 22 37 36 35 40 28
84 83 86 86 86 86 96 98 88 73 68 97 92 59 44 31 22 26 24 26 32 31 25 28 27 21 17 21 20 20 21 25 38 26 18 18 20 22 23 25 26 46 66 28
87 85 85 86 87 88 95 98 99 98 94 64 59 54 47 40 26 20 22 23 26 28 37 30 30 27 23 21 20 42 33 24 27 35 23 18 24 19 18 22 43 36 33 21
80 80 80 83 88 89 95 99 88 84 97 89 58 43 39 36 30 20 22 25 35 36 30 28 32 32 29 33 40 29 27 34 28 20 16 14 15 17 18 20 22 33 25 20
79 78 79 82 90 91 98 100 82 73 64 67 57 54 42 33 26 23 29 31 32 49 51 35 54 38 40 32 28 31 28 34 27 24 16 14 17 14 14 16 17 18 18 18
82 80 80 82 92 94 98 96 50 51 57 74 59 54 44 34 28 25 23 24 28 32 31 39 56 51 55 46 42 39 33 41 40 42 21 21 36 22 17 16 13 15 22 17
83 82 81 81 88 91 94 91 46 72 68 80 53 44 37 34 27 28 21 22 29 29 31 35 39 50 42 59 45 38 41 42 46 48 65 66 27 17 16 19 15 14 13 12
83 84 82 82 81 91 93 60 54 70 88 56 50 43 38 31 28 32 28 23 22 24 36 47 50 74 66 61 44 38 43 51 59 65 50 30 20 19 21 21 19 14 15 13
83 84 83 83 82 88 87 84 52 65 67 65 39 42 37 40 35 46 34 28 36 43 51 52 50 45 35 62 60 37 38 54 63 57 55 60 31 18 16 16 30 15 15 16
86 85 87 82 82 91 88 89 64 64 68 58 51 52 46 32 37 44 56 61 60 47 73 88 56 49 24 46 92 82 71 73 79 65 56 38 20 15 15 39 32 16 16 17
87 89 83 81 84 86 90 75 68 65 75 64 68 53 44 38 41 56 46 55 66 69 70 59 46 69 43 37 31 70 68 68 77 61 65 70 19 21 29 25 21 22 21 19
86 86 82 80 87 88 92 74 58 55 82 88 59 60 53 41 30 37 47 51 53 42 46 51 46 84 87 44 53 35 63 55 51 40 42 32 25 24 21 18 22 24 22 18
83 83 80 82 88 91 84 64 56 66 87 74 59 54 49 50 49 46 52 49 34 39 34 40 62 76 66 78 57 42 46 34 48 44 33 26 25 22 19 20 23 20 21 20
84 87 86 86 88 90 70 61 59 60 64 87 71 56 59 47 48 54 50 51 41 36 37 56 72 75 32 63 51 58 39 43 43 38 29 28 28 26 24 22 24 23 22 22
86 86 90 90 89 82 76 77 70 56 52 70 57 54 48 48 52 56 51 53 54 42 62 79 74 43 46 55 59 51 32 38 55 53 31 37 30 24 22 26 27 28 25 27
92 92 92 89 84 81 83 96 59 54 60 60 82 66 55 47 46 51 61 53 58 41 50 72 49 32 41 79 60 25 23 33 30 37 35 35 30 34 28 24 24 27 27 27
90 87 84 79 71 65 77 67 53 59 43 52 67 87 72 56 61 63 64 54 47 63 61 64 56 47 55 74 74 39 29 23 27 31 40 44 36 31 35 34 28 35 28 28
86 84 80 84 76 71 75 72 67 52 50 64 81 91 97 82 96 91 70 74 64 64 64 56 60 53 68 70 40 34 29 30 41 40 43 44 44 39 44 36 36 38 35 34
88 84 79 84 86 91 81 84 74 60 58 75 98 97 100 94 96 97 92 75 83 55 80 73 59 78 82 56 50 48 56 53 55 47 48 46 48 43 46 44 43 41 43 44
84 70 60 81 79 90 71 74 75 61 63 88 100 93 100 94 100 100 99 100 98 95 90 58 74 69 62 66 65 63 60 55 52 59 56 57 57 53 53 50 48 48 50 52
56 72 89 78 84 89 94 88 78 73 87 76 77 88 98 95 99 100 99 100 98 100 99 87 72 72 91 86 82 73 65 58 55 54 53 52 52 56 59 60 60 62 63 68
87 82 80 78 96 99 96 97 98 88 71 76 85 74 78 99 94 88 95 99 100 100 98 100 99 94 88 94 94 88 80 77 69 60 60 59 59 58 66 76 87 92 93 94
75 83 94 89 94 100 100 100 94 95 96 96 98 95 83 88 85 95 90 100 100 100 99 94 93 78 90 95 96 91 86 86 87 88 86 88 90 90 94 96 96 95 96 97
94 100 100 100 100 96 97 99 100 100 100 100 100 100 99 100 100 100 100 100 100 100 96 95 87 87 92 95 95 90 94 94 94 95 96 97 97 98 98 98 98 97 97 98
91 82 97 93 97 98 98 100 100 97 99 100 100 100 98 100 100 100 100 100 96 86 91 90 92 95 94 95 97 97 97 97 97 97 97 97 97 96 97 97 97 96 96 96
81 86 93 90 90 97 94 93 97 92 98 100 100 100 100 100 92 94 97 84 87 91 92 93 93 97 97 97 97 98 98 97 97 96 96 96 96 95 96 95 95 96 95 96
95 95 95 96 93 93 94 96 91 97 100 99 99 96 99 70 81 85 82 93 95 95 93 92 95 96 96 96 96 96 96 95 95 94 93 94 94 91 85 87 90 88 91 95

GFSNW_sfc_rhum_036.txt.gz
RH
83 84 84 84 86 87 92 97 99 65 66 98 94 91 53 44 30 24 23 20 21 20 20 27 30 26 21 16 17 21 19 28 36 24 16 15 16 21 22 41 38 40 63 37
84 84 83 83 86 89 97 98 97 76 70 94 96 72 63 39 37 31 28 25 22 19 32 61 51 38 23 20 20 22 22 27 43 32 23 19 21 18 22 27 34 45 75 41
85 85 88 84 84 90 97 99 99 96 93 56 65 76 65 52 34 32 25 22 20 22 33 44 62 66 28 29 20 50 42 28 31 45 29 26 27 19 18 29 50 47 47 34
82 82 82 87 86 92 97 99 98 87 97 92 59 55 45 51 42 32 30 27 26 25 36 50 64 64 58 39 40 26 37 37 29 25 19 19 20 20 18 20 36 44 40 36
83 80 80 88 92 91 98 100 98 74 54 72 68 62 55 43 36 33 34 34 24 23 30 42 58 69 66 49 38 32 35 39 36 39 25 19 23 18 17 17 17 18 19 21
82 83 79 83 87 95 98 99 83 64 65 74 78 70 56 48 37 33 25 27 28 30 24 32 53 71 78 73 60 53 40 44 43 49 31 29 39 26 18 17 16 18 25 21
81 80 81 80 82 86 98 97 89 94 76 70 62 54 50 46 39 40 28 26 28 24 47 53 65 79 77 77 56 56 56 44 44 60 68 60 27 16 14 17 16 16 15 13
83 82 82 81 80 80 94 96 86 88 92 59 52 51 48 44 41 43 33 26 19 23 68 82 88 92 78 77 74 59 50 59 65 67 57 35 22 21 22 25 23 16 18 15
86 85 83 83 82 80 87 96 92 89 82 65 42 47 45 54 50 48 41 29 28 32 36 77 94 68 47 72 64 50 53 61 74 70 64 65 44 24 18 17 35 18 16 19
86 89 87 85 83 81 89 93 91 90 95 60 50 55 54 40 47 51 45 40 45 34 79 92 79 56 28 50 64 83 78 84 82 75 71 51 29 21 18 40 41 24 22 21
88 91 90 87 84 82 85 92 86 88 93 70 64 60 61 50 45 56 42 57 68 70 71 78 64 72 46 34 29 72 81 98 86 79 74 71 31 23 32 33 34 28 27 28
86 88 86 85 84 83 79 95 87 76 93 88 60 65 52 55 40 40 45 49 67 82 76 61 60 87 84 53 69 42 73 74 83 74 64 45 35 32 30 30 33 29 32 25
87 87 85 89 86 82 87 94 89 94 91 93 78 67 59 48 48 42 59 48 51 56 61 53 64 72 73 87 62 53 51 42 63 64 50 52 44 34 26 23 28 23 21 25
90 89 88 88 85 84 89 94 92 83 72 98 90 60 62 42 45 62 62 67 65 56 63 63 74 84 45 72 49 63 41 64 51 52 45 47 32 31 33 30 28 29 26 28
91 85 85 84 84 88 94 90 88 58 60 78 82 51 42 40 44 47 56 83 77 95 91 85 73 54 60 59 51 58 30 34 53 59 41 53 43 33 39 38 35 29 31 30
83 87 88 85 84 90 90 97 92 73 74 79 85 50 49 44 44 46 55 70 70 78 74 77 48 40 48 83 64 36 26 28 31 40 43 46 48 40 36 40 39 32 36 31
84 88 92 88 88 71 81 86 69 72 81 68 69 72 66 49 46 51 56 55 82 77 87 73 60 56 49 83 76 39 35 35 36 38 39 44 47 46 40 39 37 36 32 32
90 89 89 83 84 80 71 62 69 64 56 53 71 79 85 72 73 76 61 74 77 69 70 62 69 62 76 84 56 50 47 42 35 43 43 47 50 47 41 40 41 42 41 37
88 86 85 91 91 94 71 76 66 78 67 69 79 87 97 93 78 72 79 77 88 57 84 76 67 82 92 93 86 79 71 66 61 53 52 48 48 47 44 44 47 48 46 44
79 73 74 98 83 82 70 59 64 61 63 74 90 87 99 95 100 98 89 87 84 81 80 58 83 92 78 78 82 82 80 74 61 67 68 65 63 57 55 51 50 49 54 59
84 88 98 83 83 72 80 71 67 62 79 78 80 87 93 94 100 100 98 99 95 98 81 84 85 92 79 76 88 87 81 76 69 64 63 63 61 60 61 65 82 87 85 86
90 82 70 80 82 93 96 88 96 82 81 91 95 93 97 100 98 98 97 100 100 99 87 98 96 95 82 80 84 85 87 84 82 77 80 82 84 85 89 93 95 94 91 90
74 74 88 96 100 100 95 90 86 98 99 99 99 100 99 99 97 100 100 100 100 99 99 94 94 86 84 83 84 84 86 88 88 89 88 88 91 91 93 94 95 94 94 94
94 99 99 99 94 94 97 97 100 100 100 99 99 100 100 100 100 100 100 100 100 98 94 94 93 93 94 94 93 90 95 96 95 96 95 95 94 96 95 96 96 95 96 97
85 75 89 90 96 94 95 100 100 98 96 99 100 100 99 100 100 100 99 96 87 88 93 93 95 95 94 94 94 95 96 96 96 96 96 96 96 95 96 96 96 95 96 95
73 79 91 86 86 89 89 90 95 90 97 100 100 100 100 95 94 82 94 75 89 93 94 94 93 95 96 96 96 97 96 96 96 96 96 95 95 95 96 95 95 96 95 95
91 95 87 88 83 92 93 95 92 92 100 100 88 89 96 74 75 81 81 91 95 95 95 94 95 96 97 96 96 96 96 95 96 95 95 96 96 92 87 92 95 93 94 95

GFSNW_sfc_rhum_039.txt.gz
RH
82 82 84 84 86 87 94 97 100 74 70 99 96 90 72 59 39 39 42 39 36 37 33 32 30 54 45 40 33 28 25 38 42 31 25 19 22 25 30 68 58 59 75 49
82 82 82 83 86 87 97 98 98 84 71 97 96 73 71 62 61 47 42 42 36 35 36 40 62 61 52 55 59 48 28 33 44 37 26 23 24 24 26 36 54 58 72 60
82 83 84 86 86 86 97 99 100 99 96 68 73 76 74 75 54 60 46 40 38 38 43 34 59 64 52 62 62 73 58 30 35 44 36 33 38 32 26 30 66 59 65 48
84 84 85 84 86 85 97 100 98 88 97 96 78 65 61 68 72 50 47 47 45 43 48 41 50 58 64 53 67 68 64 49 31 26 27 28 29 29 31 29 34 48 49 46
86 88 89 83 85 88 99 100 99 89 72 78 82 73 70 63 54 50 51 46 40 41 45 39 43 62 76 76 76 77 65 61 48 48 26 26 30 31 29 26 29 35 34 36
83 82 82 82 83 87 98 98 94 73 77 82 94 82 72 64 58 50 42 41 43 46 43 44 67 68 73 82 75 86 88 80 55 51 47 40 53 38 28 29 24 24 44 36
83 83 82 82 83 84 95 99 95 97 96 83 86 70 66 64 57 58 44 40 45 35 43 74 78 81 81 81 85 80 93 94 78 77 66 73 37 27 26 28 24 21 20 22
83 83 83 83 83 82 96 98 99 98 98 82 69 72 65 59 55 56 50 43 36 32 53 74 76 95 89 83 78 86 82 97 97 80 62 56 46 29 29 31 29 24 23 22
85 84 84 82 83 82 93 97 96 98 98 95 55 65 61 67 66 64 58 42 42 46 58 80 83 90 78 72 74 68 88 90 99 97 73 76 54 34 25 30 44 26 28 27
88 87 86 87 83 82 90 94 90 97 100 87 65 63 64 52 58 64 54 57 61 54 83 87 88 87 64 80 86 98 98 99 98 95 96 74 40 29 30 50 51 33 29 29
87 88 88 87 85 81 89 89 89 93 98 90 72 63 59 52 55 69 63 69 67 82 86 87 91 95 80 66 61 81 89 95 99 99 94 85 54 37 38 44 38 32 33 33
87 85 85 86 86 86 84 98 88 89 98 97 75 67 62 48 42 54 60 56 63 76 80 82 86 87 81 55 63 67 92 77 90 87 90 68 49 56 60 51 47 42 36 26
86 84 83 84 87 89 87 93 95 94 93 96 97 86 74 63 65 65 88 68 67 89 86 92 84 75 80 87 80 78 61 63 78 64 55 58 50 55 54 67 57 45 32 32
88 90 90 89 90 89 86 90 92 88 91 100 96 73 71 63 61 66 74 68 70 81 84 86 96 92 64 88 65 74 69 64 70 71 56 52 46 59 66 68 60 54 47 46
87 88 90 91 88 88 84 95 89 93 94 97 96 77 62 60 63 74 74 82 82 95 92 97 84 81 83 83 78 74 52 68 83 88 60 62 52 57 58 54 72 60 52 52
87 88 89 90 89 83 96 100 92 93 98 91 100 72 66 59 61 78 80 88 85 96 96 96 80 60 78 88 83 54 41 42 41 48 50 42 40 43 47 48 50 48 46 45
88 89 86 85 84 89 94 95 92 89 93 89 93 93 86 77 64 72 83 81 90 95 94 96 85 77 78 95 91 86 80 68 55 60 61 62 58 60 53 51 49 53 47 40
85 84 93 92 88 85 83 84 80 81 80 80 94 98 92 90 92 88 84 91 90 95 97 94 90 76 88 98 87 82 80 77 74 70 64 64 59 56 55 52 54 55 57 53
91 90 89 95 95 96 87 79 78 89 84 94 96 96 100 95 95 90 91 91 96 85 98 95 92 98 98 97 92 93 88 89 83 72 71 68 72 69 60 63 68 69 75 70
80 83 91 98 94 81 77 74 81 83 86 90 97 94 100 98 99 99 96 98 96 98 91 89 96 99 98 94 90 86 87 84 78 88 93 88 87 81 91 88 83 82 82 80
90 96 99 90 84 91 92 91 88 82 93 94 92 95 99 96 100 100 97 98 98 92 90 89 99 95 92 75 90 93 86 88 92 79 83 85 88 92 94 94 92 91 89 90
90 87 88 91 86 94 88 97 93 93 94 95 97 97 96 99 96 99 99 94 98 97 97 93 97 96 91 86 88 88 88 87 88 86 91 91 91 91 94 95 94 93 92 92
89 89 97 98 99 97 94 85 94 99 99 100 100 100 100 99 99 100 98 99 99 99 97 96 96 91 87 90 88 90 91 90 88 89 87 87 89 90 90 92 94 92 94 96
94 96 94 95 95 98 98 98 99 99 100 98 99 100 100 100 100 100 98 100 99 97 96 96 96 96 96 96 95 90 95 95 95 95 95 95 95 96 95 96 96 93 95 96
90 87 97 96 98 96 98 98 99 99 99 99 100 100 100 100 98 99 98 97 96 95 97 97 97 97 96 96 96 96 96 96 96 95 95 95 94 93 95 96 95 95 95 95
86 91 95 94 95 95 96 97 98 96 99 99 100 99 98 98 96 91 97 88 96 97 98 98 96 96 96 97 96 96 96 95 95 95 94 93 94 94 96 95 95 95 93 94
90 98 97 99 97 98 98 98 96 97 99 99 98 95 98 92 94 94 95 97 97 97 97 96 97 96 97 96 95 95 94 94 95 92 91 95 93 83 83 91 94 92 94 94

GFSNW_sfc_rhum_042.txt.gz
RH
79 81 82 82 84 86 92 98 100 85 76 99 91 89 71 62 54 47 49 51 50 42 41 43 39 47 39 59 55 60 51 41 46 34 24 25 26 27 34 54 60 69 76 49
81 81 83 82 83 85 97 99 98 88 74 96 94 71 67 62 61 54 53 52 49 46 45 50 44 49 63 60 61 73 67 73 60 44 33 32 32 30 27 44 64 66 77 56
81 83 83 83 86 86 97 100 100 99 96 78 73 75 68 68 57 62 60 60 56 52 56 46 53 57 58 62 67 82 76 76 70 62 43 36 41 29 28 33 67 56 60 43
83 83 83 83 84 87 98 99 98 93 98 95 83 70 66 69 68 60 58 66 60 60 66 55 53 51 71 58 79 73 80 94 82 69 51 31 30 31 34 34 41 51 43 48
84 84 83 84 84 86 99 100 99 94 85 80 88 79 75 68 64 58 62 71 52 53 62 55 61 53 54 71 75 73 80 94 88 80 53 39 32 27 31 30 36 40 36 39
85 86 86 86 86 89 98 96 94 85 82 92 97 86 75 67 62 58 51 52 58 55 50 46 58 66 72 72 77 91 86 94 97 90 65 50 53 34 28 38 33 34 47 40
86 85 85 84 86 92 96 98 96 99 98 96 90 70 68 66 60 67 53 55 61 48 39 79 80 85 90 90 85 74 92 92 98 98 82 93 45 31 24 32 31 30 29 28
84 83 83 81 82 85 97 95 99 98 98 93 76 73 67 65 60 64 60 51 45 47 50 81 82 94 89 90 87 86 78 92 99 94 96 70 49 38 42 40 34 30 30 24
84 84 84 83 83 82 93 96 93 98 99 95 71 72 69 75 76 71 63 51 46 52 64 84 80 90 76 83 90 81 86 88 88 98 90 97 61 39 32 35 51 29 25 27
88 88 86 84 84 83 90 96 90 97 100 92 82 75 74 62 68 73 68 62 68 56 86 84 84 76 66 79 93 94 98 99 97 96 94 87 65 54 36 55 54 38 31 32
88 87 87 87 86 84 91 90 92 95 99 92 88 70 69 64 63 72 68 71 76 86 83 88 87 95 84 76 70 87 86 95 98 94 98 94 65 59 64 70 70 62 58 39
89 87 86 88 87 86 86 97 92 87 95 95 91 86 71 61 47 54 65 63 65 73 86 88 90 90 93 82 88 70 83 75 86 83 76 68 68 69 58 66 76 71 68 59
88 89 84 88 87 86 88 95 96 95 96 94 93 91 66 63 72 42 74 77 66 85 83 91 87 76 88 90 76 56 58 65 81 85 60 61 58 59 66 57 64 64 60 60
90 89 89 89 88 87 90 97 92 84 92 98 92 78 86 69 69 76 73 68 81 80 92 89 94 91 70 85 62 80 72 70 71 73 60 56 52 50 60 51 67 66 57 62
90 90 88 88 91 90 94 95 86 82 84 94 97 82 75 70 69 74 82 81 80 96 96 98 92 90 83 89 84 77 77 80 87 81 52 51 48 46 53 50 61 65 65 66
87 86 84 84 85 92 95 99 92 81 96 94 99 86 84 79 76 77 85 90 94 94 96 97 91 72 69 91 89 88 86 83 82 85 74 63 57 47 55 55 53 62 61 57
92 91 90 89 91 92 95 95 92 83 97 99 99 99 87 86 82 93 92 91 98 96 96 99 92 85 74 96 98 87 83 83 81 75 74 73 68 70 62 57 55 56 52 55
91 90 88 88 89 89 93 96 84 86 98 89 95 99 96 89 93 93 96 94 94 95 97 97 96 89 96 97 96 85 84 83 82 81 77 80 76 70 74 71 69 74 75 72
89 85 88 92 95 98 97 85 90 90 91 94 96 97 99 94 99 94 93 93 96 95 99 98 96 96 97 95 89 88 88 95 93 78 82 80 86 85 82 78 77 78 79 77
88 92 96 99 100 92 90 86 84 83 88 93 98 96 99 96 100 100 96 99 98 96 96 96 98 98 92 90 93 92 91 94 94 95 94 93 93 92 91 90 85 84 84 85
93 97 99 92 86 89 89 93 88 87 93 95 97 96 97 96 97 99 98 98 99 94 93 95 97 94 92 84 84 86 85 86 91 94 97 96 92 92 93 93 91 89 88 88
91 88 91 91 92 91 89 96 93 93 97 98 98 98 98 100 96 99 99 93 95 98 95 94 95 95 90 86 87 87 87 85 85 83 87 89 88 91 89 89 90 91 90 90
91 92 94 90 93 89 93 87 97 98 99 99 100 100 100 99 99 100 98 89 98 96 93 98 95 91 85 89 86 90 90 87 89 91 90 86 89 89 91 92 95 92 93 95
89 88 92 93 96 98 98 98 98 99 99 98 99 99 100 100 100 100 98 99 92 95 95 95 95 94 94 94 93 86 94 94 95 95 95 95 94 96 96 95 96 94 95 96
91 86 98 96 98 97 98 98 99 99 99 99 99 100 100 99 98 98 94 94 97 94 98 98 97 97 96 96 96 96 96 96 96 96 95 96 95 94 95 96 95 95 95 95
88 92 96 95 95 94 97 97 98 98 98 99 99 99 98 98 96 90 97 88 96 98 97 97 96 96 96 96 96 96 96 96 96 96 95 95 94 94 95 93 93 93 91 93
92 97 99 100 100 99 98 98 96 97 99 98 97 95 97 94 94 91 92 97 96 97 96 96 96 96 96 96 94 94 94 94 94 93 92 94 91 83 83 91 92 89 90 91

GFSNW_sfc_rhum_045.txt.gz
RH
78 78 80 80 81 83 90 98 100 92 81 100 98 86 61 56 54 52 51 58 58 56 48 45 42 43 38 62 59 72 69 57 59 39 28 29 36 36 40 49 53 74 74 41
79 81 80 81 82 83 97 100 98 96 79 98 96 70 68 61 66 62 61 61 61 47 49 51 48 45 63 64 69 66 58 82 83 53 38 37 37 32 32 51 62 48 67 45
79 80 80 81 83 84 97 100 100 100 99 86 73 84 74 71 60 64 64 67 63 60 62 54 55 54 49 66 69 81 76 83 86 94 90 76 70 49 32 37 62 58 50 42
80 80 80 82 83 85 98 100 99 94 98 98 82 69 64 70 69 60 62 63 67 70 79 66 63 51 57 60 79 72 75 81 93 86 64 56 59 58 48 38 36 45 43 47
80 80 81 83 84 85 99 100 99 97 90 86 96 85 77 67 59 57 67 78 70 64 67 60 61 60 59 63 70 73 79 76 90 90 55 55 59 53 51 42 36 44 39 44
80 81 83 82 84 90 99 97 94 94 97 98 98 87 77 74 62 61 53 63 66 70 61 58 53 54 51 60 73 88 90 93 92 86 80 64 62 67 49 40 31 39 46 38
83 84 84 85 88 92 96 96 94 98 97 96 87 72 71 72 65 68 61 56 65 55 50 63 81 90 90 86 84 82 97 94 98 97 85 76 36 50 36 46 34 30 32 33
84 85 86 86 87 88 98 96 96 97 96 91 85 78 70 67 64 67 62 57 54 50 59 75 80 92 93 97 91 85 81 93 95 96 96 66 45 42 54 74 73 43 32 30
86 84 85 84 84 87 96 96 96 98 97 95 81 92 74 94 78 75 68 57 52 58 71 94 97 89 74 94 90 85 84 87 89 98 96 86 29 45 45 62 82 52 60 45
85 84 84 85 84 83 92 97 94 98 100 92 74 88 91 78 74 81 70 66 69 63 94 98 98 91 66 80 96 98 99 99 95 95 95 86 61 57 61 93 81 71 69 70
83 84 85 86 85 85 90 91 95 96 100 94 86 81 72 72 72 85 76 75 79 88 91 95 96 97 80 76 80 89 91 96 96 90 99 92 56 78 78 82 69 73 68 70
87 86 86 89 89 86 86 95 93 93 98 96 82 79 72 74 53 58 65 63 76 69 87 96 93 95 96 83 87 76 88 78 90 84 81 64 72 72 66 65 72 71 75 64
91 89 89 88 88 88 89 96 97 97 99 98 96 86 73 70 69 51 76 78 66 82 84 93 89 88 90 91 89 75 72 69 80 82 55 54 50 55 60 60 71 61 61 69
89 90 90 89 86 85 89 97 95 88 98 100 91 74 67 65 73 71 79 68 81 84 91 91 93 97 75 89 67 78 63 67 72 67 60 59 50 57 59 61 62 62 62 63
92 89 87 86 86 87 90 95 92 80 79 92 91 90 79 66 74 76 79 81 78 90 90 98 92 87 84 92 83 81 93 89 96 88 86 90 69 55 60 63 55 57 67 58
91 92 88 85 86 87 98 100 96 79 93 88 100 91 90 82 83 79 80 78 88 91 93 97 95 76 82 94 98 86 81 80 83 92 84 85 81 71 68 68 67 64 67 65
91 91 88 89 88 95 96 94 95 79 88 94 99 99 95 87 86 88 93 92 93 92 89 98 96 93 89 93 96 85 80 79 82 84 85 90 82 86 72 73 73 66 66 69
88 91 94 90 86 90 96 98 80 84 96 96 99 99 99 92 99 97 97 99 98 96 97 97 98 97 96 96 87 81 78 84 83 88 79 84 83 79 77 73 72 75 77 75
92 88 87 90 95 98 100 83 82 96 96 99 99 98 99 98 99 98 99 96 99 96 100 98 96 98 96 95 91 87 87 94 94 92 81 83 88 86 85 83 83 84 84 79
86 90 95 100 99 92 87 95 99 99 99 96 99 95 99 95 99 100 97 99 98 99 97 93 97 98 93 88 85 89 92 97 93 96 94 95 93 90 91 90 85 84 85 82
94 98 100 98 95 98 98 99 99 99 97 95 96 96 99 95 97 99 98 99 98 97 98 94 98 93 89 88 86 89 91 90 94 96 94 90 88 87 86 88 86 86 86 88
90 90 91 91 88 88 90 97 94 93 95 96 99 100 95 100 96 98 97 97 94 99 98 91 94 94 88 93 91 92 94 94 93 89 89 91 88 88 90 88 89 91 93 94
88 84 81 82 89 89 93 90 97 98 99 98 99 97 100 99 98 99 97 94 99 89 96 94 96 90 85 86 82 85 86 89 90 91 91 87 89 90 92 92 95 94 94 95
88 86 93 93 95 98 98 98 98 99 99 98 99 99 100 99 99 100 97 98 88 96 97 99 96 94 94 92 91 85 94 93 92 94 93 94 94 95 95 95 95 94 95 96
90 85 99 97 97 98 98 98 98 98 99 99 99 100 97 98 97 97 94 94 98 95 98 98 97 96 94 94 94 94 95 95 95 95 93 94 94 94 95 95 95 94 94 94
88 91 94 95 96 96 96 97 97 97 97 99 99 98 96 98 96 89 97 89 99 98 98 97 94 95 96 96 95 96 96 96 96 96 95 95 95 95 95 94 94 94 93 94
91 98 96 99 98 98 98 98 96 97 98 98 96 94 98 92 92 92 92 98 97 96 96 96 96 95 96 96 96 96 95 95 94 92 91 94 92 84 84 90 92 88 90 91

GFSNW_sfc_rhum_048.txt.gz
RH
69 69 70 72 74 82 88 98 100 94 86 100 100 93 68 57 54 55 59 62 63 63 56 51 42 43 56 66 65 67 69 60 64 43 33 32 38 43 46 65 55 77 78 48
69 70 72 73 79 80 95 99 99 96 92 98 97 88 72 61 69 65 63 66 66 58 52 50 52 53 57 54 70 69 69 80 89 61 46 62 62 48 53 52 61 61 77 56
67 69 72 74 80 82 95 100 100 98 99 90 79 96 90 74 63 66 65 71 65 63 67 58 59 58 50 60 66 84 72 83 75 91 82 79 85 64 57 67 72 61 52 49
68 70 71 74 80 82 96 100 99 97 98 98 92 78 69 79 68 59 65 70 74 76 80 72 64 54 52 48 71 70 70 76 87 78 74 70 62 57 56 58 66 68 56 45
71 72 74 79 80 82 99 100 99 93 95 84 98 93 91 72 64 57 69 80 74 70 78 67 67 58 61 57 53 76 78 78 91 92 72 68 63 57 54 56 58 59 51 46
70 71 76 80 80 83 99 98 95 97 82 97 97 91 80 82 60 60 52 66 71 75 64 64 64 62 61 63 67 76 88 90 91 82 78 68 76 61 52 51 44 52 62 52
73 76 79 80 81 83 97 97 95 100 97 91 91 82 79 76 69 68 61 55 73 60 58 63 72 74 70 71 69 77 89 90 97 97 86 85 46 53 48 49 51 56 54 49
80 80 80 82 82 83 98 96 94 96 96 85 93 90 93 69 65 71 64 63 50 57 60 90 87 93 98 90 84 80 84 94 98 98 96 72 49 42 42 59 32 50 43 54
80 81 82 84 84 84 96 97 94 98 100 95 70 98 94 95 90 76 70 54 54 60 80 95 97 94 74 92 80 87 89 84 89 94 98 89 51 54 64 65 64 74 77 80
82 83 84 84 85 87 95 97 92 98 100 88 77 90 96 85 84 87 80 73 75 62 96 98 97 93 70 84 78 97 98 99 96 84 95 82 64 58 68 76 60 70 68 73
85 86 88 90 88 89 95 96 94 97 100 95 86 76 84 91 85 97 78 84 88 98 99 97 96 98 84 80 85 93 91 96 93 88 98 89 58 79 69 63 70 69 65 75
88 88 85 83 81 82 87 99 96 95 98 97 85 80 67 63 61 60 66 70 81 79 94 96 94 96 96 83 92 85 90 81 90 84 79 66 72 75 71 69 72 70 74 64
88 87 86 85 86 85 85 96 95 98 99 99 99 91 68 73 77 68 80 78 68 79 84 95 92 86 93 92 92 81 82 70 86 82 63 61 57 58 59 64 69 65 58 55
91 91 90 88 85 84 86 97 95 89 98 100 95 77 77 68 67 73 78 68 80 82 88 89 95 94 79 91 73 82 70 73 77 69 60 71 53 70 80 70 65 63 62 59
89 89 88 89 88 88 93 97 94 74 79 96 91 89 75 60 78 75 77 77 82 92 95 98 92 91 86 92 88 85 93 93 92 86 97 94 91 82 77 78 83 77 68 66
91 91 87 86 88 88 98 100 97 78 91 92 98 87 92 80 66 71 78 80 92 88 96 95 90 81 78 96 100 93 86 78 80 92 86 92 87 83 74 75 72 71 73 68
91 91 88 86 83 94 98 95 95 82 87 98 97 96 93 90 89 89 89 86 95 95 94 97 94 93 89 98 99 93 89 93 87 80 86 89 85 91 77 74 71 69 66 67
91 90 86 87 88 95 98 98 85 79 96 97 100 99 99 92 99 95 96 98 94 97 99 98 95 98 97 99 90 83 75 77 81 86 84 85 82 78 79 74 73 77 80 77
90 88 88 94 97 99 99 84 84 94 95 99 99 98 99 96 98 98 98 97 99 97 100 98 93 98 98 97 92 87 87 86 90 84 87 81 84 84 82 81 83 85 85 82
87 88 95 100 99 86 86 93 98 98 98 99 100 99 100 97 100 100 99 99 99 99 99 98 97 97 92 90 91 94 90 85 86 88 90 90 88 88 87 87 83 82 83 82
96 98 99 98 93 96 98 99 98 100 99 100 99 99 100 99 99 99 99 99 99 98 100 93 97 95 90 88 81 84 84 83 87 92 94 90 89 87 84 87 84 84 83 86
93 94 95 93 96 97 98 98 99 99 96 99 99 100 98 99 95 98 98 98 96 97 97 94 96 95 92 93 86 86 92 91 91 91 93 94 90 92 86 90 90 91 92 93
83 81 83 80 89 89 93 97 97 98 98 98 99 99 100 98 98 99 95 96 98 92 95 95 96 88 82 86 88 89 91 92 91 92 91 90 91 88 91 92 95 94 94 95
85 86 94 92 96 98 98 98 98 98 99 98 99 97 99 100 98 99 96 98 88 95 96 98 95 92 91 93 92 86 95 93 94 95 94 95 94 95 95 95 95 93 94 95
90 84 99 97 97 98 98 98 98 98 98 99 99 98 95 98 96 96 93 92 100 97 99 98 97 96 95 95 96 95 95 95 95 95 94 95 94 94 95 95 95 94 94 94
86 90 94 95 96 95 96 97 98 97 97 99 98 98 94 98 96 89 99 91 99 98 99 97 95 95 96 96 96 96 96 95 95 95 94 94 95 95 95 94 94 94 94 94
91 98 97 98 98 98 98 98 96 96 98 98 95 94 98 86 92 93 94 99 98 97 97 96 96 96 96 96 95 95 95 95 95 94 94 95 95 89 85 91 92 88 91 92

GFSNW_sfc_rhum_051.txt.gz
RH
68 71 70 68 69 75 84 94 95 95 95 98 100 97 90 58 49 50 51 60 58 60 51 48 42 42 59 47 65 63 62 52 53 36 31 30 31 36 39 51 46 59 61 42
71 69 72 69 71 74 97 97 89 93 95 96 93 98 93 61 61 59 60 67 64 57 53 52 44 49 47 43 62 70 64 68 69 54 42 53 61 59 54 58 57 54 63 41
68 67 70 69 73 73 96 98 100 97 98 87 86 96 85 79 61 58 61 66 62 61 63 55 56 51 44 49 53 82 68 65 66 64 62 65 66 52 46 51 68 58 54 46
67 68 72 70 74 74 94 98 97 85 98 92 96 90 95 78 69 57 56 69 67 68 72 65 58 50 48 43 54 64 62 61 62 50 52 62 57 49 45 50 49 56 42 45
70 70 74 69 71 74 98 100 100 97 89 87 98 96 98 80 68 60 66 69 66 65 70 61 57 57 49 52 49 71 62 69 78 76 65 58 62 52 47 46 44 43 48 50
68 74 73 71 72 79 96 95 94 97 86 81 94 81 84 86 66 61 51 63 74 79 65 61 60 58 58 56 61 63 65 83 79 68 71 61 64 59 48 40 33 37 40 29
69 67 70 72 75 80 92 96 98 100 94 94 82 74 89 76 69 75 62 59 79 59 52 58 63 67 67 65 66 60 71 82 91 86 80 73 37 42 40 43 39 33 36 40
72 73 74 76 78 79 95 92 99 99 92 81 76 75 82 95 75 76 77 66 55 61 72 86 80 80 85 81 75 74 64 82 91 88 79 56 40 35 33 42 31 45 56 54
78 78 76 77 77 79 92 94 94 99 99 87 64 77 76 95 99 98 87 70 69 64 96 96 88 83 72 79 72 81 85 76 89 92 78 79 45 53 52 47 48 48 56 50
82 83 82 78 78 80 89 94 92 98 100 87 72 76 88 96 91 91 86 82 93 78 98 92 86 77 66 69 72 81 89 96 91 92 87 69 50 43 50 56 43 47 53 49
86 90 89 85 81 81 90 95 94 97 100 95 75 65 82 88 98 97 81 94 95 99 97 91 86 89 74 63 72 75 71 78 84 82 94 84 47 63 64 48 55 54 51 54
87 81 88 86 84 84 85 98 94 94 99 97 82 73 69 64 70 74 80 71 84 87 86 86 80 89 89 70 73 75 79 70 74 72 67 56 55 60 58 60 64 60 60 52
86 84 86 85 85 85 91 97 96 98 100 99 97 94 77 72 72 68 85 74 72 79 78 88 85 81 81 86 78 70 71 65 71 69 52 51 48 51 72 66 73 69 63 58
89 89 85 85 87 85 88 97 96 97 98 100 99 79 81 67 69 81 76 70 80 81 87 91 90 86 68 78 64 72 57 67 70 66 54 62 55 78 77 71 67 66 64 65
92 92 89 87 84 81 88 95 94 86 88 95 90 83 71 67 72 75 77 74 77 88 94 100 97 80 83 84 77 70 66 66 77 68 90 89 79 70 75 74 72 67 69 72
85 89 89 90 91 87 97 100 97 78 92 98 98 81 82 76 80 80 78 81 83 87 98 99 87 72 79 90 83 82 81 79 79 81 83 81 79 76 73 75 71 68 68 69
88 85 85 87 89 95 98 97 94 75 92 99 93 85 84 80 77 85 87 82 91 96 98 99 96 90 82 100 92 87 75 74 74 86 85 83 84 86 74 72 68 66 66 70
89 89 84 85 88 90 97 98 84 75 96 97 98 95 98 87 95 95 91 98 96 98 97 98 92 94 97 100 89 77 72 72 74 79 81 93 88 76 74 70 68 72 75 74
88 87 86 95 96 99 99 88 88 94 93 98 95 96 94 98 93 94 96 89 100 93 100 99 98 98 98 94 88 85 82 84 84 76 73 82 84 80 78 77 75 77 79 76
87 87 96 100 99 90 85 95 94 98 96 98 95 93 99 96 98 100 96 99 100 99 100 92 94 94 91 85 84 84 82 80 80 83 82 81 83 83 84 86 82 79 78 83
96 99 99 97 91 96 97 99 97 99 98 94 93 96 97 98 100 98 96 98 99 99 99 94 92 90 88 76 75 78 82 80 86 91 92 91 91 90 90 88 87 88 88 88
95 94 92 93 89 97 95 98 97 97 94 100 98 99 99 100 99 100 97 97 97 95 92 87 92 89 80 79 79 80 83 86 88 87 88 90 89 91 91 89 89 90 90 92
80 80 78 76 86 88 93 97 96 96 96 96 100 100 100 99 98 100 93 93 96 81 90 91 90 82 75 76 74 82 86 90 86 91 92 90 91 89 90 90 94 91 92 95
82 81 90 91 94 96 97 96 97 96 97 97 98 100 98 98 94 95 92 97 83 92 91 93 88 86 86 85 86 81 92 91 92 94 93 94 94 95 95 95 95 92 94 95
85 80 98 96 96 96 96 96 96 94 95 98 99 95 90 95 92 92 88 88 95 89 93 93 92 92 90 92 93 94 94 95 95 95 95 95 95 94 95 95 95 94 94 94
84 90 94 95 95 96 97 97 96 93 95 96 94 95 93 95 92 86 97 83 93 94 95 93 91 94 94 95 94 95 95 95 95 95 95 95 95 94 95 94 94 95 94 94
91 97 97 97 96 97 97 97 94 94 96 97 92 92 98 73 86 91 88 95 95 96 95 93 94 94 95 95 95 94 94 94 94 94 93 93 93 89 84 87 89 83 85 90

GFSNW_sfc_rhum_054.txt.gz
RH
64 66 70 74 73 69 79 80 90 69 80 100 88 88 52 54 40 36 38 41 46 47 44 43 36 32 37 35 39 44 29 38 40 29 28 24 23 27 28 37 37 36 44 28
70 69 74 71 76 71 80 77 72 68 84 95 90 71 69 52 43 39 41 44 48 42 46 48 36 32 32 34 40 57 49 37 37 32 29 29 33 34 33 36 39 40 56 31
68 69 72 70 71 74 91 86 96 83 88 78 76 64 68 60 48 44 42 41 47 51 51 41 41 37 30 34 35 70 58 45 40 32 31 33 49 40 36 38 49 39 36 30
67 66 68 70 69 75 90 95 92 57 93 78 72 68 76 56 56 46 41 46 46 50 66 49 47 37 35 30 44 45 51 59 42 37 37 34 36 36 34 36 37 44 33 30
74 68 69 72 76 75 95 99 85 76 59 56 67 68 77 59 57 55 50 50 48 50 63 55 47 44 42 42 36 45 47 44 42 40 31 40 44 33 30 30 29 30 28 29
72 70 69 71 73 78 88 93 76 94 59 57 62 60 61 51 56 54 42 47 51 69 55 47 45 45 48 47 49 53 50 59 49 39 46 39 42 37 31 28 23 23 26 19
68 64 70 73 75 78 79 86 88 95 86 73 55 47 45 48 52 63 50 58 66 58 49 45 46 50 50 52 49 46 52 65 65 54 67 59 23 28 29 30 23 19 19 20
68 70 72 74 79 74 92 82 97 100 88 49 46 49 49 45 55 89 92 58 57 64 90 89 65 62 67 61 50 49 48 57 72 71 55 34 30 20 23 27 19 26 28 28
73 73 73 74 74 74 85 91 82 90 97 82 39 50 48 60 62 70 91 84 72 87 98 96 74 64 50 62 60 42 49 53 65 73 61 62 32 35 35 33 34 32 34 36
74 76 77 77 76 75 83 83 81 92 98 74 60 63 59 60 77 90 94 97 98 93 99 90 71 61 50 60 64 83 77 73 78 66 75 48 31 26 33 55 53 39 36 35
77 78 78 80 79 77 83 78 80 92 94 93 69 54 61 59 74 92 85 98 98 99 98 77 66 67 48 48 51 63 70 69 73 61 75 78 32 37 46 58 45 42 39 38
81 82 83 83 84 83 82 90 77 85 96 96 63 57 52 45 46 74 95 75 86 72 71 61 58 71 70 46 55 45 66 45 50 46 47 42 40 46 43 50 54 54 56 50
84 84 83 84 89 88 87 88 81 94 99 99 90 74 58 51 52 58 96 78 69 72 53 76 68 76 53 69 52 42 39 37 53 50 37 35 32 39 54 54 58 52 49 52
86 87 88 90 85 90 89 94 91 93 98 99 94 60 66 53 58 62 70 70 66 68 73 76 78 74 46 56 45 49 36 38 47 42 34 31 33 54 60 58 56 54 51 51
88 88 87 85 87 86 89 94 94 91 84 96 80 81 68 56 63 68 72 84 82 84 97 100 97 61 65 60 59 48 33 40 52 49 57 61 56 52 62 61 62 57 57 55
88 91 88 86 88 90 98 100 98 91 91 96 88 63 74 66 66 69 71 85 90 93 98 99 73 64 75 78 60 39 61 63 63 62 64 63 58 54 62 63 59 57 57 56
90 93 91 89 90 95 97 90 89 88 92 92 79 67 70 61 68 76 88 73 78 86 96 98 96 82 69 98 78 76 65 61 58 68 80 72 82 76 65 63 61 58 55 56
87 89 90 91 89 88 92 90 84 82 94 88 88 83 85 63 76 79 71 82 85 97 99 98 91 74 97 100 83 63 56 55 57 66 64 71 75 77 72 66 64 62 64 63
84 84 93 97 96 98 97 89 82 92 91 96 87 86 88 73 70 65 79 91 100 96 100 98 84 100 100 94 79 75 73 71 67 59 55 71 79 80 82 82 80 70 74 74
90 90 96 100 99 91 90 94 99 99 96 81 82 71 97 98 88 81 80 78 85 99 98 99 100 94 83 72 74 75 72 70 66 72 67 69 75 73 79 85 82 79 83 83
94 98 100 97 83 85 96 100 95 98 97 86 76 83 92 87 98 89 79 91 95 87 98 95 91 87 82 63 64 66 70 68 71 76 80 80 81 78 78 82 84 85 85 86
90 93 92 96 97 99 96 93 96 85 81 97 96 86 83 94 92 96 91 96 97 92 82 92 88 85 70 69 72 72 74 76 77 76 84 89 84 85 84 86 86 89 90 91
64 60 76 64 75 90 90 94 95 94 94 96 100 100 100 99 99 100 98 100 96 76 96 87 82 68 65 66 64 70 72 75 77 84 89 84 85 86 87 88 93 92 91 92
62 74 83 83 86 86 88 89 91 90 94 95 99 100 100 100 100 98 98 96 84 93 92 86 82 79 79 78 78 72 86 89 88 89 90 91 92 93 93 93 93 92 92 93
73 69 92 88 88 87 89 90 90 86 89 95 100 98 96 95 93 90 90 91 90 82 86 85 83 85 83 86 88 90 92 93 93 93 93 93 93 91 92 93 93 93 93 92
69 79 80 88 89 92 90 92 93 86 92 95 85 88 88 91 84 80 89 79 84 88 88 87 82 88 91 92 92 92 93 93 93 93 92 93 93 92 92 92 92 92 91 90
77 90 89 89 88 91 92 92 89 87 93 96 81 85 94 66 77 81 78 89 89 91 92 88 90 91 93 93 92 92 92 91 91 89 88 89 90 88 84 83 80 74 77 80

GFSNW_sfc_rhum_057.txt.gz
RH
68 75 68 68 69 73 68 66 95 50 56 96 82 78 41 39 27 25 28 31 35 37 35 36 34 31 29 34 39 53 32 36 37 37 21 21 22 27 32 38 43 32 41 33
73 75 72 68 72 75 69 70 66 45 74 89 77 50 43 36 32 29 30 31 29 28 35 41 33 29 27 29 38 53 50 38 44 36 29 25 27 25 25 28 32 50 60 35
70 71 70 69 73 74 76 87 98 56 84 68 62 53 55 48 36 32 26 27 27 36 38 33 38 33 26 28 31 64 58 51 35 38 34 23 33 30 27 30 43 39 40 31
66 66 68 70 70 72 89 88 85 58 84 60 63 55 63 47 49 34 28 34 32 35 41 36 40 37 30 26 42 36 64 64 51 28 31 30 27 31 31 32 30 38 31 29
72 72 71 71 73 72 98 99 79 51 52 51 48 53 67 54 43 40 40 38 32 32 38 37 43 39 45 42 30 36 56 73 55 54 32 31 35 30 27 25 24 25 23 23
70 70 74 73 73 76 98 68 68 82 60 49 58 56 41 39 37 43 42 37 39 43 38 39 44 44 55 46 44 46 45 52 71 71 40 36 44 34 30 28 24 25 30 22
69 69 72 75 73 77 92 84 62 88 78 52 48 38 49 43 38 40 39 40 52 41 43 43 41 42 42 41 41 40 50 47 47 63 53 81 28 20 20 24 21 18 17 16
69 70 74 75 74 73 90 85 89 83 91 43 39 49 48 34 39 50 45 50 68 67 67 70 62 61 62 62 40 42 41 49 60 58 51 33 22 20 21 23 18 16 17 22
72 75 77 75 73 71 89 94 82 89 87 67 39 38 33 48 49 48 56 52 71 86 95 98 78 67 50 51 46 36 39 46 62 59 59 55 27 20 25 21 26 24 28 30
73 74 76 76 74 74 80 89 81 90 100 51 51 78 62 46 51 57 66 74 86 92 99 94 81 66 44 60 64 60 60 60 67 60 58 38 20 22 22 45 46 35 32 32
76 75 76 76 76 77 80 70 68 88 90 57 47 43 52 62 64 86 76 97 98 100 99 73 62 66 49 44 53 50 54 66 68 60 67 61 25 26 38 56 42 39 39 41
78 76 77 77 77 77 77 79 49 75 91 60 55 48 40 49 48 65 85 74 88 61 74 58 67 71 67 47 56 53 60 44 50 42 44 35 29 44 46 44 45 45 46 42
81 77 77 77 78 79 81 63 59 88 98 90 72 64 46 46 49 47 95 72 79 71 51 82 70 73 58 70 48 49 39 52 48 61 33 42 30 39 43 43 46 42 41 41
82 80 80 80 81 82 83 93 72 86 81 92 65 47 60 43 46 53 62 63 61 73 80 85 83 77 44 61 46 47 34 36 37 41 33 30 27 44 51 46 44 44 42 44
84 83 82 83 84 84 88 93 85 73 64 83 71 51 54 48 48 52 68 76 83 96 93 98 90 58 58 54 53 53 30 35 48 48 52 52 43 44 48 49 50 48 51 50
84 85 85 85 86 87 98 100 95 78 74 84 94 62 57 57 56 58 67 82 93 96 97 91 65 56 64 83 64 37 46 46 51 56 59 58 52 47 52 55 53 52 51 51
87 88 89 89 90 95 98 87 74 81 87 98 97 88 56 59 62 73 80 81 94 96 98 99 87 70 68 76 70 73 54 50 48 54 56 60 66 67 61 58 54 54 51 54
91 90 91 90 90 85 92 85 84 81 96 96 98 84 75 56 78 90 78 97 93 94 84 83 68 63 73 100 74 52 48 48 50 53 48 53 61 68 66 62 61 66 66 67
92 93 94 95 96 98 92 87 86 87 86 94 81 83 90 60 64 64 75 78 99 82 83 80 78 86 100 95 72 68 67 63 57 50 47 56 66 64 60 60 62 68 71 69
94 90 97 100 96 90 92 96 99 98 95 81 80 59 96 68 75 77 76 82 76 87 92 97 99 95 78 64 68 68 64 59 60 66 65 67 69 67 66 67 66 66 69 72
95 99 100 97 85 91 98 100 100 99 92 68 69 69 91 87 93 80 68 79 72 71 82 98 98 92 79 58 59 60 65 64 68 73 77 76 77 78 71 76 79 75 74 79
92 94 92 89 95 97 95 92 86 72 67 78 83 73 75 80 82 95 71 80 80 81 80 90 89 82 64 65 67 67 69 75 78 80 78 78 80 83 80 81 86 87 86 89
70 78 77 69 84 99 99 92 84 93 97 91 100 97 93 94 88 100 97 99 92 72 98 93 81 64 59 62 63 73 72 74 76 80 78 78 82 85 88 87 91 90 90 93
56 78 92 94 92 85 88 94 98 95 97 98 100 100 100 100 100 100 100 99 90 90 92 92 81 78 76 79 76 71 82 82 82 84 85 88 88 92 92 91 92 90 90 92
70 68 90 86 85 85 89 93 92 84 84 94 98 100 98 100 99 98 97 99 93 85 90 89 82 82 80 85 84 85 86 86 86 85 87 90 90 90 91 91 91 91 92 92
69 81 85 91 91 93 93 95 96 86 92 95 100 99 97 94 90 86 93 88 88 90 90 88 82 88 89 90 90 90 88 86 87 88 88 89 90 91 92 90 90 90 87 83
79 88 87 89 89 94 94 92 89 89 98 100 93 90 95 68 80 81 77 89 90 90 91 86 87 88 90 91 91 91 90 89 88 89 90 90 90 87 77 78 74 68 71 75

GFSNW_sfc_rhum_060.txt.gz
RH
66 66 69 71 68 69 70 87 93 44 54 90 75 91 55 43 26 21 22 28 29 31 30 30 31 31 28 30 36 53 49 37 44 43 28 21 25 30 33 55 58 41 56 42
67 68 70 74 75 67 74 91 55 42 74 96 78 51 45 37 32 27 26 28 26 26 28 34 29 29 25 27 31 49 48 46 54 41 36 33 32 31 29 36 54 91 78 57
67 70 72 69 74 69 89 98 91 52 82 56 61 62 50 46 29 29 28 25 24 26 30 28 34 30 26 26 27 64 48 66 58 52 57 64 65 33 39 41 81 80 80 51
70 75 70 71 74 76 93 100 84 54 89 65 57 54 71 52 40 32 27 31 28 28 37 31 32 28 26 25 48 41 62 92 61 48 44 40 40 45 35 43 61 73 48 40
73 69 68 70 72 75 97 99 77 44 44 56 66 55 58 48 51 38 38 34 27 28 32 32 34 34 50 37 36 37 64 82 74 65 45 34 34 38 61 58 28 30 40 56
68 68 70 75 75 78 98 94 62 88 73 66 56 71 48 36 35 40 48 42 41 33 41 52 49 41 58 56 56 51 58 70 90 74 51 43 51 35 42 45 24 24 32 25
67 68 70 75 75 76 80 90 76 91 80 54 52 41 53 59 35 37 28 48 54 60 49 43 41 38 38 41 42 40 51 51 74 84 84 78 32 20 22 27 24 23 23 23
68 70 73 74 75 74 93 84 91 89 86 49 45 42 46 40 50 47 41 41 58 68 74 65 52 53 53 47 39 40 42 50 78 95 75 64 43 24 22 24 26 19 17 18
75 75 74 76 74 74 87 92 83 99 92 68 38 47 48 65 59 52 43 45 61 65 86 79 71 62 44 44 42 36 40 49 66 70 75 83 35 26 22 20 34 23 27 31
78 76 76 77 74 74 83 88 84 97 100 52 46 74 84 71 70 63 50 70 75 74 95 93 72 64 42 63 61 60 60 66 74 73 72 48 22 20 22 42 62 41 36 41
88 83 77 76 77 76 82 78 83 95 96 60 46 41 55 56 79 93 74 84 82 97 97 79 63 70 60 58 59 66 58 72 76 65 67 65 21 24 35 64 59 52 49 46
90 90 81 76 77 78 77 86 77 84 97 57 50 45 39 39 50 88 93 66 98 76 86 64 68 83 78 56 65 75 93 47 55 46 47 39 32 51 47 46 56 54 48 42
90 92 84 77 77 77 77 63 69 89 96 77 65 57 43 37 43 47 90 66 61 80 84 96 88 83 65 71 54 63 81 57 47 58 41 28 52 48 44 44 47 43 43 44
90 91 84 78 78 76 74 80 62 86 88 86 62 36 46 39 40 44 51 60 64 86 92 99 94 83 68 82 58 69 75 87 56 54 57 72 77 65 48 45 46 48 46 49
86 89 82 78 78 76 78 87 74 77 64 79 74 60 47 33 49 48 51 66 70 92 98 99 88 66 72 66 58 56 46 82 77 81 70 81 83 54 48 52 53 52 52 53
89 84 80 78 78 80 90 99 86 74 80 96 84 67 75 58 54 56 56 67 88 95 99 99 68 50 68 78 81 80 68 48 55 64 52 56 57 56 55 56 55 52 53 55
87 83 81 81 82 91 98 92 77 77 83 99 86 62 54 58 60 71 76 81 96 97 98 98 79 73 68 86 76 90 64 48 52 48 50 57 61 70 61 59 57 56 56 58
86 85 84 84 85 86 97 87 78 72 94 97 96 90 83 64 87 99 87 97 96 98 98 95 94 69 76 95 81 60 56 50 54 52 48 62 58 55 55 54 57 64 65 64
86 86 88 97 97 99 95 87 80 79 83 97 96 95 91 59 71 76 90 90 100 95 99 83 72 95 96 95 78 72 66 63 60 53 53 52 62 58 57 59 60 67 69 68
89 91 98 100 98 88 87 97 100 98 90 89 88 68 89 67 80 82 77 79 78 85 82 81 90 95 78 65 67 67 65 62 64 69 74 69 71 66 68 70 68 67 71 73
94 98 100 98 89 94 98 100 100 100 99 73 72 75 84 72 91 82 82 89 82 78 89 91 94 90 84 59 63 63 67 66 73 76 78 78 82 84 74 77 76 76 77 85
91 95 94 95 96 99 100 99 97 83 70 73 83 80 79 82 76 86 80 78 79 75 85 91 91 89 71 65 69 72 72 75 80 76 75 79 79 75 75 77 81 87 89 92
72 84 98 98 95 100 97 90 84 93 92 89 98 96 95 83 88 94 94 95 85 73 90 91 86 74 70 74 68 74 71 72 73 76 76 77 81 82 80 87 93 91 93 94
65 80 89 94 87 88 92 94 97 98 100 100 98 100 99 100 98 98 99 99 93 91 91 93 90 85 83 84 77 74 88 87 85 86 88 91 91 94 92 93 94 92 93 94
70 68 88 84 87 88 92 97 94 93 92 100 100 97 92 98 96 90 92 92 92 85 92 91 90 86 85 88 87 89 91 94 93 91 93 94 92 92 94 95 94 90 92 91
70 82 85 90 90 94 94 98 96 92 96 90 90 97 92 92 88 93 92 93 92 94 92 88 83 89 92 93 92 93 92 92 93 93 90 91 93 93 92 91 90 89 87 90
75 88 91 92 87 94 95 94 92 91 98 100 93 92 94 92 86 85 82 92 93 93 93 87 88 88 92 93 93 94 94 93 92 91 89 90 89 88 77 80 75 68 74 82

GFSNW_sfc_rhum_063.txt.gz
RH
69 66 66 69 73 74 76 90 99 69 70 94 94 91 59 53 44 41 42 38 38 40 38 42 39 38 47 39 42 58 57 74 60 37 25 27 35 43 71 98 83 72 69 73
75 65 69 68 72 74 92 96 82 61 86 99 96 71 55 52 51 49 44 38 34 35 39 48 39 37 42 37 44 58 48 72 77 58 40 36 47 35 50 55 61 96 98 67
69 67 67 70 76 73 92 99 98 83 92 84 96 85 74 60 44 42 39 35 34 39 42 38 44 41 37 45 44 62 53 67 80 86 70 77 80 59 37 48 84 80 88 73
68 69 69 70 72 76 94 99 96 79 97 86 82 74 67 67 83 45 36 37 38 42 47 44 50 42 38 36 57 56 76 86 77 72 60 61 71 68 50 58 59 90 74 78
68 71 72 76 69 75 97 100 98 81 77 65 84 97 78 64 53 76 63 62 41 36 43 49 58 68 63 71 54 62 70 86 82 78 55 52 58 57 46 64 64 59 68 83
66 67 68 73 73 78 97 94 80 97 84 80 88 78 74 76 60 48 64 65 77 70 66 71 64 64 68 67 71 71 83 88 89 89 65 74 72 51 66 72 72 63 91 57
66 66 68 72 72 79 94 95 93 98 89 73 68 53 49 60 80 84 57 53 68 70 68 62 56 58 56 70 68 59 68 71 87 97 72 95 57 47 46 54 61 48 30 38
66 70 70 72 71 76 95 95 96 100 99 69 60 54 49 57 74 97 79 60 79 78 83 77 73 74 69 61 51 54 56 70 91 97 89 69 54 46 33 42 40 32 29 28
74 75 73 74 72 72 92 95 93 99 98 80 60 66 50 89 91 87 91 81 79 78 97 97 90 85 63 59 54 45 52 67 84 95 89 91 64 41 30 30 68 50 48 49
78 78 77 76 72 71 89 96 89 99 100 76 64 90 86 89 94 98 81 84 91 83 88 99 95 89 53 72 70 73 72 76 82 84 91 80 46 34 28 55 84 61 57 58
82 80 81 80 78 75 86 90 90 98 98 80 64 68 77 75 84 99 98 97 95 96 93 97 88 91 76 72 63 90 85 80 91 90 90 83 35 52 58 80 71 61 58 60
83 83 88 88 82 78 79 93 86 90 98 88 76 67 66 66 57 86 94 100 100 90 92 90 93 93 92 81 89 87 98 85 82 70 71 64 64 69 71 66 65 62 61 57
87 87 86 89 85 78 78 85 92 96 97 93 85 77 52 45 55 59 96 90 82 94 95 100 98 99 99 97 79 82 85 80 91 75 80 80 90 72 55 54 59 57 56 56
92 92 89 91 85 78 74 90 86 92 98 99 84 52 63 53 50 59 68 73 76 88 95 100 100 100 88 96 86 87 90 93 93 81 88 91 87 84 72 61 55 56 56 58
92 88 85 90 82 74 79 94 88 87 93 98 98 77 60 59 60 60 64 72 82 93 99 100 99 97 92 89 77 96 87 100 100 99 96 94 96 80 74 70 59 60 61 65
89 85 89 83 79 76 96 100 93 90 94 96 98 78 74 73 63 71 71 77 86 95 100 99 97 80 80 94 97 94 72 69 70 93 89 86 79 72 62 60 62 63 66 65
87 89 84 81 79 90 94 92 95 77 92 100 98 91 82 64 71 87 86 83 96 96 98 98 93 90 86 98 98 71 61 60 56 58 68 74 67 70 62 61 61 64 64 67
89 85 81 80 79 80 91 93 88 78 95 99 99 94 94 80 98 100 95 98 98 99 99 97 97 92 93 99 82 68 62 58 64 63 65 65 60 61 62 62 63 71 76 76
84 81 80 88 93 97 95 80 86 88 90 98 98 98 98 82 90 96 97 98 100 98 99 98 92 98 98 96 82 77 73 72 71 63 64 67 68 69 69 69 73 79 80 78
83 91 98 100 98 83 84 96 100 100 97 97 100 83 95 92 95 99 99 99 100 99 96 96 99 98 83 75 78 78 76 76 75 80 83 80 82 81 83 86 81 82 86 85
95 99 100 97 80 95 99 99 99 95 95 96 94 89 95 86 95 98 89 97 96 96 97 93 98 95 94 73 77 76 82 83 89 88 90 88 86 86 84 85 83 85 83 87
93 96 94 97 98 100 99 97 95 98 92 95 96 94 93 95 88 97 97 97 93 96 98 98 98 96 90 83 85 86 86 86 88 86 88 88 84 86 86 87 90 93 93 94
82 91 98 99 98 99 98 96 97 99 98 99 99 100 100 94 97 98 99 99 98 95 99 97 97 94 90 82 84 88 87 85 85 90 90 89 92 88 89 94 95 93 96 95
90 94 96 98 98 98 98 98 99 100 100 99 99 99 99 100 91 96 95 99 98 97 98 98 97 96 92 90 86 86 97 94 94 95 94 94 94 96 96 96 95 93 96 97
85 84 96 96 98 97 98 99 98 99 100 99 98 98 97 94 92 89 94 94 98 97 99 98 98 96 95 96 95 96 96 96 96 95 96 97 96 95 96 97 95 93 93 93
85 92 96 98 97 98 98 98 99 98 99 99 99 93 90 94 96 97 95 97 98 99 99 97 95 97 97 97 96 96 96 96 95 95 96 96 95 95 97 95 93 94 94 93
87 98 97 98 98 99 99 98 99 99 99 99 99 96 96 98 96 96 98 98 98 97 97 97 95 95 97 96 96 96 96 95 95 94 93 94 92 92 90 90 90 80 84 90

GFSNW_sfc_rhum_066.txt.gz
RH
71 70 70 67 68 72 79 96 99 67 86 95 96 91 68 57 47 42 46 49 53 50 43 45 43 42 51 41 45 64 59 76 90 54 32 31 53 73 75 98 86 81 87 94
68 69 71 67 70 72 96 100 95 73 91 99 96 79 68 60 58 53 47 51 45 46 49 48 45 46 52 44 52 59 52 73 91 61 47 37 51 50 63 75 88 97 98 84
67 70 70 68 69 74 95 100 99 88 96 91 92 97 86 73 54 56 50 52 50 48 50 48 48 42 49 51 49 63 57 73 84 90 88 80 85 66 62 84 99 89 91 73
66 66 68 68 73 74 96 100 96 89 97 96 97 85 82 79 79 67 62 58 51 48 55 55 56 54 55 52 65 69 71 77 87 76 69 59 58 84 78 73 80 86 71 68
70 70 69 69 71 72 98 100 99 94 97 76 74 83 88 81 83 61 66 81 81 78 68 50 61 68 63 80 66 73 82 84 89 86 60 50 61 71 75 93 85 61 62 70
71 69 66 68 74 75 99 98 92 94 82 85 81 80 66 76 55 75 60 76 89 87 76 82 76 73 68 67 70 79 81 87 90 87 68 63 82 63 58 61 74 79 94 67
68 68 67 72 69 79 96 97 95 98 91 81 71 56 58 58 55 82 80 83 96 75 73 77 67 70 66 70 70 67 78 76 89 97 80 83 58 40 41 67 69 69 72 78
67 68 70 72 74 76 96 94 96 100 99 89 70 66 64 61 75 77 84 76 70 71 80 80 76 77 72 65 65 73 70 78 89 92 92 63 42 48 54 66 77 65 73 74
72 74 74 76 72 73 95 96 93 100 99 83 55 81 77 89 92 93 92 78 92 85 92 90 86 86 69 66 60 54 65 73 84 97 90 89 64 45 41 41 97 62 54 68
76 75 76 74 72 71 92 98 92 99 100 88 70 84 93 93 96 98 98 98 96 84 97 98 96 88 63 71 73 72 86 91 86 91 95 79 52 43 44 70 96 65 60 66
80 80 80 80 78 73 88 96 95 96 100 89 75 74 83 94 98 98 94 96 96 95 96 97 90 94 76 75 67 78 83 89 95 90 94 82 56 54 64 76 74 68 64 66
84 85 84 83 81 79 81 95 92 92 99 91 80 68 65 64 60 84 93 92 99 99 93 95 98 96 96 83 89 94 99 88 95 77 76 88 72 73 68 67 77 73 71 64
83 87 86 85 83 84 87 83 96 97 100 96 88 76 55 54 59 64 93 95 91 99 96 99 99 93 95 95 91 85 91 84 98 91 88 90 88 75 60 59 67 65 64 67
90 90 92 90 87 87 90 89 96 96 94 99 86 63 73 58 57 68 70 64 86 89 97 98 97 98 95 99 93 96 94 89 97 98 91 89 89 89 83 62 63 64 64 67
93 91 92 92 89 90 91 96 95 91 95 98 97 81 66 59 66 69 71 77 84 95 99 97 98 96 99 98 92 99 94 100 99 99 97 98 97 84 78 80 74 65 67 71
88 88 89 86 89 89 95 99 93 95 95 98 99 83 76 74 76 76 79 81 88 94 96 98 98 86 99 100 99 100 98 95 95 100 98 100 97 73 71 72 66 66 68 70
90 88 89 90 87 86 94 91 86 78 95 100 97 97 85 81 80 90 91 88 92 95 95 98 93 90 86 100 96 95 91 85 83 92 94 84 75 82 65 65 67 70 72 74
90 89 86 83 76 75 92 94 88 75 96 96 99 97 94 82 97 96 95 98 97 97 95 96 95 95 95 97 95 91 92 88 72 68 66 68 66 68 68 65 68 74 77 76
86 83 81 87 93 95 93 77 79 94 90 98 99 98 96 99 99 99 98 98 99 97 98 95 97 97 99 97 91 89 84 83 82 76 64 66 72 74 75 75 75 77 80 79
82 81 98 100 98 82 84 94 100 100 98 97 98 92 94 97 100 100 99 100 99 99 96 98 98 98 95 90 93 89 89 81 75 83 88 83 83 80 81 83 82 80 85 89
95 95 99 97 84 93 93 99 98 99 95 96 95 94 94 94 100 100 98 99 100 99 96 98 98 95 93 88 89 88 92 88 90 90 92 86 80 83 81 84 82 84 84 89
88 94 93 93 97 100 99 97 95 90 90 97 98 95 93 97 93 98 98 95 97 96 99 98 97 95 93 88 87 89 89 88 88 84 88 87 83 85 85 85 88 92 92 94
96 95 99 100 99 98 97 90 90 100 97 99 99 99 97 94 96 98 99 99 99 98 98 98 98 92 87 87 82 83 82 82 86 91 89 88 90 87 89 93 96 94 95 96
97 97 98 98 98 98 98 99 99 100 100 99 99 99 98 99 93 97 92 99 97 98 97 97 98 92 89 91 87 86 98 96 95 96 95 96 94 96 95 97 97 95 97 96
86 86 99 98 97 98 99 99 98 98 100 99 98 98 96 90 93 85 88 93 98 98 98 99 99 98 97 98 97 97 97 97 96 97 96 97 96 95 96 97 96 95 96 96
86 91 95 98 96 98 98 98 99 99 99 99 97 97 92 90 97 92 96 97 98 97 99 99 97 99 99 98 97 97 96 96 96 96 95 95 95 95 97 96 95 94 93 96
91 98 99 98 100 99 99 99 98 99 99 99 96 95 92 96 95 98 98 98 98 98 99 100 98 98 98 98 97 96 95 96 96 95 94 94 93 90 83 85 86 79 85 93

GFSNW_sfc_rhum_069.txt.gz
RH
66 68 68 70 67 72 84 96 98 71 89 98 97 93 69 56 55 49 53 56 58 60 53 54 41 50 55 44 50 64 55 77 95 73 45 52 63 78 93 99 97 93 99 93
65 67 67 69 68 73 96 92 98 82 86 98 96 83 72 65 64 60 57 58 54 52 58 72 50 46 48 46 58 54 52 73 92 67 58 60 73 78 82 85 92 90 97 84
64 65 68 70 68 71 94 99 99 85 96 92 89 93 86 77 74 72 71 61 56 61 63 50 60 51 44 54 51 66 59 75 82 91 90 82 95 80 74 88 100 94 94 86
65 66 66 66 67 68 97 100 95 88 99 97 84 75 81 92 88 68 66 72 76 91 86 60 67 58 55 62 69 72 66 70 89 79 74 70 71 76 78 95 92 98 71 68
66 66 68 71 69 71 97 100 98 91 96 85 86 83 89 70 78 57 84 78 84 80 95 76 86 65 66 71 73 80 82 83 91 84 73 61 57 52 64 78 84 91 80 70
69 69 68 68 68 78 98 98 90 94 83 83 81 70 63 78 63 60 53 66 93 95 83 81 89 84 80 74 73 79 81 88 90 82 74 74 76 72 56 71 78 75 97 72
69 68 70 69 70 79 90 97 97 98 94 81 77 61 58 66 66 74 63 63 94 80 73 79 84 76 78 75 73 70 81 79 90 95 82 80 47 33 52 62 69 74 78 79
67 67 68 70 70 74 97 96 98 96 98 82 81 79 68 70 71 79 72 74 75 88 89 94 77 83 73 67 71 76 72 81 89 89 92 64 51 55 59 66 69 69 71 71
73 73 73 75 72 74 96 96 96 100 99 89 64 73 76 95 92 92 82 79 80 96 100 98 87 85 66 67 60 65 81 76 82 96 87 86 58 51 45 55 86 75 67 80
73 75 73 72 72 74 94 98 90 99 100 92 78 86 84 90 96 95 86 90 97 97 97 96 96 86 68 68 69 74 90 94 94 89 92 80 57 75 56 87 94 78 69 82
75 74 76 76 77 74 92 90 94 91 97 90 77 74 84 96 97 98 91 91 93 97 96 95 88 93 77 76 70 79 82 91 97 91 87 87 76 76 73 87 82 77 75 75
79 79 81 78 78 76 81 92 94 95 98 91 90 80 69 68 68 84 88 91 98 99 99 94 92 98 96 84 90 96 94 96 92 80 82 86 77 82 80 82 89 88 90 82
82 81 80 80 81 79 82 94 97 96 100 91 96 82 65 64 70 66 91 92 88 100 96 100 98 94 98 98 94 94 90 94 99 99 93 90 83 73 70 67 74 70 78 88
84 84 84 85 84 84 81 99 90 90 98 99 86 66 78 65 62 65 64 66 82 84 97 100 97 94 93 97 97 98 99 87 93 98 96 94 92 85 90 91 82 80 69 69
87 88 91 91 89 91 92 98 95 83 87 96 96 83 60 61 69 70 77 76 80 89 98 96 89 94 98 99 99 99 97 100 98 99 99 98 99 97 84 89 92 77 73 77
90 91 91 87 92 92 98 100 98 93 93 97 98 83 80 76 76 77 83 87 90 92 90 97 94 87 99 99 98 98 97 98 97 100 100 100 100 95 68 80 93 94 88 77
94 92 86 88 91 91 93 88 86 85 92 97 96 98 82 82 84 93 94 89 93 94 92 96 95 91 90 100 97 96 97 98 95 96 97 85 80 84 71 70 70 74 72 73
92 91 92 85 75 81 93 96 83 80 97 91 97 96 95 93 95 97 96 97 96 95 95 95 98 93 97 95 97 88 87 94 75 69 68 74 71 69 71 67 69 74 77 76
90 90 85 87 91 95 98 81 78 95 88 98 97 99 95 98 99 95 98 96 99 96 99 97 95 97 97 97 93 92 90 86 86 70 69 69 76 77 78 75 74 77 78 76
86 82 94 99 95 84 88 97 99 98 97 98 97 90 97 96 100 100 99 98 96 98 92 98 98 99 93 90 90 89 87 85 87 86 86 80 81 81 80 83 82 79 77 79
94 98 97 96 83 94 93 94 94 98 99 97 93 94 96 96 99 99 100 98 99 98 98 99 97 94 91 83 83 86 89 88 89 91 92 89 84 83 80 82 82 83 83 90
91 93 94 98 97 96 94 96 93 97 88 96 98 96 91 95 94 100 98 96 99 97 98 97 96 95 92 84 82 86 90 89 90 84 84 85 81 83 85 85 88 92 94 95
93 89 93 89 93 98 97 95 94 96 98 99 100 99 99 95 97 98 96 99 99 98 97 96 96 91 87 83 78 83 83 84 85 90 90 88 92 89 91 96 97 94 97 97
94 94 98 94 98 97 97 96 99 100 100 100 99 99 98 98 93 96 89 97 97 98 98 95 98 92 89 84 85 85 96 94 93 95 94 95 95 98 96 96 96 95 96 98
88 88 99 97 96 99 98 99 98 98 100 100 99 98 95 85 86 85 89 94 99 98 97 98 99 97 96 98 97 97 97 96 96 96 96 96 96 95 96 96 96 93 93 92
87 92 94 98 96 98 98 98 99 99 99 99 96 98 90 86 97 90 100 98 98 95 100 99 97 100 100 99 97 97 97 96 96 96 95 95 96 95 96 96 96 96 95 96
90 98 98 98 98 98 99 99 98 97 99 100 92 96 87 92 96 97 98 97 97 100 99 99 98 98 98 98 96 96 95 95 95 95 95 95 95 91 84 87 85 82 91 96

GFSNW_sfc_rhum_072.txt.gz
RH
64 65 66 68 67 75 84 96 96 70 90 98 98 100 78 55 62 53 57 62 66 68 63 74 57 60 54 65 65 85 69 90 96 76 54 59 79 92 89 99 99 97 99 97
63 64 66 66 68 73 96 93 87 86 85 96 100 91 86 67 71 68 67 65 58 52 65 82 79 69 59 60 63 71 64 94 88 62 67 69 82 81 81 94 99 99 98 90
62 62 63 66 69 76 94 97 99 84 95 89 94 98 88 82 80 83 75 75 74 76 74 55 82 83 67 64 68 71 59 77 70 65 74 82 84 66 67 97 100 98 95 85
63 64 63 63 64 71 95 95 94 88 99 97 88 85 78 86 92 90 73 83 89 95 93 76 82 65 82 68 65 73 61 69 87 77 74 73 73 73 66 76 91 100 88 87
66 65 65 67 69 75 96 99 97 90 97 86 89 83 82 83 82 66 66 95 90 77 94 78 95 85 77 95 64 82 85 93 88 75 76 64 59 44 55 58 74 80 85 84
68 67 68 67 71 78 97 99 97 93 81 83 83 78 67 72 69 67 61 65 77 86 81 84 78 82 92 93 83 84 81 88 84 73 76 70 56 66 51 60 76 83 90 72
69 68 70 74 72 81 97 97 99 98 93 81 73 71 69 75 75 80 61 64 84 75 75 86 85 87 91 89 81 83 88 82 86 91 74 79 42 37 54 78 71 72 70 77
67 68 69 69 70 76 97 97 98 99 99 80 72 76 83 70 73 88 80 74 74 82 93 99 94 90 80 69 75 77 77 83 90 86 90 62 52 62 70 74 65 66 73 71
71 70 69 69 71 71 95 96 96 100 98 90 67 72 71 93 91 93 83 74 78 94 100 99 92 89 64 67 69 79 84 77 82 95 89 86 56 66 67 66 84 84 76 77
73 72 74 77 78 74 94 97 90 95 99 88 83 89 86 84 95 98 91 88 95 91 98 98 92 84 71 65 67 92 96 96 95 94 94 77 63 80 74 87 83 85 82 83
70 70 71 71 72 74 92 94 94 92 96 72 82 78 85 96 93 97 88 90 93 96 97 96 94 96 81 80 70 84 83 93 98 89 92 89 84 79 78 93 87 83 81 82
72 73 74 75 76 77 82 96 91 93 96 88 94 88 76 69 73 87 88 93 93 99 98 96 96 98 97 94 91 95 88 85 89 80 81 86 81 83 77 84 92 89 94 94
72 74 76 77 80 77 80 98 94 98 100 89 92 84 69 75 72 69 95 91 87 100 98 100 99 96 99 95 96 92 88 89 100 100 91 86 82 79 82 75 76 87 92 95
76 77 78 78 78 79 81 98 93 93 96 97 86 68 81 68 70 74 70 73 78 82 96 100 99 99 94 88 96 95 99 99 95 98 98 96 97 98 97 89 88 90 88 88
78 78 79 79 80 80 88 98 94 88 88 97 93 81 70 68 75 76 78 80 83 92 92 99 95 90 96 98 98 99 99 100 98 99 99 100 100 99 96 94 95 85 80 81
81 82 83 84 88 91 100 100 99 92 95 98 96 82 82 79 81 82 87 84 90 94 100 96 92 90 99 99 98 99 98 99 98 100 100 99 97 96 93 92 94 96 95 94
84 86 89 90 90 96 99 95 94 92 96 98 99 96 82 86 88 95 94 90 91 92 90 94 94 94 96 99 97 98 98 97 95 96 99 94 93 92 88 76 74 76 74 76
88 94 91 88 88 90 97 97 89 87 96 88 93 92 94 92 96 97 96 98 97 96 93 96 98 91 99 97 97 94 93 95 80 75 74 76 74 73 72 68 72 76 77 75
92 90 83 92 93 98 99 82 81 94 87 98 91 96 93 98 96 96 99 94 98 94 99 99 94 98 96 97 92 92 89 89 92 75 74 74 78 81 77 74 74 78 78 76
85 86 89 98 99 79 80 92 96 96 94 98 98 94 98 97 99 98 96 97 98 94 92 98 98 98 93 89 89 90 85 85 85 90 85 85 85 81 80 84 81 76 78 82
93 96 96 95 82 94 92 98 98 99 96 96 91 96 98 96 99 99 95 95 94 87 99 99 98 98 95 89 86 85 88 88 90 89 90 88 82 81 80 82 83 84 84 90
89 91 93 98 92 97 85 94 91 96 86 96 98 96 95 96 95 99 99 98 99 97 98 98 98 96 92 88 88 88 88 89 86 82 84 83 81 85 85 86 89 91 92 95
92 90 88 87 98 98 95 99 84 92 96 98 100 100 98 97 100 99 97 98 97 98 97 98 98 91 86 84 78 84 83 84 86 90 89 88 92 89 91 94 97 95 97 97
86 91 99 97 96 90 88 95 98 99 100 100 100 99 99 98 95 97 86 98 97 96 97 94 98 95 93 86 88 85 97 96 96 96 95 96 96 98 97 98 97 95 97 97
86 86 99 97 97 99 98 98 99 98 99 100 99 98 96 91 85 92 92 95 97 97 97 98 98 98 96 97 96 96 97 98 98 97 96 96 95 96 97 96 94 94 94 94
89 93 95 98 97 98 99 99 99 99 100 99 96 98 92 97 96 91 97 96 98 94 99 99 98 100 100 100 98 98 97 96 97 96 96 96 96 96 98 96 96 94 90 91
92 98 98 99 98 99 99 98 98 98 99 100 96 91 90 87 96 97 98 97 97 99 99 100 98 98 99 98 97 96 96 96 96 96 96 96 96 92 84 89 91 85 90 95

GFSNW_sfc_rhum_075.txt.gz
RH
66 66 66 68 69 73 80 93 89 68 82 90 93 83 70 58 56 45 48 57 56 60 55 70 60 56 54 59 69 70 74 80 68 53 46 51 58 65 85 95 90 92 89 79
66 65 66 69 71 71 94 94 84 77 81 93 93 76 81 71 67 62 63 65 58 56 56 67 62 68 60 66 73 89 70 97 92 73 66 63 70 74 94 95 97 95 93 82
65 64 64 68 70 76 95 96 93 72 92 71 86 94 80 70 74 87 95 78 66 76 70 61 60 71 67 73 81 81 71 66 92 68 57 61 72 55 56 91 97 96 96 84
61 63 64 65 69 75 94 93 91 80 97 91 82 82 76 79 89 80 69 96 94 91 92 70 67 55 59 68 75 91 88 76 82 62 61 64 56 54 45 50 70 90 63 71
65 64 65 66 68 76 95 98 93 83 87 79 76 75 62 69 70 60 62 90 66 67 91 79 90 82 71 78 80 96 96 80 78 61 66 53 50 38 42 52 49 56 66 72
68 66 66 67 71 75 95 97 90 90 80 78 72 67 61 65 66 62 59 64 68 66 88 86 90 82 87 92 98 100 90 89 69 57 61 51 41 45 38 48 52 60 73 61
69 69 70 70 72 78 91 96 96 97 88 76 64 63 61 68 67 76 60 68 81 65 67 73 78 86 85 83 90 83 96 68 72 69 61 53 30 34 42 62 60 53 55 70
69 68 69 69 75 80 95 96 96 95 96 69 65 65 66 69 63 72 70 70 60 73 87 88 90 86 87 84 75 72 85 72 73 71 63 47 38 56 62 74 60 76 74 75
70 71 69 70 72 75 94 96 94 97 95 81 64 67 62 73 80 81 75 64 72 85 98 98 91 79 52 66 76 75 75 69 68 86 76 66 41 62 56 65 51 77 77 74
72 75 74 72 71 72 94 96 89 93 97 79 77 81 76 72 88 92 78 78 84 84 95 97 96 73 66 58 64 91 88 86 81 77 76 61 70 70 69 46 62 81 82 84
69 68 68 70 73 72 92 92 94 91 95 74 76 78 77 89 86 87 80 83 85 89 92 94 95 89 81 74 63 78 68 83 88 75 79 77 79 72 72 91 86 84 83 90
72 72 72 74 73 74 83 96 89 88 94 78 82 77 70 68 67 78 82 87 88 91 96 85 89 91 87 86 69 79 78 78 78 68 67 84 78 88 83 85 90 91 91 89
73 72 72 73 74 75 81 98 94 98 100 89 91 75 64 76 76 66 87 83 79 100 99 100 99 95 96 90 83 81 74 93 100 100 96 93 92 85 87 89 95 94 89 88
71 70 72 74 76 78 79 97 91 93 98 96 78 66 74 66 72 74 67 63 77 79 87 92 98 94 84 83 93 92 98 98 96 100 99 98 98 98 97 94 93 93 96 93
70 72 75 76 76 76 87 95 93 82 86 92 84 75 69 68 76 80 79 81 82 87 86 93 92 84 94 90 96 94 99 100 98 99 99 96 96 96 94 92 94 94 84 85
74 75 75 76 78 79 98 100 99 93 94 99 95 80 74 71 77 79 84 85 87 89 92 97 88 82 97 98 94 97 98 96 99 100 98 95 96 94 92 89 90 92 89 89
76 77 80 80 84 96 100 97 90 93 97 99 95 84 75 79 83 90 91 86 90 90 89 88 83 80 82 100 95 95 97 96 95 99 96 92 94 91 86 76 72 72 69 69
78 81 81 87 89 92 98 96 90 93 99 94 91 89 85 84 92 95 93 94 92 92 89 91 94 88 95 97 96 95 94 96 92 93 87 83 78 69 69 65 64 68 71 70
81 90 86 93 94 99 98 88 88 94 82 93 85 92 91 93 90 94 99 91 98 87 95 94 89 91 96 94 93 92 90 90 91 78 75 74 78 78 72 67 66 69 72 71
89 90 90 99 99 86 92 97 97 90 88 94 91 85 96 92 98 94 94 97 90 86 86 93 98 95 89 87 86 83 80 80 78 85 84 79 78 77 76 75 69 68 72 75
97 98 98 97 81 91 89 95 94 95 90 87 85 91 95 92 98 97 91 93 86 84 90 87 94 90 88 83 81 80 80 77 82 82 84 83 76 77 76 79 77 76 76 83
88 96 97 98 89 91 85 92 91 92 82 94 97 91 93 96 91 99 98 95 95 95 95 95 93 90 87 82 82 82 81 80 80 75 78 80 79 79 81 83 86 88 88 92
88 85 90 89 94 99 92 98 82 89 86 94 99 100 99 97 99 100 99 97 95 98 96 93 90 85 84 80 77 80 78 80 81 86 84 84 87 84 85 90 92 91 92 93
86 90 99 90 99 94 91 92 93 93 100 100 100 100 100 100 98 97 94 97 97 95 96 93 89 88 86 85 81 80 92 91 90 93 91 93 93 96 94 94 93 93 94 92
85 85 98 99 95 98 98 96 95 95 98 100 98 95 94 90 86 89 87 91 94 92 93 93 91 92 91 92 92 95 96 96 96 94 94 95 94 94 94 94 93 92 92 92
85 92 97 96 95 97 98 98 99 96 99 99 92 92 91 97 91 86 91 90 92 91 95 93 91 96 97 97 96 97 96 96 96 94 93 93 94 93 94 91 88 89 86 88
91 99 97 97 98 98 98 98 96 95 97 98 90 90 92 84 90 92 91 94 93 96 96 93 93 95 98 97 97 96 95 94 94 93 92 92 89 86 80 85 86 80 84 89

GFSNW_sfc_rhum_078.txt.gz
RH
68 68 68 70 69 70 56 61 75 54 59 59 57 46 45 52 40 38 39 38 39 35 32 27 28 28 32 52 52 68 41 52 49 36 28 32 33 43 54 69 70 85 94 65
68 69 69 69 69 69 59 56 44 50 61 84 56 48 51 52 50 50 48 47 42 38 41 44 32 29 23 53 75 95 93 73 61 46 51 43 47 49 85 88 99 82 90 78
68 68 67 69 69 73 62 67 86 49 48 43 66 71 51 50 55 69 57 59 59 60 52 45 42 36 37 50 45 80 96 71 57 42 82 48 58 47 47 59 82 61 54 61
65 65 65 67 68 72 61 76 78 60 82 62 51 56 53 54 59 57 46 90 70 85 72 54 51 38 32 32 56 76 96 91 57 57 67 58 38 35 34 44 47 59 33 31
62 65 66 67 69 70 59 96 65 50 50 55 54 56 44 46 50 47 44 74 48 43 61 69 91 69 56 53 62 76 98 91 57 62 60 44 42 32 26 31 37 36 36 40
66 66 67 69 70 64 60 86 74 56 62 50 48 46 44 50 46 44 45 46 53 53 58 67 57 55 56 65 78 100 99 100 66 60 47 39 41 30 30 32 30 44 55 45
68 68 68 70 72 65 51 70 80 73 63 40 42 44 42 46 48 56 46 42 64 48 38 49 50 53 53 52 54 77 98 97 68 52 42 45 35 26 31 39 37 46 43 61
70 71 71 71 72 74 57 62 61 68 75 39 42 46 45 44 48 50 46 42 43 44 62 74 51 52 60 55 50 61 83 98 78 54 45 31 24 44 44 48 44 55 59 56
75 72 71 71 75 76 62 61 60 68 77 53 41 48 44 50 48 51 51 43 46 64 78 83 81 75 42 37 46 54 69 64 89 57 50 45 50 45 40 39 44 58 62 70
75 72 71 71 72 77 68 66 62 68 99 49 57 54 55 50 59 59 54 62 57 62 82 88 90 84 40 38 44 72 71 67 71 57 52 40 50 48 46 47 73 68 70 81
75 73 76 74 74 76 72 62 68 58 79 50 53 52 55 56 62 69 59 65 69 69 79 78 91 92 62 53 43 51 52 61 68 57 63 59 60 55 61 86 83 76 79 84
78 72 69 70 72 77 73 69 65 62 78 55 62 54 48 46 47 58 56 72 84 75 83 72 80 89 73 64 57 51 76 78 72 56 72 73 74 78 85 83 90 90 86 81
76 73 72 72 74 76 77 69 71 86 100 67 60 56 47 48 50 46 74 55 57 92 98 96 90 92 76 82 75 66 66 72 86 94 96 96 92 80 85 89 91 84 86 84
76 74 72 72 76 74 78 88 80 76 85 84 55 45 54 44 48 52 54 52 49 61 68 81 87 84 65 79 81 79 87 74 88 100 100 98 93 91 79 86 87 90 96 94
75 71 69 70 73 75 85 94 79 60 59 78 63 54 47 47 52 57 60 66 66 64 75 84 79 61 74 86 82 87 88 100 96 93 97 96 96 91 84 86 90 96 83 84
71 68 69 72 78 76 89 100 98 89 87 99 86 55 57 52 61 59 64 68 72 72 77 78 74 56 72 83 92 93 92 89 99 98 99 97 95 89 81 81 86 90 85 76
71 71 74 74 75 92 99 93 81 88 97 100 92 74 58 63 62 66 69 68 72 68 73 73 61 55 61 92 93 94 95 98 97 99 95 90 86 82 74 63 60 60 56 56
73 74 75 79 82 93 99 96 91 95 99 99 94 73 70 66 73 77 70 75 75 74 69 68 66 58 71 90 98 95 94 97 91 93 89 80 73 64 59 52 52 55 56 57
74 79 87 94 97 100 98 90 89 95 79 85 75 77 84 82 76 78 84 74 89 63 84 72 64 72 87 95 92 92 91 91 91 82 67 61 64 61 57 54 53 56 58 58
82 92 99 100 98 89 88 96 98 88 71 70 76 58 85 80 84 87 86 93 77 80 68 70 83 87 83 79 76 76 74 79 83 79 77 68 66 64 62 60 57 57 61 62
98 99 99 95 84 78 68 92 81 79 76 61 67 70 76 71 92 89 75 80 76 72 68 77 82 85 82 69 70 68 66 63 67 70 72 66 64 66 65 67 65 65 66 74
87 96 94 90 82 77 80 76 72 73 58 72 81 76 70 74 68 87 84 78 83 86 81 85 82 88 76 70 71 68 66 68 70 66 69 70 68 69 71 73 77 81 82 86
80 80 94 81 81 91 84 84 76 77 72 87 93 96 88 82 84 98 99 100 97 92 98 86 83 75 70 66 62 67 66 68 71 76 76 74 77 76 78 84 87 85 88 89
79 79 95 90 93 87 83 81 88 92 97 95 100 100 100 100 100 100 100 100 95 97 92 83 78 76 77 73 69 68 84 84 83 85 85 88 88 91 89 88 88 88 90 85
74 70 80 93 93 98 100 100 91 92 100 100 100 100 99 100 100 95 91 98 93 87 90 87 81 84 85 86 86 89 90 90 90 88 89 90 89 89 90 89 89 86 85 82
74 82 95 92 89 93 99 100 95 92 99 100 97 97 100 94 87 89 81 81 80 93 89 86 84 90 89 90 89 89 88 88 89 89 88 88 88 87 87 83 82 82 80 81
81 97 98 99 100 94 97 98 94 89 99 100 86 88 86 78 83 84 80 96 94 92 90 84 85 88 91 90 90 90 88 87 86 85 83 84 83 82 74 76 77 69 75 80

GFSNW_sfc_rhum_081.txt.gz
RH
66 68 66 67 68 69 70 45 68 42 45 45 34 34 28 46 28 29 29 30 29 29 27 28 27 24 17 21 37 60 58 71 39 24 20 20 24 36 44 70 52 53 61 67
68 68 67 67 68 68 39 34 35 36 52 88 43 35 33 34 34 34 33 33 32 32 36 39 27 25 20 18 24 79 84 67 56 38 29 23 29 28 33 55 68 66 75 77
67 67 67 67 68 69 54 46 86 39 32 31 52 52 40 40 41 44 40 41 42 44 41 33 39 36 25 25 30 66 66 67 67 52 50 59 65 31 38 53 74 58 54 37
68 66 65 66 67 69 56 56 71 45 75 47 41 45 39 40 48 42 33 65 59 41 51 42 40 40 43 37 30 35 65 72 53 46 31 40 62 78 39 48 44 50 33 26
66 65 65 64 66 70 49 93 48 38 38 43 43 48 38 31 36 35 37 53 38 34 43 38 53 52 50 49 38 58 75 75 57 71 52 42 52 53 29 26 23 24 25 27
64 65 66 66 66 69 43 52 47 44 48 40 38 38 36 39 36 34 31 34 39 41 39 37 37 38 41 42 51 60 79 82 78 69 56 49 66 44 30 22 23 26 43 45
67 67 68 68 69 65 41 45 40 58 54 30 32 33 33 35 34 42 33 33 44 34 30 35 36 37 38 42 42 40 91 82 87 88 56 69 34 22 20 24 25 34 38 56
69 68 69 70 70 70 51 40 42 51 68 29 31 36 35 32 34 42 36 32 32 36 44 59 49 42 40 42 38 37 43 89 90 95 46 37 24 33 33 38 64 47 48 44
75 73 73 71 72 72 57 43 42 47 77 42 29 36 34 38 35 38 36 33 38 48 80 74 76 64 50 44 30 28 46 75 92 83 60 53 53 34 33 30 54 56 53 56
75 73 73 72 73 75 56 52 55 50 97 37 40 43 48 39 48 46 40 46 47 48 76 87 86 81 47 49 42 62 70 74 82 88 51 46 47 36 32 45 88 63 63 69
76 76 74 72 72 75 63 62 50 57 73 42 42 39 43 42 45 60 53 56 67 64 75 71 86 93 60 51 35 48 50 52 59 54 57 57 58 44 64 88 74 71 69 74
78 75 73 72 72 74 76 75 50 50 72 55 48 46 43 40 37 43 45 56 62 66 75 64 82 92 71 62 62 45 78 86 94 88 96 82 71 78 81 77 85 82 79 76
79 75 71 69 70 75 73 67 63 67 82 60 47 44 38 38 43 40 58 44 44 71 87 93 77 92 69 78 89 74 61 50 82 85 95 93 86 76 78 79 82 76 72 76
78 75 72 71 72 74 76 63 65 57 64 76 52 35 42 35 38 41 45 49 48 48 48 75 81 80 59 74 70 78 69 60 72 98 88 80 78 93 92 84 81 86 87 84
72 73 72 71 71 74 78 81 70 53 58 82 66 44 34 35 40 44 45 50 54 53 69 79 82 56 80 67 63 79 72 98 92 96 86 92 98 95 94 92 86 94 79 78
74 77 70 69 70 74 82 100 93 83 79 90 76 48 49 41 44 45 46 50 60 68 74 77 60 57 62 73 90 84 81 77 96 99 100 99 98 96 88 85 80 91 85 76
74 71 68 68 72 80 96 90 90 84 95 100 90 55 48 45 47 52 51 59 65 64 70 58 59 53 52 76 91 93 84 91 100 99 97 93 92 89 75 58 56 53 51 53
72 70 70 75 75 83 94 89 85 94 99 99 92 69 63 52 64 67 55 74 72 74 64 59 62 53 56 85 96 86 94 99 95 96 92 79 75 58 51 48 47 50 53 54
72 72 74 89 96 99 95 85 90 96 96 92 74 76 86 67 67 67 72 64 82 47 72 63 55 69 81 90 86 87 90 93 94 91 69 54 55 51 48 47 48 51 55 57
73 91 99 100 99 89 89 97 100 99 90 71 73 46 74 64 80 85 74 72 69 77 67 58 77 80 78 70 72 67 71 89 88 77 67 62 61 59 57 55 52 53 57 61
98 100 100 97 84 94 94 91 89 75 78 56 55 55 66 56 88 81 62 74 69 66 62 70 77 84 81 64 62 60 59 56 59 63 66 64 60 61 60 62 62 64 70 79
95 90 94 97 94 78 80 74 62 61 50 53 65 59 52 60 56 77 69 66 68 77 72 80 79 82 72 64 64 62 60 61 63 61 64 65 65 65 68 70 75 80 80 84
88 89 88 78 78 94 89 79 71 75 63 77 87 88 70 64 60 88 83 98 86 80 96 86 84 70 62 59 58 61 59 62 64 69 70 69 74 75 75 81 84 82 86 86
85 86 98 91 91 83 76 74 87 93 93 84 88 93 95 90 100 100 100 100 98 93 92 91 76 72 71 67 61 63 78 78 78 82 82 84 85 87 85 85 84 85 87 82
86 61 86 94 94 98 100 100 90 85 99 100 100 95 95 97 100 99 97 100 96 82 93 89 84 85 79 80 81 84 85 85 86 85 86 86 85 86 87 85 84 82 81 78
71 79 94 94 91 91 99 100 100 87 100 100 100 100 100 99 86 89 87 75 80 93 90 88 81 84 84 84 84 84 84 84 85 85 84 84 83 83 84 80 80 79 78 78
85 96 98 99 100 98 100 99 93 84 98 100 95 99 98 77 78 74 74 93 94 91 90 86 82 86 88 87 86 86 83 83 82 82 79 80 78 76 68 69 71 62 70 77

GFSNW_sfc_rhum_084.txt.gz
RH
64 65 66 66 68 68 68 55 74 45 49 60 41 37 25 37 23 24 25 26 25 25 25 28 26 24 20 16 17 21 39 87 74 42 23 24 25 29 40 71 58 56 63 68
68 68 67 66 68 66 60 47 40 36 56 90 45 32 27 27 27 29 29 29 27 29 32 35 26 25 22 22 22 34 41 60 66 43 28 22 34 31 48 58 67 72 87 70
68 67 67 66 65 68 64 52 86 41 39 32 47 42 34 35 33 35 33 31 33 36 36 30 32 30 26 30 35 55 54 48 61 72 58 58 72 66 51 44 81 63 59 58
67 64 64 66 65 69 66 62 76 47 75 45 40 40 34 35 40 35 31 47 47 49 43 36 34 30 32 29 36 34 45 58 47 50 40 38 54 82 59 60 72 63 45 35
67 64 64 64 66 68 63 94 59 40 40 41 40 44 36 29 30 29 38 48 35 31 38 34 46 37 38 43 35 42 69 67 48 50 38 37 51 43 56 66 83 71 61 37
65 64 65 65 66 66 48 45 45 54 47 41 40 41 33 32 31 30 26 28 33 36 34 31 33 34 38 39 45 56 62 90 75 62 38 45 69 40 35 40 52 37 50 69
62 65 66 66 67 67 60 44 40 59 58 34 32 30 29 30 29 36 29 29 38 31 29 33 33 34 34 34 37 39 64 68 73 78 61 78 39 23 24 28 51 65 47 60
66 67 68 67 69 68 59 38 50 51 74 27 29 32 32 29 29 35 34 28 28 33 40 54 51 47 40 37 37 39 42 60 84 86 76 72 32 27 29 34 91 58 54 53
74 71 70 70 71 70 61 48 48 53 83 39 26 30 30 37 38 40 37 28 33 41 67 72 71 63 51 56 71 31 32 46 83 74 94 96 97 52 30 29 94 68 58 67
77 73 73 70 71 71 63 56 57 51 97 36 34 54 64 37 46 44 44 44 42 46 74 83 84 68 48 69 61 45 53 71 82 87 95 98 80 58 33 48 97 71 66 73
77 76 74 72 72 72 64 63 53 61 68 47 36 36 39 41 42 59 52 53 66 60 74 80 74 88 84 86 53 48 57 71 75 76 95 94 71 60 79 94 82 72 71 76
78 78 75 73 71 74 71 71 56 50 55 60 48 45 41 41 40 46 44 53 56 73 80 67 75 80 97 94 83 58 92 84 98 93 98 92 76 86 81 76 85 81 78 76
78 77 73 71 71 72 72 92 58 53 77 64 50 44 40 36 40 40 55 50 56 62 70 95 78 85 78 93 94 90 74 58 94 98 91 84 84 77 79 80 81 75 76 81
78 77 73 70 69 71 72 74 68 54 61 80 59 33 37 32 36 39 43 47 50 49 46 74 77 80 66 81 79 92 78 66 84 97 96 87 78 96 82 85 81 90 88 86
76 74 72 71 71 71 65 61 69 63 70 93 70 49 33 32 38 41 41 46 49 50 65 74 75 53 83 74 76 84 83 97 92 96 95 94 98 94 81 89 97 98 80 86
77 70 71 70 70 74 79 100 70 59 69 90 86 47 44 39 39 42 44 47 54 61 71 73 54 48 81 74 88 98 80 82 84 98 99 96 98 99 93 88 88 91 86 88
78 74 72 68 69 61 91 94 95 86 89 100 84 58 41 38 40 51 57 50 54 58 68 62 57 50 60 78 90 84 81 82 97 100 100 97 96 93 91 75 66 56 51 54
76 71 68 68 72 73 84 78 87 92 100 99 89 67 62 49 58 69 69 66 69 71 66 61 62 52 58 83 87 76 80 91 95 100 96 89 81 61 57 51 49 52 56 58
72 70 69 76 81 95 90 81 89 95 98 95 74 74 81 61 65 67 71 66 85 56 84 67 52 75 82 91 82 80 88 95 97 95 92 70 61 52 48 47 50 57 63 64
72 76 90 100 98 89 88 98 100 100 99 94 85 52 78 61 74 79 74 76 73 76 68 56 78 83 75 69 68 66 68 80 93 98 91 73 63 61 61 61 60 63 66 70
81 99 100 97 88 95 99 99 95 80 88 62 57 59 70 50 85 81 60 74 73 76 75 70 75 86 82 63 63 61 60 58 62 68 72 71 68 68 67 73 73 72 73 80
82 97 93 98 99 100 91 81 66 72 57 54 68 60 53 67 58 83 77 69 68 70 73 74 74 90 69 64 65 65 65 66 68 65 70 69 68 68 73 75 78 83 86 90
95 97 96 99 83 94 82 81 68 71 60 71 80 84 69 64 59 93 80 87 80 83 95 91 90 76 66 63 63 64 60 64 67 76 76 76 81 76 78 86 92 86 89 89
99 94 96 93 88 78 72 75 90 89 91 80 89 90 91 91 98 94 94 96 94 94 84 94 80 75 77 68 64 70 84 86 83 86 85 87 89 92 91 91 92 91 92 92
99 78 86 85 90 96 100 100 98 86 96 89 97 91 84 90 98 95 92 96 87 88 95 93 91 86 82 85 84 87 89 92 90 88 89 90 90 90 91 91 89 88 89 89
80 80 89 92 94 96 97 100 100 83 100 100 99 100 98 97 83 97 87 81 84 96 95 93 83 87 89 90 87 88 90 90 90 88 87 87 91 89 87 88 88 90 88 90
88 93 99 100 100 100 100 100 95 86 100 100 99 100 99 90 83 76 72 95 95 95 93 87 86 86 91 90 90 90 88 88 87 88 85 84 84 84 73 74 74 66 75 88

GFSNW_sfc_rhum_087.txt.gz
RH
66 67 66 66 67 67 72 85 94 62 63 90 88 69 32 37 24 24 26 30 27 30 34 35 33 29 28 37 36 43 57 74 70 53 37 32 44 52 57 74 72 76 83 92
70 69 68 64 67 66 79 85 69 57 71 97 84 40 31 27 27 31 29 31 36 39 40 46 37 37 33 38 42 68 59 74 88 50 41 51 68 72 77 89 84 96 92 84
68 68 67 63 64 67 82 90 95 60 70 55 68 56 44 40 35 42 34 34 42 46 46 39 46 39 35 41 39 59 57 68 74 82 66 53 88 70 57 86 99 97 91 66
67 65 64 65 66 68 84 94 91 67 92 74 58 50 42 47 50 41 38 61 56 61 67 50 48 47 42 38 44 49 65 79 64 54 44 42 46 70 52 71 85 98 86 76
67 64 64 65 66 68 88 98 93 66 63 51 54 58 48 32 34 32 51 59 45 41 55 49 59 54 56 58 50 61 78 87 82 70 56 53 44 38 40 50 72 78 83 94
66 64 64 67 68 72 82 66 68 80 61 54 62 56 41 38 40 39 30 38 46 50 50 53 50 49 50 52 57 64 69 92 88 69 57 62 70 53 46 55 62 68 87 94
63 64 67 69 70 72 90 79 78 91 79 56 51 36 35 35 37 48 38 40 51 51 42 46 47 46 44 45 46 45 67 79 87 90 75 94 46 42 48 80 85 84 84 86
65 67 68 70 71 69 86 80 77 87 94 53 36 39 39 37 41 45 41 40 47 49 51 76 79 70 63 56 48 52 50 74 91 92 97 72 53 91 95 78 98 68 72 72
74 72 70 71 72 71 84 81 83 88 98 76 32 44 38 56 66 66 57 49 46 55 95 95 95 87 66 73 67 54 71 76 86 90 96 95 99 94 76 83 97 74 74 80
78 76 73 70 72 72 84 83 75 84 99 63 59 73 79 57 71 71 71 65 68 64 94 97 97 96 61 82 95 73 82 84 83 88 94 91 99 85 66 85 98 76 74 81
79 79 76 72 74 74 83 91 74 87 93 74 61 51 57 64 71 92 72 78 80 89 91 96 96 98 92 94 99 83 75 83 90 84 95 96 83 74 86 99 82 75 77 81
80 81 78 74 72 74 76 91 68 65 83 81 65 62 59 61 61 73 72 71 79 96 95 92 95 92 96 95 96 93 98 100 99 96 98 99 89 95 96 85 90 84 81 79
79 80 75 73 71 72 78 98 90 82 96 92 83 72 58 48 52 53 81 85 73 80 86 98 97 96 86 97 98 94 81 69 99 98 95 93 96 95 94 96 92 83 81 86
79 79 78 75 71 72 73 94 93 91 84 96 81 45 54 46 51 58 58 64 68 71 76 94 96 96 79 97 93 95 86 78 95 99 99 93 92 98 99 96 91 94 90 85
79 78 74 71 70 72 80 93 90 86 89 97 92 64 51 44 50 52 56 61 68 79 88 95 94 80 94 97 96 96 90 98 94 98 96 95 99 99 98 94 98 92 86 90
79 75 72 72 73 74 96 98 94 89 92 98 98 73 60 53 53 56 62 67 74 81 90 94 83 65 94 98 99 96 82 85 92 99 96 97 100 100 93 90 92 92 90 88
80 78 75 71 73 91 95 98 97 89 90 97 94 89 61 54 57 69 77 69 83 76 88 91 82 74 85 97 98 94 84 88 95 98 96 96 96 97 79 70 60 61 61 67
79 78 73 74 73 78 95 97 88 92 99 98 91 92 85 63 81 86 94 90 83 90 91 87 86 82 80 97 96 88 81 92 95 99 94 91 83 74 73 61 57 65 71 74
78 75 74 89 92 94 94 87 92 98 97 94 96 96 93 86 84 87 92 88 99 85 96 90 82 95 99 93 90 87 85 99 98 98 78 66 61 58 60 62 64 72 75 78
77 84 92 96 97 87 87 95 98 96 99 99 93 84 92 87 96 96 97 95 96 96 92 85 95 98 88 80 78 77 85 98 79 98 94 84 73 76 82 83 76 80 87 81
92 94 96 96 86 96 98 99 99 99 98 95 90 86 93 83 95 96 86 96 93 94 92 92 98 98 94 73 77 73 74 76 84 83 83 83 79 83 82 83 81 82 84 93
89 94 96 96 99 99 99 97 93 97 81 86 91 86 84 85 80 95 95 90 92 89 93 93 95 97 85 81 83 79 80 82 86 82 88 85 82 81 82 87 92 95 95 96
94 98 96 99 99 99 96 97 91 92 90 84 90 91 92 84 89 97 98 95 94 96 99 98 98 86 81 80 76 80 79 84 86 88 88 90 92 87 91 96 97 95 96 97
99 99 100 98 98 94 93 94 95 95 97 95 97 96 96 98 97 93 93 91 96 98 98 97 97 92 94 84 81 90 97 96 95 96 95 95 95 97 96 97 96 95 97 98
100 98 98 96 95 98 99 97 94 97 95 98 98 97 95 94 92 93 96 98 97 97 98 99 96 95 95 96 95 96 97 96 97 97 96 97 97 96 98 97 97 96 97 96
100 96 88 97 92 97 89 93 94 98 99 99 95 98 95 94 97 99 96 98 97 99 99 97 94 97 96 96 95 96 96 96 97 96 96 97 97 96 97 97 96 96 94 96
94 98 97 99 99 99 97 92 99 98 97 97 90 97 92 99 96 91 98 99 99 98 98 96 94 95 97 97 97 96 95 96 96 97 96 96 94 93 91 93 92 86 88 94

GFSNW_sfc_rhum_090.txt.gz
RH
71 68 68 68 66 65 71 89 97 66 68 96 95 69 37 36 27 28 30 34 37 42 40 39 37 38 43 43 47 56 64 71 80 50 38 34 38 68 87 99 91 84 84 72
69 68 66 68 66 66 83 91 72 58 76 94 80 44 37 36 32 36 36 38 41 42 44 47 42 40 40 42 43 60 54 70 78 40 41 56 64 53 60 81 95 98 96 82
71 69 66 65 64 66 83 93 91 67 76 69 68 61 49 44 40 42 39 48 51 50 49 44 50 49 45 50 48 60 57 69 65 75 63 60 65 47 43 72 98 94 85 92
68 66 65 65 64 66 88 96 91 70 90 74 60 54 51 53 54 46 42 56 60 59 66 55 54 56 55 48 48 58 66 78 72 67 62 58 60 59 48 50 60 95 83 91
67 65 65 65 67 70 86 95 85 75 61 55 56 62 50 44 38 48 52 58 50 46 59 58 67 66 64 66 56 66 76 82 69 54 52 53 60 61 51 45 42 50 61 83
65 64 67 69 70 73 83 79 73 77 64 55 65 54 46 45 44 43 41 47 49 52 62 54 53 55 57 56 62 69 73 84 92 68 60 65 71 70 53 42 53 72 85 94
65 67 68 70 70 76 90 87 81 91 78 58 55 42 42 46 44 49 42 42 53 56 47 51 55 57 52 53 55 53 82 83 88 89 76 97 62 79 66 89 96 96 97 94
66 69 70 72 71 72 84 88 81 88 95 58 43 45 45 41 46 46 44 52 51 52 59 78 82 76 63 59 62 60 56 71 96 97 91 63 53 93 97 96 98 96 97 85
72 72 72 72 73 72 88 87 89 92 92 76 50 50 46 62 66 73 68 58 60 61 94 95 96 89 70 71 69 70 70 66 93 93 96 98 97 84 84 100 97 98 85 83
76 74 73 74 74 71 85 86 85 87 94 75 62 78 71 63 74 77 75 66 67 71 97 98 98 96 74 91 95 88 92 95 92 93 94 89 96 95 97 96 99 83 80 82
80 77 74 74 74 74 85 91 81 84 95 86 70 66 73 73 80 91 75 79 82 93 95 98 98 98 92 95 98 95 91 95 94 92 96 96 86 79 94 100 98 79 80 81
83 79 76 75 75 74 82 94 82 77 85 82 71 67 64 60 61 76 77 76 89 96 94 93 96 97 97 93 97 93 97 99 98 96 98 100 98 99 99 98 94 92 88 88
83 82 76 74 73 76 85 96 97 90 96 85 82 71 62 53 55 61 80 91 78 83 87 97 98 99 93 97 98 93 78 93 98 97 96 94 98 98 96 95 90 86 84 89
81 82 78 75 73 72 79 95 97 93 92 95 82 56 63 55 55 59 63 68 72 77 86 96 97 97 82 97 99 95 86 83 95 97 96 94 93 97 96 91 90 90 90 87
79 77 76 72 74 74 90 97 97 94 90 97 91 71 58 51 62 63 64 66 73 86 89 96 94 86 93 99 92 94 90 96 97 100 90 95 99 95 93 96 91 86 80 88
82 76 73 75 75 84 93 96 95 97 96 96 95 80 66 63 61 63 66 71 82 87 92 95 91 75 89 99 99 94 86 90 98 100 97 98 100 96 88 93 94 92 91 87
81 80 75 74 77 96 97 95 96 90 94 97 95 90 73 62 62 78 87 74 84 79 90 94 90 80 87 99 97 94 85 94 96 100 94 96 95 98 83 75 72 77 78 76
81 80 77 76 80 84 93 95 88 90 98 87 97 94 88 67 83 85 95 93 87 90 88 93 93 87 91 97 98 87 86 92 96 98 94 81 80 84 69 64 70 79 84 85
79 78 79 89 93 96 98 87 86 98 93 89 97 96 94 88 91 93 94 92 99 86 97 94 92 97 100 94 94 88 91 97 95 99 84 71 74 69 74 68 75 83 86 85
78 87 91 92 95 86 77 84 89 97 96 91 86 90 94 89 98 97 97 98 97 98 94 92 96 98 98 87 84 86 97 96 99 98 95 86 89 82 81 82 82 81 83 85
95 92 93 99 82 90 96 97 91 91 91 98 95 94 93 87 94 96 92 96 97 96 95 94 98 95 95 86 86 85 95 96 96 95 95 93 84 84 84 85 82 83 86 93
89 94 96 98 96 96 88 95 97 99 89 94 95 91 88 86 89 95 96 92 97 94 95 96 98 98 96 91 89 88 89 90 90 84 88 84 81 84 86 89 92 96 94 95
94 97 94 96 95 98 97 100 96 96 93 90 93 91 93 89 93 96 98 98 96 95 100 98 98 95 92 86 86 92 89 87 87 91 90 89 93 88 91 96 98 94 96 98
94 92 99 94 100 97 95 95 94 92 98 97 97 97 94 99 96 98 93 90 98 100 99 97 99 94 92 88 88 87 98 96 96 96 95 96 96 100 97 97 97 96 98 100
98 99 98 100 94 95 99 96 93 99 96 98 95 96 95 97 91 95 93 98 98 97 98 99 99 97 96 97 96 97 98 98 98 98 97 99 97 97 100 100 98 97 98 98
99 99 98 97 94 99 97 94 94 99 99 96 95 90 93 91 97 98 97 98 97 96 100 98 94 97 98 98 96 96 97 96 97 97 98 97 97 96 97 99 98 98 96 98
98 94 98 97 98 99 98 96 98 99 98 96 86 94 87 95 99 95 98 93 98 99 98 97 94 96 97 97 97 96 95 96 97 98 98 98 96 96 92 91 91 85 88 97

GFSNW_sfc_rhum_093.txt.gz
RH
78 71 70 68 69 67 77 94 98 77 73 98 96 93 47 44 33 33 34 42 43 43 42 42 41 46 46 43 47 52 57 71 78 50 39 41 46 82 83 97 93 86 96 88
71 69 69 69 67 65 92 94 83 68 78 99 88 48 46 46 39 44 40 42 44 44 49 53 45 46 50 46 49 56 52 68 69 37 45 49 56 51 51 63 85 93 94 83
70 69 69 68 67 66 86 95 92 73 86 79 71 62 53 48 44 45 46 52 50 51 54 47 49 54 51 52 57 58 55 66 60 69 54 65 70 60 56 67 96 92 85 76
70 68 66 66 65 65 86 97 89 68 91 77 62 57 55 53 56 48 47 60 62 62 65 55 61 60 57 50 49 67 67 73 73 68 66 57 57 58 55 64 59 77 60 69
66 66 66 65 66 70 92 95 84 74 66 57 56 62 60 52 46 53 53 62 51 50 61 57 62 63 61 61 58 66 77 80 68 63 48 46 59 57 56 57 54 54 46 50
65 66 67 68 70 74 82 82 76 73 68 61 59 57 51 50 50 48 43 46 50 57 61 57 54 55 56 53 64 70 74 85 85 66 60 67 68 68 89 56 47 58 65 68
66 68 68 70 72 74 83 85 84 87 78 58 57 47 44 46 47 50 43 44 56 56 49 56 62 63 62 65 60 60 83 81 86 90 71 95 62 86 98 88 90 94 94 96
68 70 70 72 74 73 84 90 80 84 92 56 46 47 50 47 47 47 63 55 52 54 68 76 76 74 64 65 69 69 61 78 97 96 97 68 60 94 98 98 99 100 100 96
72 73 72 73 73 73 84 90 91 87 87 76 63 57 52 65 67 78 67 60 63 69 94 94 93 89 69 71 80 70 72 67 82 96 99 97 94 84 77 100 96 96 95 92
74 73 73 73 75 75 80 82 88 79 94 78 69 69 70 69 76 83 75 72 72 74 97 99 99 96 76 91 99 93 90 94 90 93 97 89 95 94 98 98 98 94 86 86
76 74 74 73 75 78 77 85 86 80 94 82 71 66 68 75 78 90 75 80 82 91 94 95 97 98 85 98 95 96 95 94 93 88 96 96 90 85 94 99 97 93 86 91
79 76 74 72 76 80 77 92 88 80 82 79 76 66 65 60 61 78 85 76 91 96 94 96 96 98 98 97 98 90 98 98 98 96 97 99 98 98 98 99 96 92 89 90
80 76 73 73 76 78 82 96 98 86 94 83 80 73 68 56 59 62 90 93 83 87 87 97 98 99 95 99 100 99 82 90 98 97 96 96 98 96 96 92 92 93 91 88
83 78 75 75 75 77 81 98 99 91 90 92 87 60 66 62 58 61 68 77 78 84 89 97 98 97 84 98 100 97 83 84 94 98 96 94 95 97 94 94 93 94 93 93
80 76 75 76 78 79 91 98 99 96 81 95 89 71 64 61 60 64 66 70 79 87 90 96 95 88 94 96 91 99 89 96 97 96 93 93 96 95 96 91 93 94 86 88
81 75 74 76 79 73 91 95 92 98 94 92 93 80 72 67 69 70 72 77 86 90 91 94 92 83 91 99 100 89 89 93 93 98 96 96 96 96 94 93 95 94 91 82
81 78 76 77 81 93 97 94 96 90 93 94 92 89 76 70 67 79 89 76 89 80 92 94 91 84 89 99 99 90 90 93 95 96 92 95 96 97 95 84 78 74 74 82
82 76 81 81 75 79 95 97 87 88 97 96 96 93 88 73 85 87 96 91 94 93 87 94 96 89 95 99 98 91 88 92 95 98 94 90 85 72 76 76 80 86 82 83
78 77 73 86 93 95 97 76 83 97 92 97 97 95 96 87 95 95 96 94 99 91 97 94 93 98 98 95 97 92 95 98 98 97 88 78 92 81 74 79 80 85 86 84
76 85 89 97 95 80 75 86 93 93 96 90 96 95 96 89 98 98 97 98 98 99 94 94 98 99 96 95 92 92 96 98 98 93 97 91 88 82 82 85 82 83 82 83
92 98 97 93 84 90 84 91 89 89 91 90 89 94 95 89 94 97 95 97 98 99 95 96 98 97 96 94 93 92 94 94 96 96 96 93 84 85 85 85 82 85 87 95
86 95 93 93 93 95 81 86 94 94 87 98 98 95 92 88 92 95 95 95 98 94 99 98 99 98 96 90 92 94 93 90 91 91 90 85 80 83 88 91 94 96 95 96
94 90 92 91 98 96 95 98 96 100 96 94 96 94 95 92 93 96 98 98 97 95 98 98 97 95 92 93 94 92 86 84 86 91 90 90 93 89 92 96 98 94 96 99
94 83 97 95 96 97 96 95 94 92 98 98 98 99 94 99 96 99 84 91 93 98 99 94 98 94 94 92 88 88 98 96 96 97 96 96 96 100 98 98 98 96 99 100
97 98 95 99 96 94 96 98 97 99 98 98 95 96 96 98 93 90 92 98 97 97 97 97 96 96 96 98 97 97 97 98 99 99 98 99 97 97 100 100 100 98 100 100
96 98 98 99 96 98 97 96 94 98 99 95 97 95 95 92 96 98 96 98 96 94 99 100 98 98 98 97 96 97 96 96 97 97 97 98 97 96 97 99 98 99 96 98
99 97 98 99 98 98 98 97 98 99 97 93 85 89 85 89 97 98 94 93 97 99 100 99 96 95 97 97 96 96 96 96 96 98 97 98 96 96 92 89 92 84 88 98

GFSNW_sfc_rhum_096.txt.gz
RH
81 72 71 71 71 74 80 97 98 77 81 98 95 95 59 51 46 41 47 59 54 51 48 46 51 54 51 49 46 52 57 69 64 46 43 47 49 83 77 94 94 88 94 88
80 73 70 70 70 69 93 87 94 78 79 99 98 67 50 53 48 54 53 54 51 52 52 51 50 55 51 55 50 53 46 67 53 37 44 41 59 55 63 73 86 93 97 77
72 71 71 70 69 72 81 94 94 76 87 86 85 64 59 56 50 53 51 55 52 52 54 53 56 60 52 55 61 60 54 64 48 43 46 70 68 65 63 78 98 84 62 57
71 70 70 67 68 69 86 98 87 71 96 89 72 60 58 55 55 50 49 63 63 62 60 59 64 59 54 52 54 66 66 68 72 65 68 61 62 51 47 63 61 86 41 51
72 69 68 68 66 71 89 95 86 77 72 65 62 63 60 53 49 53 54 64 53 51 60 57 62 59 58 57 60 66 74 82 68 70 60 55 51 53 58 60 60 62 58 60
67 68 68 68 70 77 87 81 78 76 66 59 60 58 57 52 51 47 46 51 55 59 59 55 52 52 54 54 63 68 70 86 82 67 62 54 46 58 88 88 79 86 74 58
66 68 69 71 72 76 77 82 85 87 77 58 58 51 46 51 51 51 48 49 58 55 51 58 61 63 66 69 66 61 84 78 84 84 68 71 72 84 87 92 90 91 91 84
69 70 70 71 74 75 86 93 79 81 89 57 51 52 53 51 61 64 66 63 62 58 68 71 66 72 67 71 73 73 67 83 95 92 97 65 71 88 97 98 89 97 97 95
72 73 70 71 76 74 83 92 95 82 86 78 66 58 54 64 73 77 68 64 67 70 92 92 88 94 77 73 82 72 72 71 89 92 98 98 94 82 75 95 96 95 96 96
74 73 73 74 77 69 77 86 90 78 95 80 68 65 70 70 78 80 76 75 73 74 98 99 98 95 77 92 99 93 88 94 92 93 97 93 92 86 90 98 98 95 96 96
74 74 71 75 80 73 73 87 92 78 93 80 73 65 71 75 75 85 75 79 80 90 94 92 98 97 94 92 96 98 96 95 95 88 98 96 89 75 90 98 98 96 96 94
76 74 73 79 78 75 73 90 91 83 82 77 79 70 67 58 60 80 87 74 91 94 95 96 96 98 98 97 98 90 97 99 98 95 99 97 96 98 98 98 96 96 94 92
77 74 75 78 77 78 81 97 99 84 94 85 82 77 65 57 63 70 89 94 87 88 87 97 98 96 95 98 99 96 89 93 98 98 97 96 97 95 95 95 95 94 92 89
78 76 76 78 78 78 84 99 100 86 85 92 86 61 70 66 61 68 74 83 83 90 88 97 98 97 84 98 97 95 81 87 94 97 96 94 95 96 96 95 94 90 91 89
77 77 77 78 80 81 90 98 100 95 76 95 87 71 69 64 66 69 70 75 81 87 90 96 95 89 94 97 90 98 84 98 99 98 94 92 97 97 96 93 92 89 84 88
80 76 77 76 72 68 89 94 90 95 92 90 92 80 74 72 72 73 73 80 87 90 90 94 90 84 91 100 99 89 88 90 91 98 95 96 97 95 86 90 90 89 89 86
81 78 79 79 80 95 96 95 94 88 90 92 94 91 77 74 73 83 90 87 93 89 94 93 89 85 92 99 98 86 93 92 93 92 91 96 96 97 86 78 74 80 86 84
80 82 76 77 77 81 96 98 85 86 96 94 95 93 91 75 86 89 96 92 93 94 90 95 95 90 96 92 97 92 90 93 94 97 91 93 90 81 84 81 81 77 80 82
79 71 68 82 93 96 97 74 81 96 89 97 96 96 98 88 96 95 96 95 99 93 98 94 92 98 98 95 93 92 95 95 96 92 91 89 88 83 82 80 82 84 81 82
70 80 85 95 96 80 75 86 91 93 96 94 97 95 95 90 99 98 98 99 99 98 93 94 99 99 97 95 92 96 94 95 86 96 95 93 90 87 86 82 83 81 82 86
90 98 96 94 85 93 84 92 93 88 94 94 94 93 96 91 94 96 95 98 98 98 95 97 97 99 95 94 95 94 97 97 94 91 91 86 81 86 86 86 86 88 89 96
83 94 91 94 89 81 79 85 84 89 84 99 98 96 93 92 92 95 97 97 98 95 98 99 98 98 97 95 93 94 92 91 94 92 92 86 80 83 89 92 94 96 96 96
89 80 89 92 97 87 89 96 93 100 98 96 98 97 96 95 93 96 98 99 97 95 98 96 97 97 93 92 90 91 86 87 88 92 90 89 92 89 92 95 98 95 96 100
95 79 91 92 95 95 96 96 96 95 99 99 98 100 96 100 97 98 84 91 94 97 96 94 99 94 97 93 88 90 98 96 95 96 96 96 96 99 97 97 98 95 98 100
96 92 96 97 95 96 98 97 98 100 98 98 96 96 96 99 96 89 88 96 98 97 97 97 99 97 97 98 97 96 98 98 99 98 97 98 97 97 100 100 100 97 99 100
96 96 98 99 98 98 97 97 97 98 99 98 96 98 95 95 96 98 97 99 97 93 98 99 91 98 98 98 96 96 96 96 98 97 97 98 97 96 97 98 98 99 97 99
98 98 99 98 99 98 98 98 98 99 97 95 85 87 88 95 91 94 95 96 96 99 100 100 98 95 98 96 96 96 96 96 96 97 96 96 95 94 89 83 93 81 88 99

GFSNW_sfc_rhum_099.txt.gz
RH
82 80 77 75 76 73 77 90 95 84 85 98 98 87 54 52 43 42 50 72 63 50 46 45 59 52 51 56 47 48 52 50 38 43 42 40 50 69 68 60 69 78 81 68
84 77 73 72 73 73 84 92 98 78 79 96 84 68 47 49 47 54 71 65 58 48 49 50 50 48 48 52 49 49 44 46 34 40 46 40 48 49 50 52 64 68 76 57
79 76 72 71 72 71 76 78 98 98 84 88 89 72 58 54 46 55 54 65 59 49 48 51 55 50 46 54 60 60 50 51 34 30 47 51 53 54 51 60 82 62 52 36
78 72 73 71 70 73 78 94 84 72 95 84 81 66 56 54 54 49 47 58 56 55 50 53 56 49 47 49 54 59 57 55 55 48 57 56 54 48 44 44 41 56 23 34
72 70 72 70 70 73 83 96 89 75 72 64 77 71 61 48 50 47 52 58 48 46 51 50 55 52 46 46 52 55 61 74 60 59 51 52 51 42 40 38 42 49 53 62
72 70 69 70 69 76 86 80 75 71 65 67 64 61 57 50 49 46 45 50 51 52 53 48 49 49 52 49 50 59 58 70 60 46 50 44 43 44 41 59 64 69 84 66
70 70 70 70 73 77 84 77 76 83 72 55 52 48 46 49 46 50 46 47 56 49 47 53 55 57 55 53 54 52 68 64 65 56 58 47 76 72 78 82 75 83 81 85
69 69 71 73 76 78 78 84 76 77 83 55 53 55 62 61 62 65 64 62 62 56 60 57 56 62 62 68 66 62 55 63 75 73 69 50 80 86 92 93 86 93 92 94
71 72 72 74 76 76 79 87 87 77 85 68 57 56 56 61 66 67 63 62 64 65 80 76 72 75 69 72 78 63 60 60 71 83 87 79 88 72 67 89 90 86 89 90
73 73 74 77 74 75 75 83 86 75 95 74 62 58 62 65 70 69 67 68 61 67 88 94 85 79 66 80 90 87 79 80 82 81 85 80 91 82 79 93 93 89 94 95
74 75 73 79 76 71 70 86 87 74 88 74 69 58 67 68 65 73 69 70 72 77 81 76 89 84 84 86 94 91 85 82 81 75 89 91 80 69 82 95 96 94 95 95
76 73 78 78 76 71 71 84 84 80 77 74 72 68 64 56 54 71 73 65 82 80 80 78 81 86 90 90 88 87 92 94 92 92 91 94 91 92 96 96 94 96 94 95
75 78 79 78 77 75 76 95 94 79 92 77 75 75 67 61 64 67 76 85 77 80 74 88 87 83 78 88 88 88 82 87 92 94 93 92 95 95 93 93 92 93 91 90
76 79 80 80 80 78 82 97 98 80 80 90 80 61 70 61 66 71 72 79 79 78 70 85 87 78 74 89 86 82 74 76 88 93 94 93 94 95 93 94 92 92 93 90
75 79 80 80 80 82 87 96 97 85 68 92 80 70 67 67 67 68 69 71 70 66 73 83 82 72 84 90 82 88 71 89 89 88 87 86 96 96 94 93 94 92 83 83
82 80 76 72 68 66 85 94 85 90 87 89 88 72 71 72 70 71 74 73 74 71 73 80 70 73 81 94 92 82 70 83 80 93 93 91 93 94 84 84 84 81 79 76
80 78 78 79 78 87 97 94 90 85 84 92 90 82 70 70 70 82 84 81 80 71 78 73 67 67 80 92 93 81 88 86 87 86 83 91 88 88 76 72 73 75 72 71
83 82 80 78 78 81 94 94 82 83 92 88 92 88 82 72 77 86 91 86 81 85 77 81 78 78 87 83 91 87 88 92 90 86 87 81 81 76 75 70 66 71 72 72
71 68 69 84 94 97 94 77 77 94 84 89 84 92 97 82 90 92 89 87 96 82 90 80 76 89 96 86 88 88 88 90 94 88 82 77 77 77 75 72 70 71 75 72
67 76 84 97 96 83 73 84 86 89 91 88 92 83 95 83 93 94 92 94 92 89 81 84 95 92 88 88 76 76 81 88 85 93 91 87 83 78 76 74 70 69 72 74
87 96 97 93 82 89 87 93 91 89 84 83 86 84 93 84 91 90 85 91 90 93 86 88 90 88 87 92 91 90 90 87 84 78 76 76 74 78 80 80 79 77 78 84
81 91 92 92 90 88 83 83 83 82 78 94 90 84 81 90 84 87 94 92 94 90 92 93 94 92 91 90 91 90 88 89 92 79 81 79 78 77 81 84 86 90 90 92
87 81 88 84 85 89 90 96 93 98 94 92 96 94 88 91 85 96 92 98 95 92 97 89 90 88 89 87 85 87 83 85 87 90 89 84 85 83 86 91 95 92 94 95
85 75 90 92 89 93 93 90 93 92 93 93 94 98 94 97 94 94 78 86 91 93 93 90 90 86 89 87 83 84 94 93 93 93 92 94 94 97 96 96 94 94 96 98
94 84 96 94 93 96 97 97 98 98 94 94 94 92 89 96 96 85 84 90 94 91 92 90 88 93 95 96 94 95 97 96 96 94 95 96 95 95 98 96 93 92 94 92
93 94 96 98 97 98 98 96 98 98 97 93 90 95 92 94 90 88 94 96 94 88 95 93 92 97 97 96 95 95 95 95 95 94 94 94 95 93 94 95 94 94 89 93
96 98 98 98 99 99 99 98 97 98 94 91 78 89 89 88 86 83 88 96 92 97 98 93 94 94 97 96 95 95 95 94 94 93 91 92 89 86 74 68 75 71 79 91

GFSNW_sfc_rhum_102.txt.gz
RH
81 82 83 83 80 73 66 62 83 81 95 99 99 69 48 55 40 36 43 55 57 67 49 62 59 50 43 50 47 45 36 33 31 32 36 28 25 36 35 47 41 44 58 42
84 83 81 81 81 74 52 79 84 89 94 97 74 54 46 43 43 41 52 55 60 42 54 46 65 70 66 55 50 44 33 34 43 35 36 34 35 41 39 43 43 48 51 37
84 83 78 77 78 73 63 61 94 98 99 92 69 63 54 52 38 42 44 50 60 53 48 39 47 49 46 49 46 56 35 30 26 26 38 38 47 41 35 46 66 42 33 23
84 80 74 73 79 74 62 62 76 49 91 80 67 55 47 51 49 44 39 53 70 87 53 45 47 42 47 44 47 44 39 33 33 35 35 34 35 34 31 32 27 42 19 20
83 80 75 72 79 72 70 97 56 49 43 52 63 64 49 44 44 44 44 56 43 49 63 46 46 41 38 38 40 42 44 54 42 35 32 34 35 26 26 27 25 24 22 30
80 75 74 74 74 69 68 56 55 46 55 49 63 53 44 42 40 45 49 42 41 42 42 38 37 36 36 38 38 44 40 58 46 26 33 32 31 32 26 24 25 41 54 52
72 72 73 75 72 70 66 52 51 66 62 39 51 40 39 39 38 45 39 36 41 44 37 37 35 35 36 34 40 32 44 44 43 39 40 55 63 56 64 69 60 71 66 61
75 73 70 72 71 72 80 57 58 55 67 35 43 41 41 39 42 44 44 50 49 40 40 41 47 53 53 59 52 38 34 45 64 71 56 43 74 76 92 94 77 89 83 72
76 76 70 73 75 77 92 64 62 57 69 49 38 45 41 43 44 51 57 53 51 48 54 55 52 50 42 61 66 54 46 44 63 62 69 65 97 61 54 82 87 77 84 80
77 75 73 76 79 81 74 62 76 53 95 55 46 42 46 44 45 44 52 51 52 53 71 80 72 61 48 63 74 76 70 69 68 63 70 88 80 62 66 95 95 79 86 90
77 76 76 82 83 80 65 68 69 57 66 60 56 49 49 52 41 50 60 55 58 57 61 57 70 73 62 72 96 82 72 73 70 60 78 84 64 60 91 96 91 89 94 95
80 76 78 82 79 76 64 63 62 58 53 61 58 58 52 48 43 44 53 54 60 61 52 48 55 72 78 73 83 78 92 95 90 87 90 88 77 89 86 92 92 96 94 94
79 81 79 78 75 72 64 73 61 50 72 54 46 55 53 49 53 56 43 55 56 61 57 68 62 69 55 71 80 77 71 72 84 89 86 82 86 79 80 91 91 93 91 89
84 82 81 80 79 77 66 64 75 53 47 71 64 46 55 50 49 54 52 60 60 55 42 60 66 65 58 70 78 63 58 61 72 92 89 81 82 85 86 91 86 90 92 87
82 81 82 80 78 74 66 66 68 57 46 71 60 53 53 48 46 49 48 48 45 36 41 58 57 47 66 71 65 69 59 88 79 85 72 83 92 91 87 90 88 85 74 74
84 80 73 69 68 64 64 100 62 62 61 68 72 57 58 54 49 51 53 52 49 42 47 50 40 56 66 81 83 77 67 66 63 90 83 88 89 86 80 82 84 76 70 66
82 77 77 75 76 64 90 85 76 72 62 94 72 58 56 58 51 53 55 55 51 47 47 44 37 44 57 78 81 75 71 69 75 73 74 89 79 84 72 60 60 61 57 58
82 80 79 77 74 70 74 70 70 69 79 67 78 76 63 57 52 63 66 55 50 59 53 53 47 55 60 78 94 74 73 76 74 74 68 64 63 58 58 55 55 57 58 57
78 74 70 64 75 78 71 77 68 73 62 72 65 73 85 63 66 69 66 61 82 56 67 56 52 70 80 72 74 79 74 81 84 81 64 60 63 62 59 55 54 56 58 57
64 55 61 97 80 83 69 64 74 71 65 62 74 57 83 62 77 79 74 74 68 70 62 62 78 73 71 66 62 62 63 69 73 83 79 68 67 62 60 56 53 53 57 58
60 80 90 78 79 68 66 84 73 67 62 54 61 60 73 62 84 78 61 70 72 71 74 70 74 71 75 71 65 58 63 68 68 65 63 60 60 63 64 64 61 59 60 68
63 76 79 76 69 68 73 77 71 63 58 67 72 66 61 72 61 69 74 67 78 76 74 81 77 86 83 86 83 81 75 73 74 65 68 66 64 64 68 71 74 79 82 85
66 61 66 62 71 80 65 88 83 84 80 78 82 91 77 75 66 92 80 96 92 79 95 79 81 76 80 83 78 78 74 79 79 77 73 71 72 70 76 84 89 86 88 89
62 69 85 83 84 83 83 81 87 90 89 80 83 97 95 93 96 92 79 89 84 88 86 84 82 78 80 82 75 74 88 92 92 91 90 90 91 93 91 90 90 90 91 90
80 68 89 86 92 92 97 98 95 91 86 82 88 85 76 94 99 81 77 88 85 79 88 91 80 82 86 89 90 92 94 94 93 92 92 92 92 91 93 90 86 86 87 85
79 84 93 98 94 99 100 100 100 91 89 82 74 92 91 92 80 85 86 79 77 93 99 91 85 90 91 92 91 91 91 91 92 90 89 90 90 86 85 84 81 79 78 82
82 97 100 100 100 99 100 100 92 84 88 96 72 77 76 77 74 74 76 95 100 100 96 86 89 92 94 92 92 93 91 90 89 88 85 85 85 81 66 64 69 63 73 82

GFSNW_sfc_rhum_105.txt.gz
RH
92 88 85 85 81 70 75 64 98 91 96 100 99 72 50 49 35 30 34 39 44 45 45 35 53 40 34 35 28 38 39 45 49 32 30 25 26 27 41 76 55 64 46 53
87 87 86 85 83 76 62 95 90 95 97 100 90 55 45 38 39 36 43 46 41 38 51 52 84 44 50 46 38 40 35 46 42 36 32 26 25 24 29 33 38 40 51 48
92 89 87 87 86 77 84 76 98 100 99 94 75 62 55 46 33 36 40 60 44 47 50 40 62 68 57 43 38 55 41 35 38 42 37 29 37 28 25 35 60 38 28 20
83 92 86 85 84 79 91 83 82 59 96 94 61 58 50 48 46 35 35 58 54 57 61 51 51 46 49 42 49 37 38 45 31 24 25 24 28 28 26 27 27 35 20 17
84 92 85 83 84 79 96 98 60 45 47 50 59 70 62 43 39 37 45 52 48 56 66 49 45 41 39 38 37 35 35 39 36 32 25 24 24 18 18 19 19 20 17 18
89 92 84 81 81 77 96 69 54 48 56 52 66 68 45 41 45 40 42 46 43 58 58 36 31 29 31 33 37 40 40 51 39 26 26 24 25 25 21 18 15 23 33 46
80 89 80 79 82 75 74 82 69 68 65 53 52 44 41 43 47 47 41 46 39 37 29 30 30 31 31 31 31 30 38 39 36 34 32 38 50 45 48 54 44 52 50 51
87 88 81 80 81 77 79 87 71 73 86 35 42 45 39 44 40 56 36 37 33 32 33 38 41 41 40 37 28 27 25 34 49 60 42 40 46 55 90 88 79 81 67 58
91 82 80 79 78 74 76 69 75 73 87 44 37 41 42 48 48 49 52 44 40 37 43 45 42 46 32 49 49 33 34 39 56 51 62 56 93 51 43 68 77 65 72 71
85 79 76 78 74 71 75 85 71 65 99 48 44 50 47 40 42 46 46 48 48 40 60 73 58 49 32 50 62 67 56 57 59 53 56 87 71 50 54 93 95 75 79 84
79 77 74 79 79 80 83 90 62 66 70 54 44 40 45 42 36 49 47 49 50 46 58 49 57 66 48 60 96 59 59 57 58 47 67 88 56 55 82 92 82 76 85 91
79 73 79 82 84 85 85 84 56 52 57 59 51 49 45 47 42 36 45 46 42 48 45 39 43 62 66 64 70 64 91 96 94 84 92 84 70 84 80 75 78 91 87 91
80 80 79 80 82 83 74 58 54 49 66 54 43 50 45 40 44 46 38 38 44 48 50 57 52 63 47 66 77 70 62 59 84 84 84 77 80 70 73 72 81 79 77 86
78 78 80 81 79 78 74 54 54 56 43 68 57 36 49 38 38 39 42 47 47 45 40 55 60 56 52 66 64 76 51 57 71 90 81 72 71 73 73 79 80 88 82 75
80 82 81 80 79 76 58 56 50 48 55 62 55 46 42 35 36 37 38 38 38 31 36 57 51 41 58 59 53 56 49 96 79 86 67 76 84 77 72 79 82 77 66 68
86 80 78 76 75 74 57 99 51 49 32 56 66 48 49 42 40 42 43 41 38 32 38 38 35 50 58 73 80 69 55 55 62 88 73 81 77 73 66 75 75 64 61 58
81 76 75 74 70 52 77 78 63 64 53 81 65 48 49 46 40 42 42 41 40 37 36 36 31 38 46 67 72 65 59 68 72 67 68 80 72 77 61 56 55 57 52 52
81 79 78 77 73 72 57 57 65 68 67 53 65 64 56 46 43 53 44 43 40 44 42 42 38 42 45 68 87 61 65 70 69 65 60 59 56 51 50 49 48 52 53 52
77 73 70 53 54 53 49 77 68 55 50 62 55 68 82 50 53 56 48 43 71 43 54 44 41 60 71 61 70 68 66 73 80 62 55 53 55 51 50 49 50 52 53 53
62 45 54 93 63 79 69 57 67 57 48 47 58 45 77 56 63 67 61 55 56 64 52 48 65 62 58 47 57 61 60 64 60 70 70 63 61 56 53 51 49 49 52 53
42 68 86 59 74 51 50 77 62 55 53 44 47 53 66 49 77 69 46 58 59 59 69 59 65 60 64 62 65 60 60 68 61 57 57 55 55 56 54 53 52 53 54 60
55 62 60 59 57 62 72 70 60 49 48 55 62 50 50 55 45 60 57 55 62 70 59 67 65 83 64 74 72 70 68 65 64 64 61 62 57 56 57 59 62 71 77 85
52 51 56 56 65 88 77 87 72 79 67 70 70 84 67 58 54 78 67 92 90 62 91 70 80 73 67 76 83 82 77 69 66 78 67 63 64 63 70 76 86 83 84 85
54 63 90 87 90 77 76 74 90 88 83 72 82 90 82 77 88 83 83 84 74 82 82 72 77 76 74 73 72 75 87 95 92 93 87 86 87 90 88 87 87 88 89 85
70 62 86 84 88 90 97 97 92 90 78 73 76 74 67 81 94 76 71 84 80 70 91 88 81 83 86 90 92 91 93 94 93 92 92 92 91 90 92 88 85 85 84 82
71 78 93 94 96 100 100 100 100 81 79 70 64 86 91 87 72 80 77 73 73 96 93 87 82 90 88 92 95 94 94 94 94 92 91 89 89 88 88 84 80 79 78 81
72 98 100 100 100 100 100 100 86 71 78 96 63 83 66 65 65 63 68 93 99 94 92 84 88 87 91 92 91 91 90 90 89 88 84 85 82 81 66 64 68 63 71 78

GFSNW_sfc_rhum_108.txt.gz
RH
80 79 84 93 89 86 89 98 100 94 98 100 100 92 61 63 48 29 29 33 38 40 41 43 38 56 53 38 47 60 45 44 56 43 25 24 28 36 70 98 94 88 82 78
80 79 74 92 90 84 72 98 99 96 96 99 97 68 55 51 36 35 35 37 36 37 46 53 50 50 54 41 36 39 42 53 55 62 42 27 31 34 31 42 45 49 60 52
78 81 78 88 90 81 97 99 100 100 100 97 87 70 64 61 34 34 33 37 42 41 46 38 56 63 53 41 36 52 43 42 48 64 60 36 39 28 24 35 66 50 40 46
77 78 81 83 90 81 94 99 97 62 96 97 83 65 49 56 52 34 35 48 49 48 53 45 55 57 54 44 50 41 42 54 40 32 24 23 28 24 23 26 27 46 30 22
79 79 82 89 92 88 98 100 98 65 50 62 79 72 67 48 42 40 40 52 45 47 55 47 53 66 50 53 41 46 46 62 48 43 26 23 24 17 18 21 21 19 17 22
80 79 83 86 93 87 98 69 60 80 63 88 71 66 60 55 42 41 32 40 46 51 53 48 37 37 39 36 51 60 49 58 46 42 29 24 29 27 19 21 17 26 32 54
76 79 81 88 88 78 62 83 88 92 74 56 65 48 46 47 49 71 44 52 58 52 34 30 30 33 34 36 39 33 47 46 42 39 35 37 49 43 42 49 62 56 52 52
79 79 89 92 88 83 92 95 98 97 94 59 46 47 52 46 63 68 42 46 49 32 34 47 51 45 40 36 30 29 28 40 45 51 42 48 44 53 82 79 87 71 65 57
81 85 89 91 82 85 95 97 95 98 100 78 41 51 54 90 86 63 51 40 35 38 56 56 57 59 40 50 44 23 25 31 60 55 59 55 83 46 42 63 84 66 71 72
85 84 91 82 84 80 90 95 82 89 100 65 68 74 80 62 64 52 54 53 50 42 68 78 65 60 28 54 56 51 52 55 59 56 54 88 69 46 50 87 91 79 76 84
87 91 85 83 80 85 92 91 72 94 100 60 71 58 73 55 51 60 57 54 54 54 65 55 59 71 46 66 93 51 53 56 59 53 60 77 59 54 77 89 78 80 79 86
87 86 83 77 77 78 81 89 70 69 97 64 56 52 45 47 45 53 50 47 50 56 48 38 43 62 67 65 73 62 88 95 90 90 92 79 71 85 79 79 81 84 80 80
82 79 79 79 74 74 78 97 72 71 68 61 54 54 43 36 43 44 44 36 42 50 54 74 59 61 50 70 75 64 58 58 83 82 78 76 75 72 68 72 75 75 75 77
78 79 79 80 76 80 82 95 63 70 76 84 59 37 42 33 34 37 44 46 45 46 52 64 69 64 57 77 64 64 48 51 71 90 82 77 69 72 74 75 72 73 72 74
79 77 75 77 82 82 83 91 70 65 82 72 60 45 35 32 34 36 38 44 52 47 48 64 67 50 58 59 59 63 53 92 76 86 69 79 83 73 71 77 78 73 66 70
77 74 73 76 80 80 93 100 60 52 70 61 69 45 44 39 38 39 40 39 41 35 43 45 45 51 59 73 77 60 53 62 60 90 76 82 79 71 63 71 66 61 61 60
82 81 82 81 80 86 82 80 63 67 63 89 69 54 46 40 38 41 42 40 42 40 37 40 39 43 50 70 75 59 61 68 71 69 73 79 71 76 63 60 55 55 52 52
82 82 79 75 74 76 68 59 67 74 72 62 69 67 57 46 49 56 46 45 42 49 46 41 38 41 42 74 82 63 67 72 68 66 59 61 57 53 53 52 50 54 54 52
80 79 78 68 76 53 55 70 69 64 58 63 63 69 77 54 57 54 48 45 76 42 53 43 40 64 68 67 64 71 74 72 76 62 56 53 53 51 51 50 51 54 56 55
69 59 65 95 62 69 68 64 69 65 46 48 64 54 76 56 70 71 60 52 58 65 52 49 63 71 53 50 54 59 63 64 61 70 70 61 57 55 53 52 50 51 55 57
52 71 86 56 65 57 46 78 66 60 56 45 52 53 65 46 79 69 47 59 57 56 67 57 67 62 64 53 57 59 60 65 64 56 59 58 55 59 58 57 57 58 58 63
57 58 53 54 54 61 68 67 56 55 49 56 64 56 55 52 43 63 54 52 58 65 60 63 61 81 68 69 78 74 73 70 67 60 61 63 61 60 61 62 67 85 87 89
55 50 53 55 60 83 76 80 62 76 69 71 75 86 66 53 60 78 64 85 79 62 80 69 86 77 83 91 80 80 75 73 74 69 70 66 65 67 73 90 93 88 90 90
52 64 87 87 85 72 84 90 91 83 84 77 85 91 90 76 91 80 80 84 71 77 76 88 83 85 98 93 85 92 94 99 98 89 88 90 93 95 92 91 90 92 94 92
67 64 83 84 87 90 98 95 89 89 81 78 80 76 69 78 85 79 70 78 74 68 96 94 88 92 97 98 98 97 97 96 96 93 94 94 94 93 94 93 91 91 90 90
70 79 87 92 94 98 100 100 100 80 79 76 68 84 86 82 71 72 69 68 76 96 95 96 92 95 96 96 93 94 94 92 94 94 93 93 93 92 92 93 90 88 89 91
73 96 100 100 100 100 100 100 88 69 82 97 61 76 66 63 61 63 66 90 96 92 94 92 93 94 97 97 97 97 96 94 94 94 91 91 90 90 81 78 76 67 77 88

GFSNW_sfc_rhum_111.txt.gz
RH
80 83 84 83 86 91 90 98 99 97 99 100 100 97 85 63 59 46 54 54 54 57 48 49 50 66 62 49 52 65 64 68 71 56 45 42 39 54 63 98 94 98 98 98
77 82 81 76 86 90 98 99 100 98 98 99 98 87 68 58 64 69 68 44 44 46 55 63 63 66 64 50 56 80 78 98 83 62 60 53 48 43 64 70 84 82 83 92
72 77 82 80 80 85 96 99 99 100 100 99 96 80 90 91 75 53 52 40 39 56 58 54 63 82 59 54 44 62 57 59 62 70 77 69 57 39 39 58 86 72 57 82
70 72 77 81 81 82 98 100 99 87 98 97 98 80 79 74 77 48 40 50 56 65 70 61 60 62 67 53 51 50 60 72 56 43 50 35 31 31 31 39 43 62 45 74
68 69 77 82 83 90 98 100 99 90 86 73 92 89 97 86 67 65 49 65 58 58 67 60 72 84 88 68 50 59 59 84 61 64 40 29 33 25 24 26 26 30 55 88
70 69 77 81 81 84 100 98 91 97 98 92 90 83 76 71 66 52 43 48 56 61 59 59 53 66 62 54 59 68 65 76 70 81 48 42 43 52 41 48 62 56 77 78
69 73 80 84 84 88 96 90 94 98 96 99 86 66 68 65 60 81 59 60 74 59 42 47 44 58 59 53 58 52 67 65 72 72 46 59 63 50 55 75 76 67 63 72
72 78 82 83 83 85 96 98 97 99 98 79 67 76 64 58 57 81 84 60 59 54 47 64 62 59 54 51 42 46 43 64 70 78 73 63 56 65 83 86 90 79 80 81
78 81 83 84 83 85 94 98 97 99 98 94 80 77 66 94 99 99 97 60 57 47 80 83 92 86 60 58 45 31 35 50 80 78 85 84 89 59 60 74 96 80 83 84
83 83 83 80 87 90 93 98 93 99 99 95 96 95 97 90 98 99 74 65 59 57 92 93 91 81 42 67 68 58 63 73 76 85 88 90 78 55 59 90 90 81 82 93
81 83 84 85 90 89 92 98 95 98 100 98 83 82 96 93 90 96 75 76 70 74 85 85 92 98 81 80 86 60 72 80 86 80 89 97 74 69 85 94 88 86 91 92
84 84 85 90 88 84 84 98 84 93 99 95 80 72 76 74 67 72 69 70 64 82 74 67 65 87 90 85 96 75 88 91 96 95 99 86 76 90 88 82 91 88 91 91
88 86 89 85 84 83 84 97 98 97 99 89 77 70 52 46 49 58 66 65 59 67 76 94 84 74 78 92 94 86 79 76 94 94 84 82 82 77 80 81 85 81 79 83
90 90 86 83 82 80 86 97 94 97 95 99 71 43 52 45 46 53 56 58 56 60 73 89 94 92 83 90 83 86 73 73 87 96 86 80 80 79 80 80 77 82 86 87
82 81 78 79 76 75 91 96 97 95 95 93 78 55 46 43 47 51 53 59 63 74 70 87 90 76 83 82 85 93 80 87 94 95 84 86 92 84 74 81 79 81 82 88
80 80 78 77 79 88 98 100 90 85 88 91 92 60 55 49 51 53 52 59 63 67 72 72 74 63 82 94 98 80 79 82 78 93 88 88 82 78 70 78 76 73 75 73
80 82 82 84 84 94 98 95 83 76 89 95 89 74 60 56 54 61 62 57 63 70 59 64 72 71 70 95 96 85 85 84 83 78 78 87 79 86 68 64 61 62 63 67
81 81 82 83 83 81 86 81 73 83 93 88 92 91 80 59 76 75 66 67 68 68 68 64 70 62 69 96 92 83 83 81 78 76 73 72 65 62 61 60 58 62 64 64
82 79 82 86 91 93 76 66 71 89 81 92 87 92 94 71 79 76 71 71 92 66 82 72 68 94 89 86 88 88 84 82 83 69 66 64 68 64 63 60 60 63 66 71
76 72 88 100 83 66 71 71 88 84 69 72 88 80 94 83 96 93 85 85 89 91 82 78 94 96 72 70 76 78 69 69 69 76 75 68 67 67 64 61 61 63 67 66
79 96 97 78 69 83 77 89 88 90 80 73 77 77 87 71 91 94 78 90 87 87 90 87 95 96 88 74 78 74 69 68 69 68 72 70 65 70 70 70 67 67 66 76
74 76 69 75 79 87 81 92 82 81 71 75 86 81 77 74 69 89 82 82 86 85 88 89 90 96 86 84 80 80 79 76 74 67 70 76 72 73 73 80 82 88 86 87
71 69 71 79 86 90 86 95 86 94 93 88 90 91 86 80 86 94 92 88 94 86 89 92 100 96 98 95 85 85 82 80 78 81 78 74 75 81 88 92 92 90 92 92
77 85 93 92 96 96 100 99 99 96 95 94 96 98 96 97 94 96 82 95 92 92 93 96 99 98 98 97 95 92 99 98 90 89 89 92 93 96 95 92 92 92 93 94
87 85 97 96 98 98 99 99 99 98 94 94 96 95 93 95 89 86 86 89 86 90 98 100 98 98 98 98 98 98 97 96 96 94 94 95 94 95 97 94 94 90 90 95
89 93 93 96 95 97 94 98 99 95 94 94 94 92 92 92 90 90 85 90 96 99 100 99 97 98 97 97 97 97 95 95 96 95 95 95 94 94 96 94 92 93 93 94
87 99 100 99 98 98 99 100 100 97 95 98 94 82 80 90 89 85 95 100 99 98 100 98 95 96 97 97 97 97 96 96 96 96 96 95 95 93 89 91 92 84 88 91

GFSNW_sfc_rhum_114.txt.gz
RH
80 80 80 82 88 89 94 99 96 97 97 100 100 98 79 63 63 56 60 66 68 68 61 58 57 74 61 54 55 68 84 79 92 61 55 51 53 62 75 96 91 98 95 96
77 82 81 83 82 87 99 99 99 97 100 98 96 97 89 71 74 62 63 64 62 58 62 73 66 65 66 55 69 83 88 100 97 89 64 57 62 53 56 68 91 93 92 91
72 75 79 83 82 84 96 100 99 100 100 99 97 96 97 87 71 81 71 65 61 53 58 57 65 80 66 63 65 80 86 99 98 85 72 64 62 48 59 76 97 82 73 88
71 72 76 79 83 82 97 100 100 88 98 98 93 81 71 76 96 76 79 78 64 65 72 63 67 76 69 58 64 65 85 93 78 57 58 55 51 34 38 56 58 71 60 85
69 68 75 80 83 81 96 100 100 98 94 80 93 97 98 81 72 69 90 99 86 67 72 64 71 80 88 73 56 72 74 97 95 91 55 40 35 28 31 29 45 77 78 94
69 69 72 76 79 82 100 99 95 99 89 91 92 81 75 78 76 72 57 67 65 66 68 64 58 76 80 74 60 77 85 96 96 94 74 69 67 48 53 65 66 68 83 77
68 67 74 76 78 81 97 98 97 99 97 97 84 72 72 75 70 76 67 70 66 64 63 66 66 69 63 60 63 62 78 89 88 87 79 95 70 64 61 76 79 75 82 80
69 73 75 78 80 79 95 97 94 99 99 92 95 99 95 74 71 71 85 73 73 67 73 89 94 93 84 76 62 62 60 86 96 85 75 72 63 67 83 82 93 84 85 87
75 76 74 79 82 80 94 96 97 98 99 94 75 86 92 97 93 92 88 88 88 67 87 89 94 91 72 72 62 50 59 60 82 85 75 90 86 65 63 67 92 86 86 86
76 77 77 81 84 82 92 99 97 98 100 94 90 96 95 91 93 97 96 96 97 68 93 97 95 85 53 70 72 64 61 75 66 80 86 92 79 63 66 77 84 88 93 96
80 79 80 84 82 85 94 98 96 96 100 93 92 92 94 93 94 96 98 93 84 84 84 91 96 96 88 83 82 61 65 73 83 82 94 93 77 71 80 92 92 95 96 95
83 84 84 85 84 81 89 99 95 95 98 97 92 91 85 81 83 82 76 76 74 82 80 82 84 99 98 87 92 77 84 83 92 94 94 94 87 95 92 88 92 92 94 94
86 84 82 86 88 90 85 98 96 98 96 98 98 97 79 70 80 66 70 75 66 74 76 92 87 78 85 93 95 88 87 78 97 92 92 89 92 87 82 82 91 88 85 86
83 82 84 88 92 84 86 96 98 99 96 98 92 66 71 77 72 58 60 57 62 68 78 92 93 91 82 91 85 90 82 76 92 96 93 85 88 85 85 84 84 87 85 86
85 85 84 90 86 84 94 97 96 98 95 95 78 59 50 48 52 55 58 58 62 75 72 89 93 83 90 90 88 95 85 91 93 93 83 85 92 87 80 87 87 90 90 91
86 90 85 84 84 87 97 100 95 96 97 91 94 69 64 56 55 56 57 62 68 71 76 84 83 69 81 96 99 90 90 86 79 95 81 88 87 80 74 81 82 83 84 86
83 82 81 82 87 94 98 96 95 85 95 94 89 78 64 60 61 71 68 63 72 67 70 72 79 73 78 96 98 97 91 88 86 83 84 92 82 90 73 74 77 76 73 75
82 84 85 90 85 83 89 83 75 88 96 88 94 92 75 61 80 73 75 72 76 73 72 74 73 66 83 97 98 94 88 85 80 78 79 77 73 71 70 66 70 76 78 78
84 88 87 92 94 97 79 70 69 90 85 91 89 91 90 76 86 81 73 80 90 77 84 75 75 95 89 91 96 93 89 89 87 75 74 74 74 71 71 71 71 74 74 76
81 89 98 100 94 69 71 73 87 82 74 82 88 86 90 83 97 93 84 90 90 89 82 80 93 97 85 79 83 84 84 80 73 87 87 79 79 75 72 70 67 68 70 67
92 99 98 86 73 80 78 89 83 90 80 84 85 80 88 76 89 93 83 90 90 88 89 86 96 97 95 87 86 81 78 71 70 75 77 75 72 73 72 73 71 69 64 65
81 75 76 83 85 88 79 93 83 80 74 83 84 80 81 85 77 86 90 82 87 88 92 88 95 97 91 89 87 87 82 76 74 70 71 76 73 73 71 70 73 79 84 85
72 74 75 78 87 88 81 91 87 93 95 90 92 92 87 84 86 94 90 89 95 90 94 92 90 98 92 87 87 85 85 80 81 84 81 80 82 78 85 93 90 86 86 88
80 83 90 85 94 98 97 99 98 96 97 91 95 98 96 98 93 98 90 95 90 97 96 92 96 98 97 90 84 83 95 91 86 88 89 91 94 97 96 95 92 88 89 91
87 86 99 99 99 99 99 99 99 98 95 92 94 94 92 96 89 93 89 91 95 91 96 98 94 98 98 98 98 98 98 95 95 92 94 96 95 95 96 96 95 90 90 88
91 95 94 98 92 96 98 99 100 97 96 96 93 95 94 94 91 89 91 91 95 96 100 100 98 98 98 98 98 96 96 96 96 96 96 96 96 95 95 96 96 94 87 88
91 99 99 100 98 99 100 100 99 97 94 95 92 85 83 92 93 88 92 97 91 99 100 99 96 96 98 97 97 97 96 96 96 96 96 96 96 95 92 93 91 84 88 91

GFSNW_sfc_rhum_117.txt.gz
RH
80 80 82 83 83 89 92 99 100 94 99 100 100 97 81 65 62 51 60 71 70 70 65 65 60 68 65 57 63 73 77 86 88 69 60 57 60 66 86 93 96 92 96 92
78 80 80 81 83 86 98 99 100 95 100 97 95 83 75 67 66 64 71 64 66 68 72 77 67 63 68 60 72 84 87 93 99 91 85 74 91 65 66 79 86 94 96 85
76 78 78 80 81 84 97 99 99 100 100 98 92 92 96 87 78 74 76 72 66 70 70 66 68 76 72 64 72 83 82 93 86 78 83 80 93 73 63 75 98 90 88 86
74 76 78 79 80 81 96 100 100 89 98 98 95 86 84 88 92 75 76 73 82 80 80 70 73 80 73 62 81 90 85 95 96 91 84 91 93 79 71 68 73 82 67 89
75 75 76 81 80 80 99 99 99 98 97 82 96 91 85 87 76 67 96 94 80 89 84 83 65 79 77 72 72 81 86 93 95 92 72 62 75 46 30 50 57 65 74 91
76 74 77 78 80 80 100 99 94 97 93 93 94 83 81 72 73 68 62 75 88 85 88 84 70 64 76 74 66 86 90 96 97 90 89 96 97 65 36 67 70 78 88 80
72 72 77 78 78 79 98 98 96 99 93 98 89 74 75 78 71 82 72 73 77 72 73 85 88 76 66 74 64 71 94 96 98 95 95 96 82 68 65 75 80 84 86 86
71 74 76 76 77 76 96 97 97 99 97 76 92 87 77 74 73 75 74 68 80 80 80 99 99 96 93 85 65 66 77 92 97 96 92 80 75 76 83 78 87 87 90 89
74 76 76 76 78 74 93 95 96 98 100 94 83 98 88 95 96 90 81 81 91 92 100 98 92 93 83 96 83 62 74 78 90 94 94 95 80 66 62 64 79 85 91 91
73 74 77 78 77 75 91 96 91 97 99 96 88 93 94 88 92 94 93 97 98 97 99 98 97 91 63 89 89 96 95 96 92 86 86 87 80 66 64 72 75 89 90 91
72 74 78 80 78 78 89 94 92 95 100 95 85 80 95 96 93 97 93 96 99 99 98 93 96 95 81 79 82 73 77 88 91 76 90 86 75 68 78 89 97 93 96 96
78 78 79 79 79 81 85 98 93 93 99 93 85 84 87 90 89 91 96 87 92 94 95 84 93 99 98 87 94 78 83 82 86 84 87 94 91 96 94 88 94 97 97 95
85 84 82 79 80 78 85 97 99 98 99 97 98 98 84 78 83 76 81 84 69 79 77 92 89 88 94 96 96 93 87 77 94 90 94 96 98 92 87 88 93 94 92 92
85 84 84 83 83 81 91 98 96 98 98 99 96 79 94 81 83 86 66 60 69 76 82 94 96 96 84 91 88 90 81 76 91 96 94 91 90 93 91 93 88 88 87 86
84 84 83 87 85 81 91 96 97 97 96 95 99 88 84 83 78 73 60 64 67 78 75 92 94 92 88 93 88 97 83 93 93 90 82 85 90 92 87 91 90 87 90 90
87 84 86 87 92 85 97 100 94 94 96 94 97 72 74 65 62 63 60 66 75 77 83 91 86 72 86 97 98 92 90 83 76 90 80 88 91 86 78 86 86 85 84 84
85 84 87 91 86 93 98 96 94 88 96 95 89 79 66 63 64 73 73 70 79 67 74 78 82 78 80 96 95 96 94 90 89 87 86 95 89 93 76 80 81 79 85 85
89 91 89 84 82 82 92 85 88 90 97 91 95 91 78 64 79 76 81 77 76 79 76 78 72 72 85 96 94 97 92 90 85 84 80 80 79 71 75 79 82 86 88 84
87 88 88 95 95 97 93 76 81 93 90 94 89 89 93 77 90 84 76 80 89 79 84 76 78 96 89 88 89 96 88 88 89 83 80 80 81 79 83 85 83 85 84 84
85 91 98 100 95 77 75 79 91 89 82 88 91 87 92 83 97 94 85 90 91 87 86 82 95 98 91 89 90 86 86 86 81 93 93 87 86 84 82 82 77 75 78 80
95 98 99 92 74 87 78 91 82 91 82 87 90 86 92 81 88 94 85 91 92 89 90 84 97 98 96 92 93 88 88 80 80 80 79 79 78 80 80 78 75 74 75 72
85 77 79 82 85 86 78 93 85 80 77 89 86 82 84 91 78 87 92 83 89 87 92 88 95 95 94 93 89 88 88 86 81 79 84 84 77 75 74 75 76 77 80 83
75 77 75 78 85 86 79 89 87 93 96 92 94 94 92 83 86 94 90 90 95 89 94 93 92 94 92 86 87 88 88 86 84 85 81 79 79 76 78 86 89 86 86 87
81 83 95 89 95 94 93 94 98 97 98 93 95 98 96 98 93 98 91 96 90 98 98 93 92 96 92 90 86 87 93 90 90 91 90 90 90 94 95 95 89 88 90 89
88 86 99 97 98 98 99 99 99 99 97 93 94 95 93 96 89 95 89 92 97 92 93 98 99 97 94 94 95 96 96 95 95 92 92 95 95 96 96 96 94 92 90 88
92 91 94 98 96 98 99 99 100 98 98 97 94 95 94 95 92 90 92 89 95 95 99 99 99 99 98 98 98 97 97 96 96 96 95 96 96 96 96 96 96 96 94 90
91 98 99 99 99 99 99 99 97 97 92 95 92 86 86 93 94 92 86 98 97 99 100 99 98 98 99 98 98 98 97 96 96 96 96 96 96 95 94 94 95 93 93 86